Wetterdaten: Samstag, 27.01.2018
Datum Zeit Temp. A. Pool Temp. Feuchte A. Luftdruck Regen Wind Richtung Richtung Sonnenschein ET UV Solar Taupunkt Windchill Windben Empfang
27.01.2018 00:00 0,5 C 3,9 C 98 % 1024,4 hPa 0,0 l/m 0,9 km/h (0 Bft) O 96 0 min 0,000 mm 0,0 UV-I 0 W/m 0,2 C 0,5 C 3,2 km/h (1 Bft) 97,65 %
27.01.2018 00:02 0,5 C 3,9 C 98 % 1024,4 hPa 0,0 l/m 3,0 km/h (1 Bft) O 94 0 min 0,000 mm 0,0 UV-I 0 W/m 0,2 C 0,5 C 4,8 km/h (1 Bft) 10,00 %
27.01.2018 00:04 0,5 C 3,9 C 98 % 1024,5 hPa 0,0 l/m 4,0 km/h (1 Bft) O-NO 75 0 min 0,000 mm 0,0 UV-I 0 W/m 0,2 C 0,5 C 6,4 km/h (2 Bft) 94,44 %
27.01.2018 00:06 0,4 C 3,9 C 98 % 1024,6 hPa 0,0 l/m 3,8 km/h (1 Bft) O-NO 74 0 min 0,000 mm 0,0 UV-I 0 W/m 0,1 C 0,4 C 6,4 km/h (2 Bft) 100,00 %
27.01.2018 00:08 0,4 C 3,9 C 98 % 1024,5 hPa 0,0 l/m 3,0 km/h (1 Bft) O-NO 74 0 min 0,000 mm 0,0 UV-I 0 W/m 0,1 C 0,4 C 4,8 km/h (1 Bft) 92,68 %
27.01.2018 00:10 0,5 C 3,9 C 98 % 1024,5 hPa 0,0 l/m 3,8 km/h (1 Bft) NO 55 0 min 0,000 mm 0,0 UV-I 0 W/m 0,2 C 0,5 C 8,0 km/h (2 Bft) 98,11 %
27.01.2018 00:12 0,5 C 3,9 C 98 % 1024,6 hPa 0,0 l/m 4,2 km/h (1 Bft) O-NO 66 0 min 0,000 mm 0,0 UV-I 0 W/m 0,2 C 0,5 C 6,4 km/h (2 Bft) 97,87 %
27.01.2018 00:14 0,5 C 3,9 C 98 % 1024,5 hPa 0,0 l/m 3,9 km/h (1 Bft) O-NO 60 0 min 0,000 mm 0,0 UV-I 0 W/m 0,2 C 0,5 C 6,4 km/h (2 Bft) 100,00 %
27.01.2018 00:16 0,5 C 3,9 C 98 % 1024,5 hPa 0,0 l/m 4,4 km/h (1 Bft) O 81 0 min 0,000 mm 0,0 UV-I 0 W/m 0,2 C 0,5 C 6,4 km/h (2 Bft) 100,00 %
27.01.2018 00:18 0,5 C 3,9 C 98 % 1024,5 hPa 0,0 l/m 3,0 km/h (1 Bft) O-NO 69 0 min 0,000 mm 0,0 UV-I 0 W/m 0,2 C 0,5 C 6,4 km/h (2 Bft) 98,00 %
27.01.2018 00:20 0,5 C 3,9 C 98 % 1024,6 hPa 0,0 l/m 3,3 km/h (1 Bft) O 92 0 min 0,000 mm 0,0 UV-I 0 W/m 0,2 C 0,5 C 4,8 km/h (1 Bft) 100,00 %
27.01.2018 00:22 0,5 C 3,9 C 98 % 1024,5 hPa 0,0 l/m 4,3 km/h (1 Bft) O-NO 76 0 min 0,000 mm 0,0 UV-I 0 W/m 0,2 C 0,5 C 8,0 km/h (2 Bft) 97,87 %
27.01.2018 00:24 0,5 C 3,9 C 98 % 1024,5 hPa 0,0 l/m 4,8 km/h (1 Bft) O-NO 78 0 min 0,000 mm 0,0 UV-I 0 W/m 0,2 C 0,5 C 8,0 km/h (2 Bft) 100,00 %
27.01.2018 00:26 0,5 C 3,9 C 98 % 1024,6 hPa 0,0 l/m 5,6 km/h (1 Bft) O-NO 60 0 min 0,000 mm 0,0 UV-I 0 W/m 0,2 C 0,5 C 8,0 km/h (2 Bft) 100,00 %
27.01.2018 00:28 0,5 C 3,9 C 98 % 1024,6 hPa 0,0 l/m 5,2 km/h (1 Bft) O-NO 58 0 min 0,000 mm 0,0 UV-I 0 W/m 0,2 C 0,5 C 8,0 km/h (2 Bft) 97,87 %
27.01.2018 00:30 0,5 C 3,9 C 98 % 1024,6 hPa 0,0 l/m 7,1 km/h (2 Bft) O 80 0 min 0,000 mm 0,0 UV-I 0 W/m 0,2 C -0,2 C 9,7 km/h (2 Bft) 100,00 %
27.01.2018 00:32 0,5 C 3,9 C 98 % 1024,6 hPa 0,0 l/m 4,2 km/h (1 Bft) O 92 0 min 0,000 mm 0,0 UV-I 0 W/m 0,2 C 0,5 C 11,3 km/h (2 Bft) 98,28 %
27.01.2018 00:34 0,5 C 3,9 C 98 % 1024,7 hPa 0,0 l/m 5,0 km/h (1 Bft) O 83 0 min 0,000 mm 0,0 UV-I 0 W/m 0,2 C 0,5 C 8,0 km/h (2 Bft) 97,44 %
27.01.2018 00:36 0,4 C 3,9 C 98 % 1024,7 hPa 0,0 l/m 4,4 km/h (1 Bft) O-NO 69 0 min 0,000 mm 0,0 UV-I 0 W/m 0,1 C 0,4 C 8,0 km/h (2 Bft) 100,00 %
27.01.2018 00:38 0,4 C 3,9 C 98 % 1024,7 hPa 0,0 l/m 4,4 km/h (1 Bft) O-NO 60 0 min 0,000 mm 0,0 UV-I 0 W/m 0,1 C 0,4 C 8,0 km/h (2 Bft) 97,56 %
27.01.2018 00:40 0,4 C 3,9 C 98 % 1024,7 hPa 0,0 l/m 4,9 km/h (1 Bft) O-NO 59 0 min 0,000 mm 0,0 UV-I 0 W/m 0,1 C 0,4 C 8,0 km/h (2 Bft) 100,00 %
27.01.2018 00:42 0,5 C 3,9 C 98 % 1024,8 hPa 0,0 l/m 2,6 km/h (1 Bft) O-NO 71 0 min 0,000 mm 0,0 UV-I 0 W/m 0,2 C 0,5 C 6,4 km/h (2 Bft) 100,00 %
27.01.2018 00:44 0,4 C 3,9 C 98 % 1024,8 hPa 0,0 l/m 4,0 km/h (1 Bft) O-NO 74 0 min 0,000 mm 0,0 UV-I 0 W/m 0,1 C 0,4 C 6,4 km/h (2 Bft) 100,00 %
27.01.2018 00:46 0,4 C 3,9 C 98 % 1024,8 hPa 0,0 l/m 4,7 km/h (1 Bft) O 80 0 min 0,000 mm 0,0 UV-I 0 W/m 0,1 C 0,4 C 6,4 km/h (2 Bft) 100,00 %
27.01.2018 00:48 0,4 C 3,9 C 98 % 1024,8 hPa 0,0 l/m 4,5 km/h (1 Bft) NO 56 0 min 0,000 mm 0,0 UV-I 0 W/m 0,1 C 0,4 C 8,0 km/h (2 Bft) 100,00 %
27.01.2018 00:50 0,4 C 3,9 C 98 % 1024,8 hPa 0,0 l/m 6,4 km/h (2 Bft) NO 50 0 min 0,000 mm 0,0 UV-I 0 W/m 0,1 C 0,4 C 8,0 km/h (2 Bft) 100,00 %
27.01.2018 00:52 0,4 C 3,9 C 98 % 1024,9 hPa 0,0 l/m 3,8 km/h (1 Bft) O-NO 65 0 min 0,000 mm 0,0 UV-I 0 W/m 0,1 C 0,4 C 6,4 km/h (2 Bft) 98,00 %
27.01.2018 00:54 0,4 C 3,9 C 98 % 1024,9 hPa 0,0 l/m 4,5 km/h (1 Bft) O-NO 69 0 min 0,000 mm 0,0 UV-I 0 W/m 0,1 C 0,4 C 6,4 km/h (2 Bft) 100,00 %
27.01.2018 00:56 0,4 C 3,9 C 98 % 1024,9 hPa 0,0 l/m 4,4 km/h (1 Bft) O-NO 58 0 min 0,000 mm 0,0 UV-I 0 W/m 0,1 C 0,4 C 6,4 km/h (2 Bft) 100,00 %
27.01.2018 00:58 0,4 C 3,9 C 98 % 1024,9 hPa 0,0 l/m 4,5 km/h (1 Bft) NO 56 0 min 0,000 mm 0,0 UV-I 0 W/m 0,1 C 0,4 C 6,4 km/h (2 Bft) 97,22 %
27.01.2018 01:00 0,4 C 3,9 C 98 % 1025,0 hPa 0,0 l/m 4,8 km/h (1 Bft) O-NO 69 0 min 0,000 mm 0,0 UV-I 0 W/m 0,1 C 0,4 C 6,4 km/h (2 Bft) 96,36 %
27.01.2018 01:02 0,4 C 3,9 C 98 % 1025,1 hPa 0,0 l/m 3,1 km/h (1 Bft) O-NO 69 0 min 0,000 mm 0,0 UV-I 0 W/m 0,1 C 0,4 C 4,8 km/h (1 Bft) 97,87 %
27.01.2018 01:04 0,4 C 3,9 C 98 % 1025,1 hPa 0,0 l/m 2,0 km/h (1 Bft) O-NO 69 0 min 0,000 mm 0,0 UV-I 0 W/m 0,1 C 0,4 C 4,8 km/h (1 Bft) 97,44 %
27.01.2018 01:06 0,5 C 3,9 C 98 % 1025,0 hPa 0,0 l/m 3,1 km/h (1 Bft) O-NO 69 0 min 0,000 mm 0,0 UV-I 0 W/m 0,2 C 0,5 C 6,4 km/h (2 Bft) 98,21 %
27.01.2018 01:08 0,4 C 3,9 C 98 % 1025,0 hPa 0,0 l/m 4,7 km/h (1 Bft) O-NO 57 0 min 0,000 mm 0,0 UV-I 0 W/m 0,1 C 0,4 C 8,0 km/h (2 Bft) 95,74 %
27.01.2018 01:10 0,5 C 3,9 C 98 % 1025,0 hPa 0,0 l/m 3,3 km/h (1 Bft) O-NO 71 0 min 0,000 mm 0,0 UV-I 0 W/m 0,2 C 0,5 C 6,4 km/h (2 Bft) 97,87 %
27.01.2018 01:12 0,4 C 3,9 C 98 % 1025,1 hPa 0,0 l/m 4,7 km/h (1 Bft) O-NO 67 0 min 0,000 mm 0,0 UV-I 0 W/m 0,1 C 0,4 C 8,0 km/h (2 Bft) 98,00 %
27.01.2018 01:14 0,4 C 3,9 C 98 % 1025,0 hPa 0,0 l/m 4,6 km/h (1 Bft) O-NO 58 0 min 0,000 mm 0,0 UV-I 0 W/m 0,1 C 0,4 C 6,4 km/h (2 Bft) 97,56 %
27.01.2018 01:16 0,5 C 3,9 C 98 % 1025,1 hPa 0,0 l/m 3,9 km/h (1 Bft) O-NO 60 0 min 0,000 mm 0,0 UV-I 0 W/m 0,2 C 0,5 C 6,4 km/h (2 Bft) 96,23 %
27.01.2018 01:18 0,4 C 3,9 C 98 % 1025,2 hPa 0,0 l/m 2,6 km/h (1 Bft) NO 38 0 min 0,000 mm 0,0 UV-I 0 W/m 0,1 C 0,4 C 6,4 km/h (2 Bft) 97,56 %
27.01.2018 01:20 0,4 C 3,9 C 98 % 1025,1 hPa 0,0 l/m 3,7 km/h (1 Bft) NO 38 0 min 0,000 mm 0,0 UV-I 0 W/m 0,1 C 0,4 C 4,8 km/h (1 Bft) 98,11 %
27.01.2018 01:22 0,5 C 3,9 C 98 % 1025,2 hPa 0,0 l/m 4,0 km/h (1 Bft) NO 54 0 min 0,000 mm 0,0 UV-I 0 W/m 0,2 C 0,5 C 4,8 km/h (1 Bft) 97,37 %
27.01.2018 01:24 0,5 C 3,9 C 98 % 1025,2 hPa 0,0 l/m 3,4 km/h (1 Bft) O-NO 65 0 min 0,000 mm 0,0 UV-I 0 W/m 0,2 C 0,5 C 6,4 km/h (2 Bft) 97,87 %
27.01.2018 01:26 0,5 C 3,9 C 98 % 1025,2 hPa 0,0 l/m 2,8 km/h (1 Bft) O-NO 73 0 min 0,000 mm 0,0 UV-I 0 W/m 0,2 C 0,5 C 4,8 km/h (1 Bft) 98,11 %
27.01.2018 01:28 0,5 C 3,9 C 98 % 1025,2 hPa 0,0 l/m 1,3 km/h (1 Bft) O-NO 73 0 min 0,000 mm 0,0 UV-I 0 W/m 0,2 C 0,5 C 3,2 km/h (1 Bft) 97,56 %
27.01.2018 01:30 0,5 C 3,9 C 98 % 1025,2 hPa 0,0 l/m 2,2 km/h (1 Bft) O-NO 72 0 min 0,000 mm 0,0 UV-I 0 W/m 0,2 C 0,5 C 4,8 km/h (1 Bft) 98,00 %
27.01.2018 01:32 0,5 C 3,9 C 98 % 1025,2 hPa 0,0 l/m 3,7 km/h (1 Bft) O-NO 72 0 min 0,000 mm 0,0 UV-I 0 W/m 0,2 C 0,5 C 4,8 km/h (1 Bft) 100,00 %
27.01.2018 01:34 0,5 C 3,9 C 98 % 1025,3 hPa 0,0 l/m 2,9 km/h (1 Bft) O-NO 72 0 min 0,000 mm 0,0 UV-I 0 W/m 0,2 C 0,5 C 4,8 km/h (1 Bft) 98,36 %
27.01.2018 01:36 0,5 C 3,9 C 98 % 1025,3 hPa 0,0 l/m 2,3 km/h (1 Bft) O-NO 72 0 min 0,000 mm 0,0 UV-I 0 W/m 0,2 C 0,5 C 4,8 km/h (1 Bft) 95,83 %
27.01.2018 01:38 0,5 C 3,9 C 98 % 1025,4 hPa 0,0 l/m 0,4 km/h (0 Bft) O-NO 72 0 min 0,000 mm 0,0 UV-I 0 W/m 0,2 C 0,5 C 1,6 km/h (1 Bft) 100,00 %
27.01.2018 01:40 0,5 C 3,9 C 98 % 1025,4 hPa 0,0 l/m 0,0 km/h (0 Bft) O-NO 72 0 min 0,000 mm 0,0 UV-I 0 W/m 0,2 C 0,5 C 0,0 km/h (0 Bft) 100,00 %
27.01.2018 01:42 0,5 C 3,9 C 98 % 1025,5 hPa 0,0 l/m 0,0 km/h (0 Bft) O-NO 72 0 min 0,000 mm 0,0 UV-I 0 W/m 0,2 C 0,5 C 0,0 km/h (0 Bft) 100,00 %
27.01.2018 01:44 0,5 C 3,9 C 98 % 1025,5 hPa 0,0 l/m 0,3 km/h (0 Bft) O-NO 72 0 min 0,000 mm 0,0 UV-I 0 W/m 0,2 C 0,5 C 1,6 km/h (1 Bft) 100,00 %
27.01.2018 01:46 0,4 C 3,9 C 98 % 1025,5 hPa 0,0 l/m 0,5 km/h (0 Bft) O-NO 72 0 min 0,000 mm 0,0 UV-I 0 W/m 0,1 C 0,4 C 1,6 km/h (1 Bft) 97,87 %
27.01.2018 01:48 0,5 C 3,9 C 98 % 1025,5 hPa 0,0 l/m 0,0 km/h (0 Bft) O-NO 72 0 min 0,000 mm 0,0 UV-I 0 W/m 0,2 C 0,5 C 1,6 km/h (1 Bft) 100,00 %
27.01.2018 01:50 0,5 C 3,9 C 98 % 1025,6 hPa 0,0 l/m 1,8 km/h (1 Bft) O-NO 72 0 min 0,000 mm 0,0 UV-I 0 W/m 0,2 C 0,5 C 3,2 km/h (1 Bft) 100,00 %
27.01.2018 01:52 0,5 C 3,9 C 98 % 1025,6 hPa 0,0 l/m 1,2 km/h (1 Bft) O-NO 72 0 min 0,000 mm 0,0 UV-I 0 W/m 0,2 C 0,5 C 3,2 km/h (1 Bft) 95,83 %
27.01.2018 01:54 0,5 C 3,9 C 98 % 1025,6 hPa 0,0 l/m 0,3 km/h (0 Bft) O-NO 72 0 min 0,000 mm 0,0 UV-I 0 W/m 0,2 C 0,5 C 3,2 km/h (1 Bft) 100,00 %
27.01.2018 01:56 0,5 C 3,9 C 98 % 1025,5 hPa 0,0 l/m 2,7 km/h (1 Bft) O-NO 72 0 min 0,000 mm 0,0 UV-I 0 W/m 0,2 C 0,5 C 4,8 km/h (1 Bft) 100,00 %
27.01.2018 01:58 0,5 C 3,9 C 98 % 1025,6 hPa 0,0 l/m 2,0 km/h (1 Bft) O-NO 72 0 min 0,000 mm 0,0 UV-I 0 W/m 0,2 C 0,5 C 3,2 km/h (1 Bft) 100,00 %
27.01.2018 02:00 0,5 C 3,9 C 98 % 1025,6 hPa 0,0 l/m 3,0 km/h (1 Bft) O-NO 72 0 min 0,000 mm 0,0 UV-I 0 W/m 0,2 C 0,5 C 4,8 km/h (1 Bft) 100,00 %
27.01.2018 02:02 0,5 C 3,9 C 98 % 1025,6 hPa 0,0 l/m 3,1 km/h (1 Bft) O-NO 72 0 min 0,000 mm 0,0 UV-I 0 W/m 0,2 C 0,5 C 4,8 km/h (1 Bft) 95,74 %
27.01.2018 02:04 0,5 C 3,9 C 98 % 1025,6 hPa 0,0 l/m 1,6 km/h (1 Bft) O-NO 72 0 min 0,000 mm 0,0 UV-I 0 W/m 0,2 C 0,5 C 3,2 km/h (1 Bft) 100,00 %
27.01.2018 02:06 0,5 C 3,9 C 98 % 1025,6 hPa 0,0 l/m 2,3 km/h (1 Bft) O-NO 72 0 min 0,000 mm 0,0 UV-I 0 W/m 0,2 C 0,5 C 3,2 km/h (1 Bft) 100,00 %
27.01.2018 02:08 0,5 C 3,9 C 98 % 1025,6 hPa 0,0 l/m 1,5 km/h (1 Bft) O-NO 72 0 min 0,000 mm 0,0 UV-I 0 W/m 0,2 C 0,5 C 3,2 km/h (1 Bft) 98,08 %
27.01.2018 02:10 0,5 C 3,9 C 98 % 1025,7 hPa 0,0 l/m 2,2 km/h (1 Bft) O-NO 72 0 min 0,000 mm 0,0 UV-I 0 W/m 0,2 C 0,5 C 3,2 km/h (1 Bft) 100,00 %
27.01.2018 02:12 0,5 C 3,9 C 98 % 1025,6 hPa 0,0 l/m 1,7 km/h (1 Bft) O-NO 72 0 min 0,000 mm 0,0 UV-I 0 W/m 0,2 C 0,5 C 3,2 km/h (1 Bft) 100,00 %
27.01.2018 02:14 0,5 C 3,9 C 98 % 1025,7 hPa 0,0 l/m 0,4 km/h (0 Bft) O-NO 72 0 min 0,000 mm 0,0 UV-I 0 W/m 0,2 C 0,5 C 1,6 km/h (1 Bft) 100,00 %
27.01.2018 02:16 0,5 C 3,9 C 98 % 1025,7 hPa 0,0 l/m 0,0 km/h (0 Bft) O-NO 72 0 min 0,000 mm 0,0 UV-I 0 W/m 0,2 C 0,5 C 0,0 km/h (0 Bft) 100,00 %
27.01.2018 02:18 0,5 C 3,9 C 98 % 1025,7 hPa 0,0 l/m 0,0 km/h (0 Bft) O-NO 72 0 min 0,000 mm 0,0 UV-I 0 W/m 0,2 C 0,5 C 0,0 km/h (0 Bft) 96,15 %
27.01.2018 02:20 0,5 C 3,9 C 98 % 1025,8 hPa 0,0 l/m 1,0 km/h (0 Bft) O-NO 72 0 min 0,000 mm 0,0 UV-I 0 W/m 0,2 C 0,5 C 3,2 km/h (1 Bft) 100,00 %
27.01.2018 02:22 0,5 C 3,9 C 98 % 1025,8 hPa 0,0 l/m 2,0 km/h (1 Bft) O-NO 72 0 min 0,000 mm 0,0 UV-I 0 W/m 0,2 C 0,5 C 4,8 km/h (1 Bft) 100,00 %
27.01.2018 02:24 0,5 C 3,9 C 98 % 1025,9 hPa 0,0 l/m 1,8 km/h (1 Bft) O-NO 72 0 min 0,000 mm 0,0 UV-I 0 W/m 0,2 C 0,5 C 3,2 km/h (1 Bft) 100,00 %
27.01.2018 02:26 0,5 C 3,9 C 98 % 1025,9 hPa 0,0 l/m 1,4 km/h (1 Bft) O-NO 72 0 min 0,000 mm 0,0 UV-I 0 W/m 0,2 C 0,5 C 3,2 km/h (1 Bft) 100,00 %
27.01.2018 02:28 0,6 C 3,9 C 98 % 1025,9 hPa 0,0 l/m 2,1 km/h (1 Bft) O-NO 72 0 min 0,000 mm 0,0 UV-I 0 W/m 0,3 C 0,6 C 4,8 km/h (1 Bft) 100,00 %
27.01.2018 02:30 0,6 C 3,9 C 98 % 1025,9 hPa 0,0 l/m 1,3 km/h (1 Bft) O-NO 72 0 min 0,000 mm 0,0 UV-I 0 W/m 0,3 C 0,6 C 3,2 km/h (1 Bft) 100,00 %
27.01.2018 02:32 0,5 C 3,9 C 98 % 1025,9 hPa 0,0 l/m 0,5 km/h (0 Bft) O-NO 72 0 min 0,000 mm 0,0 UV-I 0 W/m 0,2 C 0,5 C 3,2 km/h (1 Bft) 100,00 %
27.01.2018 02:34 0,6 C 3,9 C 98 % 1025,9 hPa 0,0 l/m 1,6 km/h (1 Bft) O-NO 72 0 min 0,000 mm 0,0 UV-I 0 W/m 0,3 C 0,6 C 3,2 km/h (1 Bft) 100,00 %
27.01.2018 02:36 0,6 C 3,9 C 98 % 1026,0 hPa 0,0 l/m 1,8 km/h (1 Bft) O-NO 72 0 min 0,000 mm 0,0 UV-I 0 W/m 0,3 C 0,6 C 3,2 km/h (1 Bft) 100,00 %
27.01.2018 02:38 0,5 C 3,9 C 98 % 1025,9 hPa 0,0 l/m 0,6 km/h (0 Bft) O-NO 72 0 min 0,000 mm 0,0 UV-I 0 W/m 0,2 C 0,5 C 1,6 km/h (1 Bft) 100,00 %
27.01.2018 02:40 0,5 C 3,9 C 98 % 1025,9 hPa 0,0 l/m 1,4 km/h (1 Bft) O-NO 72 0 min 0,000 mm 0,0 UV-I 0 W/m 0,2 C 0,5 C 3,2 km/h (1 Bft) 100,00 %
27.01.2018 02:42 0,5 C 3,9 C 98 % 1025,9 hPa 0,0 l/m 1,0 km/h (0 Bft) O-NO 72 0 min 0,000 mm 0,0 UV-I 0 W/m 0,2 C 0,5 C 3,2 km/h (1 Bft) 100,00 %
27.01.2018 02:44 0,5 C 3,9 C 98 % 1026,0 hPa 0,0 l/m 1,3 km/h (1 Bft) O-NO 72 0 min 0,000 mm 0,0 UV-I 0 W/m 0,2 C 0,5 C 3,2 km/h (1 Bft) 97,87 %
27.01.2018 02:46 0,5 C 3,9 C 98 % 1026,0 hPa 0,0 l/m 1,0 km/h (0 Bft) O-NO 72 0 min 0,000 mm 0,0 UV-I 0 W/m 0,2 C 0,5 C 1,6 km/h (1 Bft) 100,00 %
27.01.2018 02:48 0,5 C 3,9 C 98 % 1026,0 hPa 0,0 l/m 0,2 km/h (0 Bft) O-NO 72 0 min 0,000 mm 0,0 UV-I 0 W/m 0,2 C 0,5 C 1,6 km/h (1 Bft) 100,00 %
27.01.2018 02:50 0,5 C 3,9 C 98 % 1026,0 hPa 0,0 l/m 1,7 km/h (1 Bft) O-NO 72 0 min 0,000 mm 0,0 UV-I 0 W/m 0,2 C 0,5 C 4,8 km/h (1 Bft) 100,00 %
27.01.2018 02:52 0,5 C 3,9 C 98 % 1026,0 hPa 0,0 l/m 2,4 km/h (1 Bft) O-NO 72 0 min 0,000 mm 0,0 UV-I 0 W/m 0,2 C 0,5 C 3,2 km/h (1 Bft) 100,00 %
27.01.2018 02:54 0,5 C 3,9 C 98 % 1026,0 hPa 0,0 l/m 1,3 km/h (1 Bft) O-NO 72 0 min 0,000 mm 0,0 UV-I 0 W/m 0,2 C 0,5 C 3,2 km/h (1 Bft) 100,00 %
27.01.2018 02:56 0,6 C 3,9 C 98 % 1026,0 hPa 0,0 l/m 0,0 km/h (0 Bft) O-NO 72 0 min 0,000 mm 0,0 UV-I 0 W/m 0,3 C 0,6 C 1,6 km/h (1 Bft) 100,00 %
27.01.2018 02:58 0,6 C 3,9 C 98 % 1026,0 hPa 0,0 l/m 0,0 km/h (0 Bft) O-NO 72 0 min 0,000 mm 0,0 UV-I 0 W/m 0,3 C 0,6 C 0,0 km/h (0 Bft) 100,00 %
27.01.2018 03:00 0,6 C 3,9 C 98 % 1026,1 hPa 0,0 l/m 1,0 km/h (0 Bft) O-NO 72 0 min 0,000 mm 0,0 UV-I 0 W/m 0,3 C 0,6 C 3,2 km/h (1 Bft) 96,00 %
27.01.2018 03:02 0,6 C 3,9 C 98 % 1026,1 hPa 0,0 l/m 0,4 km/h (0 Bft) O-NO 72 0 min 0,000 mm 0,0 UV-I 0 W/m 0,3 C 0,6 C 1,6 km/h (1 Bft) 90,00 %
27.01.2018 03:04 0,6 C 3,9 C 98 % 1026,2 hPa 0,0 l/m 0,6 km/h (0 Bft) O-NO 72 0 min 0,000 mm 0,0 UV-I 0 W/m 0,3 C 0,6 C 1,6 km/h (1 Bft) 96,00 %
27.01.2018 03:06 0,6 C 3,9 C 98 % 1026,2 hPa 0,0 l/m 0,9 km/h (0 Bft) O-NO 72 0 min 0,000 mm 0,0 UV-I 0 W/m 0,3 C 0,6 C 1,6 km/h (1 Bft) 96,00 %
27.01.2018 03:08 0,5 C 3,9 C 98 % 1026,2 hPa 0,0 l/m 0,2 km/h (0 Bft) O-NO 72 0 min 0,000 mm 0,0 UV-I 0 W/m 0,2 C 0,5 C 1,6 km/h (1 Bft) 94,29 %
27.01.2018 03:10 0,5 C 3,9 C 98 % 1026,2 hPa 0,0 l/m 0,0 km/h (0 Bft) O-NO 72 0 min 0,000 mm 0,0 UV-I 0 W/m 0,2 C 0,5 C 0,0 km/h (0 Bft) 96,23 %
27.01.2018 03:12 0,5 C 3,9 C 98 % 1026,2 hPa 0,0 l/m 0,0 km/h (0 Bft) O-NO 72 0 min 0,000 mm 0,0 UV-I 0 W/m 0,2 C 0,5 C 0,0 km/h (0 Bft) 95,74 %
27.01.2018 03:14 0,6 C 3,9 C 98 % 1026,2 hPa 0,0 l/m 0,0 km/h (0 Bft) O-NO 72 0 min 0,000 mm 0,0 UV-I 0 W/m 0,3 C 0,6 C 0,0 km/h (0 Bft) 92,31 %
27.01.2018 03:16 0,6 C 3,9 C 98 % 1026,2 hPa 0,0 l/m 0,4 km/h (0 Bft) O-NO 72 0 min 0,000 mm 0,0 UV-I 0 W/m 0,3 C 0,6 C 1,6 km/h (1 Bft) 96,00 %
27.01.2018 03:18 0,6 C 3,9 C 98 % 1026,1 hPa 0,0 l/m 0,5 km/h (0 Bft) O-NO 72 0 min 0,000 mm 0,0 UV-I 0 W/m 0,3 C 0,6 C 1,6 km/h (1 Bft) 98,00 %
27.01.2018 03:20 0,5 C 3,9 C 98 % 1026,2 hPa 0,0 l/m 1,3 km/h (1 Bft) O-NO 72 0 min 0,000 mm 0,0 UV-I 0 W/m 0,2 C 0,5 C 3,2 km/h (1 Bft) 91,49 %
27.01.2018 03:22 0,5 C 3,9 C 98 % 1026,2 hPa 0,0 l/m 0,5 km/h (0 Bft) O-NO 72 0 min 0,000 mm 0,0 UV-I 0 W/m 0,2 C 0,5 C 1,6 km/h (1 Bft) 97,87 %
27.01.2018 03:24 0,6 C 3,9 C 98 % 1026,2 hPa 0,0 l/m 0,5 km/h (0 Bft) O-NO 72 0 min 0,000 mm 0,0 UV-I 0 W/m 0,3 C 0,6 C 1,6 km/h (1 Bft) 95,74 %
27.01.2018 03:26 0,6 C 3,9 C 98 % 1026,3 hPa 0,0 l/m 0,0 km/h (0 Bft) O-NO 72 0 min 0,000 mm 0,0 UV-I 0 W/m 0,3 C 0,6 C 0,0 km/h (0 Bft) 96,00 %
27.01.2018 03:28 0,6 C 3,9 C 98 % 1026,4 hPa 0,0 l/m 0,0 km/h (0 Bft) O-NO 72 0 min 0,000 mm 0,0 UV-I 0 W/m 0,3 C 0,6 C 0,0 km/h (0 Bft) 91,43 %
27.01.2018 03:30 0,5 C 3,9 C 98 % 1026,3 hPa 0,0 l/m 0,0 km/h (0 Bft) O-NO 72 0 min 0,000 mm 0,0 UV-I 0 W/m 0,2 C 0,5 C 0,0 km/h (0 Bft) 96,43 %
27.01.2018 03:32 0,5 C 3,9 C 98 % 1026,4 hPa 0,0 l/m 0,0 km/h (0 Bft) O-NO 72 0 min 0,000 mm 0,0 UV-I 0 W/m 0,2 C 0,5 C 0,0 km/h (0 Bft) 95,74 %
27.01.2018 03:34 0,6 C 3,9 C 98 % 1026,5 hPa 0,0 l/m 0,0 km/h (0 Bft) O-NO 72 0 min 0,000 mm 0,0 UV-I 0 W/m 0,3 C 0,6 C 0,0 km/h (0 Bft) 96,23 %
27.01.2018 03:36 0,6 C 3,9 C 98 % 1026,5 hPa 0,0 l/m 0,0 km/h (0 Bft) O-NO 72 0 min 0,000 mm 0,0 UV-I 0 W/m 0,3 C 0,6 C 0,0 km/h (0 Bft) 97,14 %
27.01.2018 03:38 0,6 C 3,9 C 98 % 1026,5 hPa 0,0 l/m 0,0 km/h (0 Bft) O-NO 72 0 min 0,000 mm 0,0 UV-I 0 W/m 0,3 C 0,6 C 0,0 km/h (0 Bft) 97,87 %
27.01.2018 03:40 0,6 C 3,9 C 98 % 1026,6 hPa 0,0 l/m 0,0 km/h (0 Bft) O-NO 72 0 min 0,000 mm 0,0 UV-I 0 W/m 0,3 C 0,6 C 0,0 km/h (0 Bft) 97,87 %
27.01.2018 03:42 0,6 C 3,9 C 98 % 1026,7 hPa 0,0 l/m 0,0 km/h (0 Bft) O-NO 72 0 min 0,000 mm 0,0 UV-I 0 W/m 0,3 C 0,6 C 0,0 km/h (0 Bft) 95,83 %
27.01.2018 03:45 0,6 C 3,9 C 98 % 1026,7 hPa 0,0 l/m 0,0 km/h (0 Bft) O-NO 72 0 min 0,000 mm 0,0 UV-I 0 W/m 0,3 C 0,6 C 0,0 km/h (0 Bft) 97,37 %
27.01.2018 03:46 0,6 C 3,9 C 98 % 1026,7 hPa 0,0 l/m 0,0 km/h (0 Bft) O-NO 72 0 min 0,000 mm 0,0 UV-I 0 W/m 0,3 C 0,6 C 0,0 km/h (0 Bft) 95,83 %
27.01.2018 03:48 0,6 C 3,9 C 98 % 1026,6 hPa 0,0 l/m 0,0 km/h (0 Bft) O-NO 72 0 min 0,000 mm 0,0 UV-I 0 W/m 0,3 C 0,6 C 0,0 km/h (0 Bft) 98,00 %
27.01.2018 03:50 0,6 C 3,9 C 98 % 1026,6 hPa 0,0 l/m 0,0 km/h (0 Bft) O-NO 72 0 min 0,000 mm 0,0 UV-I 0 W/m 0,3 C 0,6 C 0,0 km/h (0 Bft) 97,37 %
27.01.2018 03:52 0,6 C 3,9 C 98 % 1026,6 hPa 0,0 l/m 0,0 km/h (0 Bft) O-NO 72 0 min 0,000 mm 0,0 UV-I 0 W/m 0,3 C 0,6 C 0,0 km/h (0 Bft) 97,87 %
27.01.2018 03:54 0,6 C 3,9 C 98 % 1026,6 hPa 0,0 l/m 0,0 km/h (0 Bft) O-NO 72 0 min 0,000 mm 0,0 UV-I 0 W/m 0,3 C 0,6 C 0,0 km/h (0 Bft) 95,74 %
27.01.2018 03:56 0,6 C 3,9 C 98 % 1026,6 hPa 0,0 l/m 0,0 km/h (0 Bft) O-NO 72 0 min 0,000 mm 0,0 UV-I 0 W/m 0,3 C 0,6 C 0,0 km/h (0 Bft) 96,43 %
27.01.2018 03:58 0,6 C 3,9 C 98 % 1026,7 hPa 0,0 l/m 0,5 km/h (0 Bft) O-NO 72 0 min 0,000 mm 0,0 UV-I 0 W/m 0,3 C 0,6 C 3,2 km/h (1 Bft) 97,37 %
27.01.2018 04:00 0,6 C 3,9 C 98 % 1026,7 hPa 0,0 l/m 0,9 km/h (0 Bft) O-NO 72 0 min 0,000 mm 0,0 UV-I 0 W/m 0,3 C 0,6 C 3,2 km/h (1 Bft) 96,43 %
27.01.2018 04:02 0,6 C 3,9 C 98 % 1026,8 hPa 0,0 l/m 0,0 km/h (0 Bft) O-NO 72 0 min 0,000 mm 0,0 UV-I 0 W/m 0,3 C 0,6 C 0,0 km/h (0 Bft) 100,00 %
27.01.2018 04:04 0,6 C 3,9 C 98 % 1026,7 hPa 0,0 l/m 0,1 km/h (0 Bft) O-NO 72 0 min 0,000 mm 0,0 UV-I 0 W/m 0,3 C 0,6 C 1,6 km/h (1 Bft) 94,74 %
27.01.2018 04:06 0,6 C 3,9 C 98 % 1026,8 hPa 0,0 l/m 0,0 km/h (0 Bft) O-NO 72 0 min 0,000 mm 0,0 UV-I 0 W/m 0,3 C 0,6 C 0,0 km/h (0 Bft) 96,23 %
27.01.2018 04:08 0,6 C 3,9 C 98 % 1026,9 hPa 0,0 l/m 0,0 km/h (0 Bft) O-NO 72 0 min 0,000 mm 0,0 UV-I 0 W/m 0,3 C 0,6 C 0,0 km/h (0 Bft) 97,92 %
27.01.2018 04:10 0,7 C 3,9 C 98 % 1026,8 hPa 0,0 l/m 2,0 km/h (1 Bft) O-SO 102 0 min 0,000 mm 0,0 UV-I 0 W/m 0,4 C 0,7 C 4,8 km/h (1 Bft) 97,87 %
27.01.2018 04:12 0,7 C 3,9 C 98 % 1026,8 hPa 0,0 l/m 3,0 km/h (1 Bft) O-SO 105 0 min 0,000 mm 0,0 UV-I 0 W/m 0,4 C 0,7 C 4,8 km/h (1 Bft) 97,44 %
27.01.2018 04:14 0,7 C 3,9 C 98 % 1026,8 hPa 0,0 l/m 0,4 km/h (0 Bft) O-SO 105 0 min 0,000 mm 0,0 UV-I 0 W/m 0,4 C 0,7 C 1,6 km/h (1 Bft) 98,36 %
27.01.2018 04:16 0,7 C 3,9 C 98 % 1026,8 hPa 0,0 l/m 0,4 km/h (0 Bft) O-SO 105 0 min 0,000 mm 0,0 UV-I 0 W/m 0,4 C 0,7 C 3,2 km/h (1 Bft) 100,00 %
27.01.2018 04:18 0,7 C 3,9 C 98 % 1026,8 hPa 0,0 l/m 0,0 km/h (0 Bft) O-SO 105 0 min 0,000 mm 0,0 UV-I 0 W/m 0,4 C 0,7 C 0,0 km/h (0 Bft) 100,00 %
27.01.2018 04:20 0,7 C 3,9 C 98 % 1026,9 hPa 0,0 l/m 0,0 km/h (0 Bft) O-SO 105 0 min 0,000 mm 0,0 UV-I 0 W/m 0,4 C 0,7 C 0,0 km/h (0 Bft) 100,00 %
27.01.2018 04:22 0,7 C 3,9 C 98 % 1026,9 hPa 0,0 l/m 0,0 km/h (0 Bft) O-SO 105 0 min 0,000 mm 0,0 UV-I 0 W/m 0,4 C 0,7 C 0,0 km/h (0 Bft) 100,00 %
27.01.2018 04:24 0,7 C 3,9 C 98 % 1026,9 hPa 0,0 l/m 0,0 km/h (0 Bft) O-SO 105 0 min 0,000 mm 0,0 UV-I 0 W/m 0,4 C 0,7 C 0,0 km/h (0 Bft) 100,00 %
27.01.2018 04:26 0,7 C 3,9 C 98 % 1026,9 hPa 0,0 l/m 0,3 km/h (0 Bft) O-SO 105 0 min 0,000 mm 0,0 UV-I 0 W/m 0,4 C 0,7 C 1,6 km/h (1 Bft) 97,87 %
27.01.2018 04:28 0,7 C 3,9 C 98 % 1026,9 hPa 0,0 l/m 2,1 km/h (1 Bft) O-SO 105 0 min 0,000 mm 0,0 UV-I 0 W/m 0,4 C 0,7 C 3,2 km/h (1 Bft) 100,00 %
27.01.2018 04:30 0,7 C 3,9 C 98 % 1026,9 hPa 0,0 l/m 2,7 km/h (1 Bft) O-SO 107 0 min 0,000 mm 0,0 UV-I 0 W/m 0,4 C 0,7 C 4,8 km/h (1 Bft) 100,00 %
27.01.2018 04:32 0,7 C 3,9 C 98 % 1027,0 hPa 0,0 l/m 1,5 km/h (1 Bft) O-SO 107 0 min 0,000 mm 0,0 UV-I 0 W/m 0,4 C 0,7 C 3,2 km/h (1 Bft) 98,00 %
27.01.2018 04:34 0,7 C 3,9 C 98 % 1027,0 hPa 0,0 l/m 1,1 km/h (1 Bft) O-SO 107 0 min 0,000 mm 0,0 UV-I 0 W/m 0,4 C 0,7 C 3,2 km/h (1 Bft) 100,00 %
27.01.2018 04:36 0,7 C 3,9 C 98 % 1027,0 hPa 0,0 l/m 1,7 km/h (1 Bft) O-SO 107 0 min 0,000 mm 0,0 UV-I 0 W/m 0,4 C 0,7 C 3,2 km/h (1 Bft) 98,00 %
27.01.2018 04:38 0,7 C 3,9 C 98 % 1027,0 hPa 0,0 l/m 0,3 km/h (0 Bft) O-SO 107 0 min 0,000 mm 0,0 UV-I 0 W/m 0,4 C 0,7 C 1,6 km/h (1 Bft) 100,00 %
27.01.2018 04:40 0,7 C 3,9 C 98 % 1027,0 hPa 0,0 l/m 1,9 km/h (1 Bft) O-SO 107 0 min 0,000 mm 0,0 UV-I 0 W/m 0,4 C 0,7 C 3,2 km/h (1 Bft) 100,00 %
27.01.2018 04:42 0,7 C 3,9 C 98 % 1027,0 hPa 0,0 l/m 2,4 km/h (1 Bft) O-SO 107 0 min 0,000 mm 0,0 UV-I 0 W/m 0,4 C 0,7 C 3,2 km/h (1 Bft) 100,00 %
27.01.2018 04:44 0,7 C 3,9 C 98 % 1027,0 hPa 0,0 l/m 2,5 km/h (1 Bft) O-SO 113 0 min 0,000 mm 0,0 UV-I 0 W/m 0,4 C 0,7 C 3,2 km/h (1 Bft) 100,00 %
27.01.2018 04:46 0,7 C 3,9 C 98 % 1027,0 hPa 0,0 l/m 2,6 km/h (1 Bft) O-SO 113 0 min 0,000 mm 0,0 UV-I 0 W/m 0,4 C 0,7 C 4,8 km/h (1 Bft) 97,56 %
27.01.2018 04:48 0,7 C 3,9 C 98 % 1027,1 hPa 0,0 l/m 3,0 km/h (1 Bft) O-SO 111 0 min 0,000 mm 0,0 UV-I 0 W/m 0,4 C 0,7 C 4,8 km/h (1 Bft) 100,00 %
27.01.2018 04:50 0,7 C 3,9 C 98 % 1027,1 hPa 0,0 l/m 1,4 km/h (1 Bft) O-SO 111 0 min 0,000 mm 0,0 UV-I 0 W/m 0,4 C 0,7 C 4,8 km/h (1 Bft) 97,22 %
27.01.2018 04:52 0,7 C 3,9 C 98 % 1027,1 hPa 0,0 l/m 1,2 km/h (1 Bft) O-SO 111 0 min 0,000 mm 0,0 UV-I 0 W/m 0,4 C 0,7 C 1,6 km/h (1 Bft) 100,00 %
27.01.2018 04:54 0,7 C 3,9 C 98 % 1027,1 hPa 0,0 l/m 0,2 km/h (0 Bft) O-SO 111 0 min 0,000 mm 0,0 UV-I 0 W/m 0,4 C 0,7 C 1,6 km/h (1 Bft) 97,87 %
27.01.2018 04:56 0,7 C 3,9 C 98 % 1027,2 hPa 0,0 l/m 0,0 km/h (0 Bft) O-SO 111 0 min 0,000 mm 0,0 UV-I 0 W/m 0,4 C 0,7 C 0,0 km/h (0 Bft) 100,00 %
27.01.2018 04:58 0,7 C 3,9 C 98 % 1027,2 hPa 0,0 l/m 0,0 km/h (0 Bft) O-SO 111 0 min 0,000 mm 0,0 UV-I 0 W/m 0,4 C 0,7 C 0,0 km/h (0 Bft) 100,00 %
27.01.2018 05:00 0,7 C 3,9 C 98 % 1027,3 hPa 0,0 l/m 0,2 km/h (0 Bft) O-SO 111 0 min 0,000 mm 0,0 UV-I 0 W/m 0,4 C 0,7 C 1,6 km/h (1 Bft) 100,00 %
27.01.2018 05:02 0,7 C 3,9 C 98 % 1027,3 hPa 0,0 l/m 1,2 km/h (1 Bft) O-SO 111 0 min 0,000 mm 0,0 UV-I 0 W/m 0,4 C 0,7 C 1,6 km/h (1 Bft) 97,87 %
27.01.2018 05:04 0,7 C 3,9 C 98 % 1027,4 hPa 0,0 l/m 0,0 km/h (0 Bft) O-SO 111 0 min 0,000 mm 0,0 UV-I 0 W/m 0,4 C 0,7 C 1,6 km/h (1 Bft) 98,11 %
27.01.2018 05:06 0,7 C 3,9 C 98 % 1027,4 hPa 0,0 l/m 0,0 km/h (0 Bft) O-SO 111 0 min 0,000 mm 0,0 UV-I 0 W/m 0,4 C 0,7 C 1,6 km/h (1 Bft) 97,87 %
27.01.2018 05:08 0,7 C 3,9 C 98 % 1027,4 hPa 0,0 l/m 0,0 km/h (0 Bft) O-SO 111 0 min 0,000 mm 0,0 UV-I 0 W/m 0,4 C 0,7 C 0,0 km/h (0 Bft) 97,92 %
27.01.2018 05:10 0,7 C 3,9 C 98 % 1027,4 hPa 0,0 l/m 0,1 km/h (0 Bft) O-SO 111 0 min 0,000 mm 0,0 UV-I 0 W/m 0,4 C 0,7 C 1,6 km/h (1 Bft) 97,87 %
27.01.2018 05:12 0,8 C 3,9 C 98 % 1027,4 hPa 0,0 l/m 0,4 km/h (0 Bft) O-SO 111 0 min 0,000 mm 0,0 UV-I 0 W/m 0,5 C 0,8 C 3,2 km/h (1 Bft) 97,14 %
27.01.2018 05:14 0,7 C 3,9 C 98 % 1027,5 hPa 0,0 l/m 1,0 km/h (0 Bft) O-SO 111 0 min 0,000 mm 0,0 UV-I 0 W/m 0,4 C 0,7 C 1,6 km/h (1 Bft) 98,11 %
27.01.2018 05:16 0,7 C 3,9 C 98 % 1027,5 hPa 0,0 l/m 0,9 km/h (0 Bft) O-SO 111 0 min 0,000 mm 0,0 UV-I 0 W/m 0,4 C 0,7 C 1,6 km/h (1 Bft) 98,00 %
27.01.2018 05:18 0,7 C 3,9 C 98 % 1027,5 hPa 0,0 l/m 0,6 km/h (0 Bft) O-SO 111 0 min 0,000 mm 0,0 UV-I 0 W/m 0,4 C 0,7 C 1,6 km/h (1 Bft) 94,87 %
27.01.2018 05:20 0,8 C 3,9 C 98 % 1027,4 hPa 0,0 l/m 1,1 km/h (1 Bft) O-SO 111 0 min 0,000 mm 0,0 UV-I 0 W/m 0,5 C 0,8 C 3,2 km/h (1 Bft) 92,73 %
27.01.2018 05:22 0,8 C 3,9 C 98 % 1027,5 hPa 0,0 l/m 0,6 km/h (0 Bft) O-SO 111 0 min 0,000 mm 0,0 UV-I 0 W/m 0,5 C 0,8 C 1,6 km/h (1 Bft) 95,74 %
27.01.2018 05:24 0,7 C 3,9 C 98 % 1027,5 hPa 0,0 l/m 0,2 km/h (0 Bft) O-SO 111 0 min 0,000 mm 0,0 UV-I 0 W/m 0,4 C 0,7 C 1,6 km/h (1 Bft) 97,92 %
27.01.2018 05:26 0,7 C 3,9 C 98 % 1027,5 hPa 0,0 l/m 0,1 km/h (0 Bft) O-SO 111 0 min 0,000 mm 0,0 UV-I 0 W/m 0,4 C 0,7 C 1,6 km/h (1 Bft) 97,37 %
27.01.2018 05:28 0,7 C 3,9 C 98 % 1027,5 hPa 0,0 l/m 0,0 km/h (0 Bft) O-SO 111 0 min 0,000 mm 0,0 UV-I 0 W/m 0,4 C 0,7 C 0,0 km/h (0 Bft) 98,00 %
27.01.2018 05:30 0,8 C 3,9 C 98 % 1027,5 hPa 0,0 l/m 0,8 km/h (0 Bft) O-SO 111 0 min 0,000 mm 0,0 UV-I 0 W/m 0,5 C 0,8 C 3,2 km/h (1 Bft) 96,00 %
27.01.2018 05:32 0,8 C 3,9 C 98 % 1027,5 hPa 0,0 l/m 0,3 km/h (0 Bft) O-SO 111 0 min 0,000 mm 0,0 UV-I 0 W/m 0,5 C 0,8 C 3,2 km/h (1 Bft) 98,00 %
27.01.2018 05:34 0,7 C 3,9 C 98 % 1027,6 hPa 0,0 l/m 1,2 km/h (1 Bft) O-SO 111 0 min 0,000 mm 0,0 UV-I 0 W/m 0,4 C 0,7 C 1,6 km/h (1 Bft) 94,74 %
27.01.2018 05:36 0,8 C 3,9 C 98 % 1027,6 hPa 0,0 l/m 0,0 km/h (0 Bft) O-SO 111 0 min 0,000 mm 0,0 UV-I 0 W/m 0,5 C 0,8 C 0,0 km/h (0 Bft) 95,74 %
27.01.2018 05:38 0,8 C 3,9 C 98 % 1027,6 hPa 0,0 l/m 0,0 km/h (0 Bft) O-SO 111 0 min 0,000 mm 0,0 UV-I 0 W/m 0,5 C 0,8 C 0,0 km/h (0 Bft) 96,00 %
27.01.2018 05:40 0,8 C 3,9 C 98 % 1027,6 hPa 0,0 l/m 0,2 km/h (0 Bft) O-SO 111 0 min 0,000 mm 0,0 UV-I 0 W/m 0,5 C 0,8 C 1,6 km/h (1 Bft) 100,00 %
27.01.2018 05:42 0,8 C 3,9 C 98 % 1027,6 hPa 0,0 l/m 0,1 km/h (0 Bft) O-SO 111 0 min 0,000 mm 0,0 UV-I 0 W/m 0,5 C 0,8 C 1,6 km/h (1 Bft) 97,87 %
27.01.2018 05:44 0,8 C 3,9 C 98 % 1027,6 hPa 0,0 l/m 0,0 km/h (0 Bft) O-SO 111 0 min 0,000 mm 0,0 UV-I 0 W/m 0,5 C 0,8 C 1,6 km/h (1 Bft) 100,00 %
27.01.2018 05:46 0,8 C 3,9 C 98 % 1027,7 hPa 0,0 l/m 0,8 km/h (0 Bft) S 185 0 min 0,000 mm 0,0 UV-I 0 W/m 0,5 C 0,8 C 4,8 km/h (1 Bft) 100,00 %
27.01.2018 05:48 0,7 C 3,9 C 99 % 1027,6 hPa 0,0 l/m 1,9 km/h (1 Bft) S 185 0 min 0,000 mm 0,0 UV-I 0 W/m 0,6 C 0,7 C 4,8 km/h (1 Bft) 100,00 %
27.01.2018 05:50 0,7 C 3,9 C 99 % 1027,7 hPa 0,0 l/m 0,2 km/h (0 Bft) S 184 0 min 0,000 mm 0,0 UV-I 0 W/m 0,6 C 0,7 C 1,6 km/h (1 Bft) 100,00 %
27.01.2018 05:52 0,7 C 3,9 C 99 % 1027,7 hPa 0,0 l/m 0,0 km/h (0 Bft) S 184 0 min 0,000 mm 0,0 UV-I 0 W/m 0,6 C 0,7 C 0,0 km/h (0 Bft) 100,00 %
27.01.2018 05:54 0,7 C 3,9 C 99 % 1027,6 hPa 0,0 l/m 0,0 km/h (0 Bft) S 185 0 min 0,000 mm 0,0 UV-I 0 W/m 0,6 C 0,7 C 0,0 km/h (0 Bft) 98,00 %
27.01.2018 05:56 0,7 C 3,9 C 99 % 1027,7 hPa 0,0 l/m 0,0 km/h (0 Bft) S 185 0 min 0,000 mm 0,0 UV-I 0 W/m 0,6 C 0,7 C 0,0 km/h (0 Bft) 100,00 %
27.01.2018 05:58 0,7 C 3,9 C 99 % 1027,7 hPa 0,0 l/m 0,0 km/h (0 Bft) S 185 0 min 0,000 mm 0,0 UV-I 0 W/m 0,6 C 0,7 C 0,0 km/h (0 Bft) 100,00 %
27.01.2018 06:00 0,7 C 3,9 C 99 % 1027,8 hPa 0,0 l/m 0,0 km/h (0 Bft) S 185 0 min 0,000 mm 0,0 UV-I 0 W/m 0,6 C 0,7 C 0,0 km/h (0 Bft) 98,00 %
27.01.2018 06:02 0,7 C 3,9 C 99 % 1027,8 hPa 0,0 l/m 0,0 km/h (0 Bft) S 185 0 min 0,000 mm 0,0 UV-I 0 W/m 0,6 C 0,7 C 0,0 km/h (0 Bft) 100,00 %
27.01.2018 06:04 0,7 C 3,9 C 99 % 1027,8 hPa 0,0 l/m 0,0 km/h (0 Bft) S 185 0 min 0,000 mm 0,0 UV-I 0 W/m 0,6 C 0,7 C 0,0 km/h (0 Bft) 98,00 %
27.01.2018 06:06 0,6 C 3,9 C 99 % 1027,7 hPa 0,0 l/m 0,0 km/h (0 Bft) S 185 0 min 0,000 mm 0,0 UV-I 0 W/m 0,5 C 0,6 C 1,6 km/h (1 Bft) 95,74 %
27.01.2018 06:08 0,6 C 3,9 C 99 % 1027,8 hPa 0,0 l/m 0,0 km/h (0 Bft) S 185 0 min 0,000 mm 0,0 UV-I 0 W/m 0,5 C 0,6 C 0,0 km/h (0 Bft) 100,00 %
27.01.2018 06:10 0,6 C 3,9 C 99 % 1027,8 hPa 0,0 l/m 0,0 km/h (0 Bft) S 185 0 min 0,000 mm 0,0 UV-I 0 W/m 0,5 C 0,6 C 0,0 km/h (0 Bft) 97,37 %
27.01.2018 06:12 0,6 C 3,9 C 99 % 1027,8 hPa 0,0 l/m 0,0 km/h (0 Bft) S 174 0 min 0,000 mm 0,0 UV-I 0 W/m 0,5 C 0,6 C 0,0 km/h (0 Bft) 100,00 %
27.01.2018 06:14 0,6 C 3,9 C 99 % 1027,9 hPa 0,0 l/m 0,0 km/h (0 Bft) S 174 0 min 0,000 mm 0,0 UV-I 0 W/m 0,5 C 0,6 C 0,0 km/h (0 Bft) 100,00 %
27.01.2018 06:16 0,6 C 3,9 C 99 % 1027,9 hPa 0,0 l/m 0,0 km/h (0 Bft) S 174 0 min 0,000 mm 0,0 UV-I 0 W/m 0,5 C 0,6 C 0,0 km/h (0 Bft) 97,87 %
27.01.2018 06:18 0,6 C 3,9 C 99 % 1027,9 hPa 0,0 l/m 0,0 km/h (0 Bft) S 174 0 min 0,000 mm 0,0 UV-I 0 W/m 0,5 C 0,6 C 0,0 km/h (0 Bft) 100,00 %
27.01.2018 06:20 0,6 C 3,9 C 99 % 1027,9 hPa 0,0 l/m 0,0 km/h (0 Bft) S 174 0 min 0,000 mm 0,0 UV-I 0 W/m 0,5 C 0,6 C 0,0 km/h (0 Bft) 100,00 %
27.01.2018 06:22 0,6 C 3,9 C 99 % 1027,8 hPa 0,0 l/m 0,0 km/h (0 Bft) S 174 0 min 0,000 mm 0,0 UV-I 0 W/m 0,5 C 0,6 C 0,0 km/h (0 Bft) 98,11 %
27.01.2018 06:24 0,6 C 3,9 C 99 % 1027,9 hPa 0,0 l/m 0,0 km/h (0 Bft) S 174 0 min 0,000 mm 0,0 UV-I 0 W/m 0,5 C 0,6 C 0,0 km/h (0 Bft) 100,00 %
27.01.2018 06:26 0,6 C 3,9 C 99 % 1027,9 hPa 0,0 l/m 0,0 km/h (0 Bft) S 174 0 min 0,000 mm 0,0 UV-I 0 W/m 0,5 C 0,6 C 0,0 km/h (0 Bft) 97,87 %
27.01.2018 06:28 0,6 C 3,9 C 99 % 1028,0 hPa 0,0 l/m 0,0 km/h (0 Bft) S 174 0 min 0,000 mm 0,0 UV-I 0 W/m 0,5 C 0,6 C 0,0 km/h (0 Bft) 100,00 %
27.01.2018 06:30 0,6 C 3,9 C 99 % 1028,0 hPa 0,0 l/m 0,0 km/h (0 Bft) S 174 0 min 0,000 mm 0,0 UV-I 0 W/m 0,5 C 0,6 C 0,0 km/h (0 Bft) 100,00 %
27.01.2018 06:32 0,6 C 3,9 C 99 % 1028,0 hPa 0,0 l/m 0,0 km/h (0 Bft) S 174 0 min 0,000 mm 0,0 UV-I 0 W/m 0,5 C 0,6 C 0,0 km/h (0 Bft) 100,00 %
27.01.2018 06:34 0,6 C 3,9 C 99 % 1028,0 hPa 0,0 l/m 0,0 km/h (0 Bft) S 174 0 min 0,000 mm 0,0 UV-I 0 W/m 0,5 C 0,6 C 0,0 km/h (0 Bft) 100,00 %
27.01.2018 06:36 0,6 C 3,9 C 99 % 1028,0 hPa 0,0 l/m 0,0 km/h (0 Bft) S 174 0 min 0,000 mm 0,0 UV-I 0 W/m 0,5 C 0,6 C 0,0 km/h (0 Bft) 100,00 %
27.01.2018 06:38 0,6 C 3,9 C 99 % 1028,0 hPa 0,0 l/m 0,0 km/h (0 Bft) S 174 0 min 0,000 mm 0,0 UV-I 0 W/m 0,5 C 0,6 C 0,0 km/h (0 Bft) 100,00 %
27.01.2018 06:40 0,6 C 3,9 C 99 % 1028,1 hPa 0,0 l/m 0,0 km/h (0 Bft) S 174 0 min 0,000 mm 0,0 UV-I 0 W/m 0,5 C 0,6 C 0,0 km/h (0 Bft) 100,00 %
27.01.2018 06:42 0,6 C 3,9 C 99 % 1028,1 hPa 0,0 l/m 0,0 km/h (0 Bft) S 174 0 min 0,000 mm 0,0 UV-I 0 W/m 0,5 C 0,6 C 0,0 km/h (0 Bft) 100,00 %
27.01.2018 06:44 0,6 C 3,9 C 99 % 1028,1 hPa 0,0 l/m 0,3 km/h (0 Bft) S 174 0 min 0,000 mm 0,0 UV-I 0 W/m 0,5 C 0,6 C 1,6 km/h (1 Bft) 100,00 %
27.01.2018 06:46 0,6 C 3,9 C 99 % 1028,1 hPa 0,0 l/m 0,6 km/h (0 Bft) S 174 0 min 0,000 mm 0,0 UV-I 0 W/m 0,5 C 0,6 C 1,6 km/h (1 Bft) 100,00 %
27.01.2018 06:48 0,6 C 3,9 C 99 % 1028,1 hPa 0,0 l/m 0,0 km/h (0 Bft) S 174 0 min 0,000 mm 0,0 UV-I 0 W/m 0,5 C 0,6 C 0,0 km/h (0 Bft) 97,87 %
27.01.2018 06:50 0,6 C 3,9 C 99 % 1028,2 hPa 0,0 l/m 0,1 km/h (0 Bft) S 174 0 min 0,000 mm 0,0 UV-I 0 W/m 0,5 C 0,6 C 1,6 km/h (1 Bft) 100,00 %
27.01.2018 06:52 0,6 C 3,9 C 99 % 1028,2 hPa 0,0 l/m 0,0 km/h (0 Bft) S 174 0 min 0,000 mm 0,0 UV-I 0 W/m 0,5 C 0,6 C 0,0 km/h (0 Bft) 100,00 %
27.01.2018 06:54 0,6 C 3,9 C 99 % 1028,2 hPa 0,0 l/m 0,3 km/h (0 Bft) S 174 0 min 0,000 mm 0,0 UV-I 0 W/m 0,5 C 0,6 C 1,6 km/h (1 Bft) 100,00 %
27.01.2018 06:56 0,6 C 3,9 C 99 % 1028,3 hPa 0,0 l/m 0,1 km/h (0 Bft) S 174 0 min 0,000 mm 0,0 UV-I 0 W/m 0,5 C 0,6 C 1,6 km/h (1 Bft) 97,73 %
27.01.2018 06:58 0,6 C 3,9 C 99 % 1028,3 hPa 0,0 l/m 0,0 km/h (0 Bft) S 174 0 min 0,000 mm 0,0 UV-I 0 W/m 0,5 C 0,6 C 0,0 km/h (0 Bft) 97,44 %
27.01.2018 07:00 0,6 C 3,9 C 99 % 1028,3 hPa 0,0 l/m 0,1 km/h (0 Bft) S 174 0 min 0,000 mm 0,0 UV-I 0 W/m 0,5 C 0,6 C 1,6 km/h (1 Bft) 100,00 %
27.01.2018 07:02 0,6 C 3,9 C 99 % 1028,3 hPa 0,0 l/m 0,0 km/h (0 Bft) S 174 0 min 0,000 mm 0,0 UV-I 0 W/m 0,5 C 0,6 C 0,0 km/h (0 Bft) 93,62 %
27.01.2018 07:04 0,7 C 3,9 C 99 % 1028,3 hPa 0,0 l/m 0,0 km/h (0 Bft) S 174 0 min 0,000 mm 0,0 UV-I 0 W/m 0,6 C 0,7 C 0,0 km/h (0 Bft) 100,00 %
27.01.2018 07:06 0,6 C 3,9 C 99 % 1028,3 hPa 0,0 l/m 0,0 km/h (0 Bft) S 174 0 min 0,000 mm 0,0 UV-I 0 W/m 0,5 C 0,6 C 0,0 km/h (0 Bft) 95,74 %
27.01.2018 07:08 0,6 C 3,9 C 99 % 1028,4 hPa 0,0 l/m 0,0 km/h (0 Bft) S 174 0 min 0,000 mm 0,0 UV-I 0 W/m 0,5 C 0,6 C 0,0 km/h (0 Bft) 96,00 %
27.01.2018 07:10 0,6 C 3,9 C 99 % 1028,4 hPa 0,0 l/m 0,0 km/h (0 Bft) S 174 0 min 0,000 mm 0,0 UV-I 0 W/m 0,5 C 0,6 C 0,0 km/h (0 Bft) 94,74 %
27.01.2018 07:12 0,7 C 3,9 C 99 % 1028,4 hPa 0,0 l/m 0,0 km/h (0 Bft) S 174 0 min 0,000 mm 0,0 UV-I 0 W/m 0,6 C 0,7 C 0,0 km/h (0 Bft) 94,00 %
27.01.2018 07:14 0,7 C 3,9 C 99 % 1028,5 hPa 0,0 l/m 0,0 km/h (0 Bft) S 174 0 min 0,000 mm 0,0 UV-I 0 W/m 0,6 C 0,7 C 0,0 km/h (0 Bft) 94,74 %
27.01.2018 07:16 0,7 C 3,9 C 99 % 1028,5 hPa 0,0 l/m 0,0 km/h (0 Bft) S 174 0 min 0,000 mm 0,0 UV-I 0 W/m 0,6 C 0,7 C 0,0 km/h (0 Bft) 94,00 %
27.01.2018 07:18 0,7 C 3,9 C 99 % 1028,6 hPa 0,0 l/m 0,0 km/h (0 Bft) S 174 0 min 0,000 mm 0,0 UV-I 0 W/m 0,6 C 0,7 C 0,0 km/h (0 Bft) 94,00 %
27.01.2018 07:20 0,7 C 3,9 C 99 % 1028,7 hPa 0,0 l/m 0,1 km/h (0 Bft) S 174 0 min 0,000 mm 0,0 UV-I 0 W/m 0,6 C 0,7 C 1,6 km/h (1 Bft) 94,34 %
27.01.2018 07:22 0,7 C 3,9 C 99 % 1028,7 hPa 0,0 l/m 0,8 km/h (0 Bft) S 174 0 min 0,000 mm 0,0 UV-I 0 W/m 0,6 C 0,7 C 1,6 km/h (1 Bft) 95,74 %
27.01.2018 07:24 0,7 C 3,9 C 99 % 1028,7 hPa 0,0 l/m 0,0 km/h (0 Bft) S 174 0 min 0,000 mm 0,0 UV-I 0 W/m 0,6 C 0,7 C 0,0 km/h (0 Bft) 95,83 %
27.01.2018 07:26 0,7 C 3,9 C 99 % 1028,8 hPa 0,0 l/m 0,0 km/h (0 Bft) S 174 0 min 0,000 mm 0,0 UV-I 0 W/m 0,6 C 0,7 C 0,0 km/h (0 Bft) 95,74 %
27.01.2018 07:28 0,7 C 3,9 C 99 % 1028,8 hPa 0,0 l/m 0,0 km/h (0 Bft) S 174 0 min 0,000 mm 0,0 UV-I 0 W/m 0,6 C 0,7 C 0,0 km/h (0 Bft) 91,49 %
27.01.2018 07:30 0,7 C 3,9 C 99 % 1028,8 hPa 0,0 l/m 0,0 km/h (0 Bft) S 174 0 min 0,000 mm 0,0 UV-I 0 W/m 0,6 C 0,7 C 0,0 km/h (0 Bft) 93,62 %
27.01.2018 07:32 0,7 C 3,9 C 99 % 1028,9 hPa 0,0 l/m 0,0 km/h (0 Bft) S 174 0 min 0,000 mm 0,0 UV-I 0 W/m 0,6 C 0,7 C 0,0 km/h (0 Bft) 95,74 %
27.01.2018 07:34 0,7 C 3,9 C 99 % 1028,9 hPa 0,0 l/m 0,4 km/h (0 Bft) S 174 0 min 0,000 mm 0,0 UV-I 0 W/m 0,6 C 0,7 C 1,6 km/h (1 Bft) 94,74 %
27.01.2018 07:36 0,7 C 3,9 C 99 % 1028,9 hPa 0,0 l/m 0,1 km/h (0 Bft) S 174 0 min 0,000 mm 0,0 UV-I 0 W/m 0,6 C 0,7 C 1,6 km/h (1 Bft) 94,00 %
27.01.2018 07:38 0,7 C 3,9 C 99 % 1028,9 hPa 0,0 l/m 0,0 km/h (0 Bft) S 174 0 min 0,000 mm 0,0 UV-I 0 W/m 0,6 C 0,7 C 0,0 km/h (0 Bft) 95,74 %
27.01.2018 07:40 0,7 C 3,9 C 99 % 1028,9 hPa 0,0 l/m 0,0 km/h (0 Bft) S 174 0 min 0,000 mm 0,0 UV-I 0 W/m 0,6 C 0,7 C 0,0 km/h (0 Bft) 91,49 %
27.01.2018 07:42 0,7 C 3,9 C 99 % 1028,9 hPa 0,0 l/m 0,0 km/h (0 Bft) S 174 0 min 0,000 mm 0,0 UV-I 0 W/m 0,6 C 0,7 C 0,0 km/h (0 Bft) 96,00 %
27.01.2018 07:44 0,7 C 3,9 C 99 % 1029,0 hPa 0,0 l/m 0,7 km/h (0 Bft) S 174 0 min 0,000 mm 0,0 UV-I 0 W/m 0,6 C 0,7 C 3,2 km/h (1 Bft) 95,12 %
27.01.2018 07:46 0,7 C 3,9 C 99 % 1029,0 hPa 0,0 l/m 2,6 km/h (1 Bft) S 174 0 min 0,000 mm 0,0 UV-I 5 W/m 0,6 C 0,7 C 3,2 km/h (1 Bft) 97,87 %
27.01.2018 07:48 0,7 C 3,9 C 99 % 1029,1 hPa 0,0 l/m 1,2 km/h (1 Bft) S 174 0 min 0,000 mm 0,0 UV-I 5 W/m 0,6 C 0,7 C 3,2 km/h (1 Bft) 97,87 %
27.01.2018 07:50 0,8 C 3,9 C 98 % 1029,1 hPa 0,0 l/m 0,8 km/h (0 Bft) O-SO 114 0 min 0,000 mm 0,0 UV-I 5 W/m 0,5 C 0,8 C 3,2 km/h (1 Bft) 98,00 %
27.01.2018 07:52 0,8 C 3,9 C 98 % 1029,1 hPa 0,0 l/m 1,0 km/h (0 Bft) O-SO 114 0 min 0,000 mm 0,0 UV-I 5 W/m 0,5 C 0,8 C 1,6 km/h (1 Bft) 98,00 %
27.01.2018 07:54 0,8 C 3,9 C 98 % 1029,2 hPa 0,0 l/m 0,0 km/h (0 Bft) O-SO 114 0 min 0,000 mm 0,0 UV-I 5 W/m 0,5 C 0,8 C 1,6 km/h (1 Bft) 94,29 %
27.01.2018 07:56 0,7 C 3,9 C 98 % 1029,1 hPa 0,0 l/m 0,5 km/h (0 Bft) O-SO 114 0 min 0,000 mm 0,0 UV-I 5 W/m 0,4 C 0,7 C 3,2 km/h (1 Bft) 96,08 %
27.01.2018 07:58 0,8 C 3,9 C 98 % 1029,1 hPa 0,0 l/m 2,3 km/h (1 Bft) O-SO 114 0 min 0,000 mm 0,0 UV-I 5 W/m 0,5 C 0,8 C 3,2 km/h (1 Bft) 95,74 %
27.01.2018 08:00 0,8 C 3,9 C 98 % 1029,2 hPa 0,0 l/m 0,6 km/h (0 Bft) O-SO 114 0 min 0,000 mm 0,0 UV-I 5 W/m 0,5 C 0,8 C 3,2 km/h (1 Bft) 94,44 %
27.01.2018 08:02 0,7 C 3,9 C 98 % 1029,3 hPa 0,0 l/m 0,6 km/h (0 Bft) O-SO 114 0 min 0,000 mm 0,0 UV-I 5 W/m 0,4 C 0,7 C 3,2 km/h (1 Bft) 96,92 %
27.01.2018 08:04 0,7 C 3,9 C 98 % 1029,3 hPa 0,0 l/m 0,0 km/h (0 Bft) O-SO 114 0 min 0,000 mm 0,0 UV-I 5 W/m 0,4 C 0,7 C 0,0 km/h (0 Bft) 94,74 %
27.01.2018 08:06 0,7 C 3,9 C 99 % 1029,4 hPa 0,0 l/m 0,0 km/h (0 Bft) O-SO 114 0 min 0,000 mm 0,0 UV-I 5 W/m 0,6 C 0,7 C 0,0 km/h (0 Bft) 97,87 %
27.01.2018 08:08 0,7 C 3,9 C 98 % 1029,4 hPa 0,0 l/m 0,0 km/h (0 Bft) O-SO 114 0 min 0,000 mm 0,0 UV-I 5 W/m 0,4 C 0,7 C 1,6 km/h (1 Bft) 98,11 %
27.01.2018 08:10 0,7 C 3,9 C 99 % 1029,5 hPa 0,0 l/m 0,0 km/h (0 Bft) O-SO 114 0 min 0,000 mm 0,0 UV-I 5 W/m 0,6 C 0,7 C 0,0 km/h (0 Bft) 97,87 %
27.01.2018 08:12 0,8 C 3,9 C 98 % 1029,5 hPa 0,0 l/m 0,0 km/h (0 Bft) O-SO 114 0 min 0,000 mm 0,0 UV-I 5 W/m 0,5 C 0,8 C 0,0 km/h (0 Bft) 97,87 %
27.01.2018 08:14 0,7 C 3,9 C 98 % 1029,5 hPa 0,0 l/m 0,0 km/h (0 Bft) O-SO 114 0 min 0,000 mm 0,0 UV-I 7 W/m 0,4 C 0,7 C 0,0 km/h (0 Bft) 97,56 %
27.01.2018 08:16 0,8 C 3,9 C 98 % 1029,6 hPa 0,0 l/m 0,0 km/h (0 Bft) O-SO 114 0 min 0,000 mm 0,0 UV-I 7 W/m 0,5 C 0,8 C 0,0 km/h (0 Bft) 100,00 %
27.01.2018 08:18 0,8 C 3,9 C 98 % 1029,6 hPa 0,0 l/m 0,0 km/h (0 Bft) O-SO 114 0 min 0,000 mm 0,0 UV-I 7 W/m 0,5 C 0,8 C 0,0 km/h (0 Bft) 100,00 %
27.01.2018 08:20 0,8 C 3,9 C 98 % 1029,6 hPa 0,0 l/m 0,0 km/h (0 Bft) O-SO 114 0 min 0,000 mm 0,0 UV-I 8 W/m 0,5 C 0,8 C 0,0 km/h (0 Bft) 95,74 %
27.01.2018 08:22 0,8 C 3,9 C 98 % 1029,7 hPa 0,0 l/m 0,0 km/h (0 Bft) O-SO 114 0 min 0,000 mm 0,0 UV-I 9 W/m 0,5 C 0,8 C 0,0 km/h (0 Bft) 100,00 %
27.01.2018 08:24 0,8 C 3,9 C 98 % 1029,7 hPa 0,0 l/m 0,0 km/h (0 Bft) O-SO 114 0 min 0,000 mm 0,0 UV-I 9 W/m 0,5 C 0,8 C 0,0 km/h (0 Bft) 100,00 %
27.01.2018 08:26 0,8 C 3,9 C 98 % 1029,7 hPa 0,0 l/m 0,0 km/h (0 Bft) O-SO 114 0 min 0,000 mm 0,0 UV-I 10 W/m 0,5 C 0,8 C 0,0 km/h (0 Bft) 100,00 %
27.01.2018 08:28 0,8 C 3,9 C 98 % 1029,8 hPa 0,0 l/m 0,0 km/h (0 Bft) O-SO 114 0 min 0,000 mm 0,0 UV-I 11 W/m 0,5 C 0,8 C 0,0 km/h (0 Bft) 100,00 %
27.01.2018 08:30 0,8 C 3,9 C 98 % 1029,9 hPa 0,0 l/m 0,0 km/h (0 Bft) O-SO 114 0 min 0,000 mm 0,0 UV-I 11 W/m 0,5 C 0,8 C 1,6 km/h (1 Bft) 100,00 %
27.01.2018 08:32 0,8 C 3,9 C 98 % 1029,9 hPa 0,0 l/m 0,0 km/h (0 Bft) O-SO 114 0 min 0,000 mm 0,0 UV-I 12 W/m 0,5 C 0,8 C 0,0 km/h (0 Bft) 100,00 %
27.01.2018 08:34 0,8 C 3,9 C 98 % 1030,0 hPa 0,0 l/m 0,0 km/h (0 Bft) O-SO 114 0 min 0,000 mm 0,0 UV-I 12 W/m 0,5 C 0,8 C 0,0 km/h (0 Bft) 100,00 %
27.01.2018 08:36 0,8 C 3,9 C 98 % 1030,0 hPa 0,0 l/m 0,0 km/h (0 Bft) O-SO 114 0 min 0,000 mm 0,0 UV-I 14 W/m 0,5 C 0,8 C 0,0 km/h (0 Bft) 97,37 %
27.01.2018 08:38 0,8 C 3,9 C 98 % 1030,1 hPa 0,0 l/m 0,0 km/h (0 Bft) O-SO 114 0 min 0,000 mm 0,0 UV-I 14 W/m 0,5 C 0,8 C 0,0 km/h (0 Bft) 100,00 %
27.01.2018 08:40 0,9 C 3,9 C 98 % 1030,1 hPa 0,0 l/m 0,0 km/h (0 Bft) O-SO 114 0 min 0,000 mm 0,0 UV-I 12 W/m 0,6 C 0,9 C 0,0 km/h (0 Bft) 100,00 %
27.01.2018 08:42 0,9 C 3,9 C 99 % 1030,1 hPa 0,0 l/m 0,0 km/h (0 Bft) O-SO 114 0 min 0,000 mm 0,0 UV-I 14 W/m 0,8 C 0,9 C 0,0 km/h (0 Bft) 100,00 %
27.01.2018 08:44 0,8 C 3,9 C 98 % 1030,2 hPa 0,0 l/m 0,0 km/h (0 Bft) O-SO 114 0 min 0,000 mm 0,0 UV-I 15 W/m 0,5 C 0,8 C 0,0 km/h (0 Bft) 100,00 %
27.01.2018 08:46 0,8 C 3,9 C 98 % 1030,1 hPa 0,0 l/m 0,0 km/h (0 Bft) O-SO 114 0 min 0,000 mm 0,0 UV-I 16 W/m 0,5 C 0,8 C 0,0 km/h (0 Bft) 100,00 %
27.01.2018 08:48 0,9 C 3,9 C 98 % 1030,2 hPa 0,0 l/m 0,0 km/h (0 Bft) O-SO 114 0 min 0,000 mm 0,0 UV-I 18 W/m 0,6 C 0,9 C 0,0 km/h (0 Bft) 100,00 %
27.01.2018 08:50 0,9 C 3,9 C 98 % 1030,2 hPa 0,0 l/m 0,0 km/h (0 Bft) O-SO 114 0 min 0,000 mm 0,0 UV-I 19 W/m 0,6 C 0,9 C 0,0 km/h (0 Bft) 100,00 %
27.01.2018 08:52 0,9 C 3,9 C 98 % 1030,2 hPa 0,0 l/m 0,0 km/h (0 Bft) O-SO 114 0 min 0,000 mm 0,0 UV-I 18 W/m 0,6 C 0,9 C 0,0 km/h (0 Bft) 100,00 %
27.01.2018 08:54 0,9 C 3,9 C 99 % 1030,2 hPa 0,0 l/m 0,0 km/h (0 Bft) O-SO 114 0 min 0,000 mm 0,0 UV-I 18 W/m 0,8 C 0,9 C 0,0 km/h (0 Bft) 100,00 %
27.01.2018 08:56 0,9 C 3,9 C 99 % 1030,2 hPa 0,0 l/m 0,0 km/h (0 Bft) O-SO 114 0 min 0,000 mm 0,0 UV-I 19 W/m 0,8 C 0,9 C 0,0 km/h (0 Bft) 94,74 %
27.01.2018 08:58 0,9 C 3,9 C 99 % 1030,3 hPa 0,0 l/m 0,0 km/h (0 Bft) O-SO 114 0 min 0,000 mm 0,0 UV-I 22 W/m 0,8 C 0,9 C 0,0 km/h (0 Bft) 98,00 %
27.01.2018 09:00 0,9 C 3,9 C 99 % 1030,3 hPa 0,0 l/m 0,0 km/h (0 Bft) O-SO 114 0 min 0,000 mm 0,0 UV-I 23 W/m 0,8 C 0,9 C 0,0 km/h (0 Bft) 100,00 %
27.01.2018 09:02 0,9 C 3,9 C 99 % 1030,4 hPa 0,0 l/m 0,0 km/h (0 Bft) O-SO 114 0 min 0,000 mm 0,0 UV-I 22 W/m 0,8 C 0,9 C 0,0 km/h (0 Bft) 98,00 %
27.01.2018 09:04 0,9 C 3,9 C 99 % 1030,4 hPa 0,0 l/m 0,0 km/h (0 Bft) O-SO 114 0 min 0,000 mm 0,0 UV-I 22 W/m 0,8 C 0,9 C 0,0 km/h (0 Bft) 100,00 %
27.01.2018 09:06 0,9 C 3,9 C 99 % 1030,4 hPa 0,0 l/m 0,0 km/h (0 Bft) O-SO 114 0 min 0,000 mm 0,0 UV-I 23 W/m 0,8 C 0,9 C 0,0 km/h (0 Bft) 100,00 %
27.01.2018 09:08 0,9 C 3,9 C 98 % 1030,4 hPa 0,0 l/m 0,0 km/h (0 Bft) O-SO 114 0 min 0,000 mm 0,0 UV-I 23 W/m 0,6 C 0,9 C 0,0 km/h (0 Bft) 97,87 %
27.01.2018 09:10 0,9 C 3,9 C 99 % 1030,4 hPa 0,0 l/m 0,0 km/h (0 Bft) O-SO 114 0 min 0,000 mm 0,0 UV-I 23 W/m 0,8 C 0,9 C 0,0 km/h (0 Bft) 97,87 %
27.01.2018 09:12 0,9 C 3,9 C 99 % 1030,5 hPa 0,0 l/m 0,0 km/h (0 Bft) O-SO 114 0 min 0,000 mm 0,0 UV-I 24 W/m 0,8 C 0,9 C 0,0 km/h (0 Bft) 100,00 %
27.01.2018 09:14 0,9 C 3,9 C 99 % 1030,6 hPa 0,0 l/m 0,5 km/h (0 Bft) S 176 0 min 0,000 mm 0,0 UV-I 25 W/m 0,8 C 0,9 C 1,6 km/h (1 Bft) 98,11 %
27.01.2018 09:16 0,9 C 3,9 C 99 % 1030,6 hPa 0,0 l/m 0,2 km/h (0 Bft) S 176 0 min 0,000 mm 0,0 UV-I 25 W/m 0,8 C 0,9 C 1,6 km/h (1 Bft) 92,68 %
27.01.2018 09:18 0,9 C 3,9 C 99 % 1030,6 hPa 0,0 l/m 0,0 km/h (0 Bft) S 176 0 min 0,000 mm 0,0 UV-I 25 W/m 0,8 C 0,9 C 0,0 km/h (0 Bft) 98,00 %
27.01.2018 09:20 0,9 C 3,9 C 99 % 1030,6 hPa 0,0 l/m 0,0 km/h (0 Bft) S 176 0 min 0,000 mm 0,0 UV-I 26 W/m 0,8 C 0,9 C 0,0 km/h (0 Bft) 96,15 %
27.01.2018 09:22 0,9 C 3,9 C 99 % 1030,6 hPa 0,0 l/m 0,0 km/h (0 Bft) S 176 0 min 0,000 mm 0,0 UV-I 26 W/m 0,8 C 0,9 C 0,0 km/h (0 Bft) 98,39 %
27.01.2018 09:24 0,9 C 3,9 C 99 % 1030,5 hPa 0,0 l/m 0,0 km/h (0 Bft) S 176 0 min 0,000 mm 0,0 UV-I 28 W/m 0,8 C 0,9 C 0,0 km/h (0 Bft) 97,87 %
27.01.2018 09:26 0,9 C 3,9 C 99 % 1030,5 hPa 0,0 l/m 0,0 km/h (0 Bft) S 176 0 min 0,000 mm 0,0 UV-I 28 W/m 0,8 C 0,9 C 0,0 km/h (0 Bft) 95,74 %
27.01.2018 09:28 0,9 C 3,9 C 99 % 1030,6 hPa 0,0 l/m 0,1 km/h (0 Bft) S 176 0 min 0,000 mm 0,0 UV-I 30 W/m 0,8 C 0,9 C 1,6 km/h (1 Bft) 98,00 %
27.01.2018 09:30 1,0 C 3,9 C 99 % 1030,5 hPa 0,0 l/m 0,1 km/h (0 Bft) S 175 0 min 0,000 mm 0,0 UV-I 28 W/m 0,9 C 1,0 C 1,6 km/h (1 Bft) 97,87 %
27.01.2018 09:32 0,9 C 3,9 C 99 % 1030,6 hPa 0,0 l/m 0,1 km/h (0 Bft) S 175 0 min 0,000 mm 0,0 UV-I 28 W/m 0,8 C 0,9 C 1,6 km/h (1 Bft) 95,74 %
27.01.2018 09:34 0,9 C 3,9 C 99 % 1030,6 hPa 0,0 l/m 0,0 km/h (0 Bft) S 176 0 min 0,000 mm 0,0 UV-I 28 W/m 0,8 C 0,9 C 1,6 km/h (1 Bft) 98,11 %
27.01.2018 09:36 1,0 C 3,9 C 99 % 1030,6 hPa 0,0 l/m 0,0 km/h (0 Bft) S 176 0 min 0,000 mm 0,0 UV-I 29 W/m 0,9 C 1,0 C 0,0 km/h (0 Bft) 97,22 %
27.01.2018 09:38 1,0 C 3,9 C 99 % 1030,6 hPa 0,0 l/m 0,1 km/h (0 Bft) S 176 0 min 0,000 mm 0,0 UV-I 33 W/m 0,9 C 1,0 C 1,6 km/h (1 Bft) 98,00 %
27.01.2018 09:40 1,0 C 3,9 C 99 % 1030,6 hPa 0,0 l/m 0,0 km/h (0 Bft) S 175 0 min 0,000 mm 0,0 UV-I 34 W/m 0,9 C 1,0 C 1,6 km/h (1 Bft) 95,74 %
27.01.2018 09:42 1,0 C 3,9 C 99 % 1030,6 hPa 0,0 l/m 0,0 km/h (0 Bft) S 175 0 min 0,000 mm 0,0 UV-I 35 W/m 0,9 C 1,0 C 1,6 km/h (1 Bft) 97,56 %
27.01.2018 09:44 1,0 C 3,9 C 99 % 1030,6 hPa 0,0 l/m 0,8 km/h (0 Bft) S 175 0 min 0,000 mm 0,0 UV-I 39 W/m 0,9 C 1,0 C 3,2 km/h (1 Bft) 96,30 %
27.01.2018 09:46 1,0 C 3,9 C 99 % 1030,6 hPa 0,0 l/m 0,0 km/h (0 Bft) S 175 0 min 0,000 mm 0,0 UV-I 39 W/m 0,9 C 1,0 C 0,0 km/h (0 Bft) 97,87 %
27.01.2018 09:48 1,1 C 3,9 C 99 % 1030,7 hPa 0,0 l/m 0,0 km/h (0 Bft) S 175 0 min 0,000 mm 0,0 UV-I 40 W/m 1,0 C 1,1 C 0,0 km/h (0 Bft) 95,74 %
27.01.2018 09:50 1,1 C 3,9 C 99 % 1030,7 hPa 0,0 l/m 0,0 km/h (0 Bft) S 175 0 min 0,000 mm 0,0 UV-I 39 W/m 1,0 C 1,1 C 0,0 km/h (0 Bft) 93,62 %
27.01.2018 09:52 1,1 C 3,9 C 99 % 1030,8 hPa 0,0 l/m 0,0 km/h (0 Bft) S 175 0 min 0,000 mm 0,0 UV-I 38 W/m 1,0 C 1,1 C 0,0 km/h (0 Bft) 97,87 %
27.01.2018 09:54 1,1 C 3,9 C 99 % 1030,8 hPa 0,0 l/m 0,2 km/h (0 Bft) S 175 0 min 0,000 mm 0,0 UV-I 32 W/m 1,0 C 1,1 C 1,6 km/h (1 Bft) 100,00 %
27.01.2018 09:56 1,1 C 3,9 C 99 % 1030,8 hPa 0,0 l/m 0,2 km/h (0 Bft) S 175 0 min 0,000 mm 0,0 UV-I 33 W/m 1,0 C 1,1 C 1,6 km/h (1 Bft) 100,00 %
27.01.2018 09:58 1,1 C 3,9 C 99 % 1030,7 hPa 0,0 l/m 0,0 km/h (0 Bft) S 175 0 min 0,000 mm 0,0 UV-I 34 W/m 1,0 C 1,1 C 1,6 km/h (1 Bft) 97,56 %
27.01.2018 10:00 1,1 C 3,9 C 99 % 1030,7 hPa 0,0 l/m 0,0 km/h (0 Bft) S 175 0 min 0,000 mm 0,0 UV-I 35 W/m 1,0 C 1,1 C 0,0 km/h (0 Bft) 97,87 %
27.01.2018 10:02 1,1 C 3,9 C 99 % 1030,7 hPa 0,0 l/m 0,2 km/h (0 Bft) S 176 0 min 0,000 mm 0,0 UV-I 39 W/m 1,0 C 1,1 C 1,6 km/h (1 Bft) 100,00 %
27.01.2018 10:04 1,1 C 3,9 C 99 % 1030,8 hPa 0,0 l/m 0,0 km/h (0 Bft) S 175 0 min 0,000 mm 0,0 UV-I 36 W/m 1,0 C 1,1 C 0,0 km/h (0 Bft) 98,00 %
27.01.2018 10:06 1,1 C 3,9 C 99 % 1030,8 hPa 0,0 l/m 0,0 km/h (0 Bft) S 175 0 min 0,000 mm 0,0 UV-I 37 W/m 1,0 C 1,1 C 0,0 km/h (0 Bft) 100,00 %
27.01.2018 10:08 1,1 C 3,9 C 99 % 1030,9 hPa 0,0 l/m 0,0 km/h (0 Bft) S 175 0 min 0,000 mm 0,0 UV-I 40 W/m 1,0 C 1,1 C 0,0 km/h (0 Bft) 96,00 %
27.01.2018 10:10 1,1 C 3,9 C 99 % 1031,0 hPa 0,0 l/m 0,0 km/h (0 Bft) S 175 0 min 0,000 mm 0,0 UV-I 45 W/m 1,0 C 1,1 C 0,0 km/h (0 Bft) 100,00 %
27.01.2018 10:12 1,1 C 3,9 C 99 % 1031,0 hPa 0,0 l/m 0,0 km/h (0 Bft) S 175 0 min 0,000 mm 0,0 UV-I 46 W/m 1,0 C 1,1 C 0,0 km/h (0 Bft) 97,22 %
27.01.2018 10:14 1,3 C 3,9 C 99 % 1031,0 hPa 0,0 l/m 0,0 km/h (0 Bft) S 175 0 min 0,000 mm 0,0 UV-I 45 W/m 1,2 C 1,3 C 0,0 km/h (0 Bft) 100,00 %
27.01.2018 10:16 1,3 C 3,9 C 99 % 1031,0 hPa 0,0 l/m 0,0 km/h (0 Bft) S 175 0 min 0,000 mm 0,0 UV-I 44 W/m 1,2 C 1,3 C 0,0 km/h (0 Bft) 100,00 %
27.01.2018 10:18 1,3 C 3,9 C 99 % 1031,1 hPa 0,0 l/m 0,0 km/h (0 Bft) S 175 0 min 0,000 mm 0,0 UV-I 41 W/m 1,2 C 1,3 C 0,0 km/h (0 Bft) 100,00 %
27.01.2018 10:20 1,3 C 3,9 C 99 % 1031,1 hPa 0,0 l/m 0,0 km/h (0 Bft) S 175 0 min 0,000 mm 0,0 UV-I 41 W/m 1,2 C 1,3 C 0,0 km/h (0 Bft) 100,00 %
27.01.2018 10:22 1,3 C 3,9 C 99 % 1031,1 hPa 0,0 l/m 0,0 km/h (0 Bft) S 175 0 min 0,000 mm 0,0 UV-I 45 W/m 1,2 C 1,3 C 0,0 km/h (0 Bft) 100,00 %
27.01.2018 10:24 1,3 C 3,9 C 99 % 1031,2 hPa 0,0 l/m 0,2 km/h (0 Bft) S 175 0 min 0,000 mm 0,0 UV-I 46 W/m 1,2 C 1,3 C 1,6 km/h (1 Bft) 100,00 %
27.01.2018 10:26 1,4 C 3,9 C 99 % 1031,2 hPa 0,0 l/m 0,0 km/h (0 Bft) S 175 0 min 0,000 mm 0,0 UV-I 44 W/m 1,3 C 1,4 C 0,0 km/h (0 Bft) 95,74 %
27.01.2018 10:28 1,4 C 3,9 C 99 % 1031,3 hPa 0,0 l/m 0,0 km/h (0 Bft) S 175 0 min 0,000 mm 0,0 UV-I 43 W/m 1,3 C 1,4 C 0,0 km/h (0 Bft) 100,00 %
27.01.2018 10:30 1,3 C 3,9 C 99 % 1031,3 hPa 0,0 l/m 0,0 km/h (0 Bft) S 175 0 min 0,000 mm 0,0 UV-I 40 W/m 1,2 C 1,3 C 0,0 km/h (0 Bft) 100,00 %
27.01.2018 10:32 1,2 C 3,9 C 99 % 1031,3 hPa 0,0 l/m 0,0 km/h (0 Bft) S 175 0 min 0,000 mm 0,0 UV-I 42 W/m 1,1 C 1,2 C 0,0 km/h (0 Bft) 97,87 %
27.01.2018 10:34 1,2 C 3,9 C 99 % 1031,4 hPa 0,0 l/m 0,0 km/h (0 Bft) S 175 0 min 0,000 mm 0,0 UV-I 40 W/m 1,1 C 1,2 C 0,0 km/h (0 Bft) 98,00 %
27.01.2018 10:36 1,2 C 3,9 C 98 % 1031,4 hPa 0,0 l/m 0,0 km/h (0 Bft) S 176 0 min 0,000 mm 0,0 UV-I 42 W/m 0,9 C 1,2 C 0,0 km/h (0 Bft) 100,00 %
27.01.2018 10:38 1,2 C 3,9 C 99 % 1031,4 hPa 0,0 l/m 0,0 km/h (0 Bft) S 176 0 min 0,000 mm 0,0 UV-I 42 W/m 1,1 C 1,2 C 0,0 km/h (0 Bft) 100,00 %
27.01.2018 10:40 1,2 C 3,9 C 99 % 1031,4 hPa 0,0 l/m 0,0 km/h (0 Bft) S 176 0 min 0,000 mm 0,0 UV-I 45 W/m 1,1 C 1,2 C 0,0 km/h (0 Bft) 97,87 %
27.01.2018 10:42 1,2 C 3,9 C 99 % 1031,5 hPa 0,0 l/m 0,0 km/h (0 Bft) S 176 0 min 0,000 mm 0,0 UV-I 47 W/m 1,1 C 1,2 C 0,0 km/h (0 Bft) 100,00 %
27.01.2018 10:44 1,2 C 3,9 C 99 % 1031,5 hPa 0,0 l/m 0,0 km/h (0 Bft) S 189 0 min 0,000 mm 0,0 UV-I 51 W/m 1,1 C 1,2 C 0,0 km/h (0 Bft) 98,00 %
27.01.2018 10:46 1,2 C 3,9 C 99 % 1031,5 hPa 0,0 l/m 0,0 km/h (0 Bft) S-SW 207 0 min 0,000 mm 0,0 UV-I 57 W/m 1,1 C 1,2 C 0,0 km/h (0 Bft) 100,00 %
27.01.2018 10:48 1,2 C 3,9 C 99 % 1031,4 hPa 0,0 l/m 0,0 km/h (0 Bft) S-SW 207 0 min 0,000 mm 0,0 UV-I 60 W/m 1,1 C 1,2 C 0,0 km/h (0 Bft) 100,00 %
27.01.2018 10:50 1,3 C 3,9 C 99 % 1031,5 hPa 0,0 l/m 0,0 km/h (0 Bft) S-SW 207 0 min 0,000 mm 0,0 UV-I 58 W/m 1,2 C 1,3 C 0,0 km/h (0 Bft) 97,87 %
27.01.2018 10:52 1,4 C 3,9 C 99 % 1031,4 hPa 0,0 l/m 0,0 km/h (0 Bft) S-SW 207 0 min 0,000 mm 0,0 UV-I 56 W/m 1,3 C 1,4 C 0,0 km/h (0 Bft) 97,56 %
27.01.2018 10:54 1,3 C 3,9 C 99 % 1031,5 hPa 0,0 l/m 0,0 km/h (0 Bft) S-SW 207 0 min 0,000 mm 0,0 UV-I 56 W/m 1,2 C 1,3 C 0,0 km/h (0 Bft) 100,00 %
27.01.2018 10:56 1,3 C 3,9 C 99 % 1031,5 hPa 0,0 l/m 0,0 km/h (0 Bft) S-SW 207 0 min 0,000 mm 0,0 UV-I 59 W/m 1,2 C 1,3 C 0,0 km/h (0 Bft) 100,00 %
27.01.2018 10:58 1,3 C 3,9 C 99 % 1031,5 hPa 0,0 l/m 0,0 km/h (0 Bft) S-SW 207 0 min 0,000 mm 0,0 UV-I 61 W/m 1,2 C 1,3 C 0,0 km/h (0 Bft) 98,00 %
27.01.2018 11:00 1,4 C 3,9 C 99 % 1031,6 hPa 0,0 l/m 0,0 km/h (0 Bft) S-SW 207 0 min 0,025 mm 0,0 UV-I 58 W/m 1,3 C 1,4 C 0,0 km/h (0 Bft) 97,87 %
27.01.2018 11:02 1,4 C 3,9 C 99 % 1031,7 hPa 0,0 l/m 0,0 km/h (0 Bft) S-SW 207 0 min 0,000 mm 0,0 UV-I 53 W/m 1,3 C 1,4 C 0,0 km/h (0 Bft) 100,00 %
27.01.2018 11:04 1,4 C 3,9 C 99 % 1031,7 hPa 0,0 l/m 0,0 km/h (0 Bft) S-SW 207 0 min 0,000 mm 0,0 UV-I 51 W/m 1,3 C 1,4 C 0,0 km/h (0 Bft) 98,11 %
27.01.2018 11:06 1,4 C 3,9 C 99 % 1031,7 hPa 0,0 l/m 0,0 km/h (0 Bft) S-SW 207 0 min 0,000 mm 0,0 UV-I 49 W/m 1,3 C 1,4 C 0,0 km/h (0 Bft) 100,00 %
27.01.2018 11:08 1,4 C 3,9 C 99 % 1031,7 hPa 0,0 l/m 0,0 km/h (0 Bft) S-SW 207 0 min 0,000 mm 0,0 UV-I 53 W/m 1,3 C 1,4 C 0,0 km/h (0 Bft) 100,00 %
27.01.2018 11:10 1,4 C 3,9 C 99 % 1031,7 hPa 0,0 l/m 0,0 km/h (0 Bft) S-SW 207 0 min 0,000 mm 0,0 UV-I 54 W/m 1,3 C 1,4 C 0,0 km/h (0 Bft) 100,00 %
27.01.2018 11:12 1,4 C 3,9 C 99 % 1031,7 hPa 0,0 l/m 0,0 km/h (0 Bft) S-SW 207 0 min 0,000 mm 0,0 UV-I 58 W/m 1,3 C 1,4 C 0,0 km/h (0 Bft) 100,00 %
27.01.2018 11:14 1,4 C 3,9 C 99 % 1031,7 hPa 0,0 l/m 0,0 km/h (0 Bft) S-SW 207 0 min 0,000 mm 0,0 UV-I 62 W/m 1,3 C 1,4 C 0,0 km/h (0 Bft) 100,00 %
27.01.2018 11:16 1,4 C 3,9 C 99 % 1031,7 hPa 0,0 l/m 0,0 km/h (0 Bft) S-SW 207 0 min 0,000 mm 0,0 UV-I 60 W/m 1,3 C 1,4 C 0,0 km/h (0 Bft) 97,56 %
27.01.2018 11:18 1,3 C 3,9 C 99 % 1031,7 hPa 0,0 l/m 0,0 km/h (0 Bft) S-SW 207 0 min 0,000 mm 0,0 UV-I 58 W/m 1,2 C 1,3 C 0,0 km/h (0 Bft) 96,00 %
27.01.2018 11:20 1,3 C 3,9 C 99 % 1031,7 hPa 0,0 l/m 0,0 km/h (0 Bft) S-SW 207 0 min 0,000 mm 0,0 UV-I 59 W/m 1,2 C 1,3 C 0,0 km/h (0 Bft) 97,87 %
27.01.2018 11:22 1,4 C 3,9 C 99 % 1031,7 hPa 0,0 l/m 0,0 km/h (0 Bft) S-SW 207 0 min 0,000 mm 0,0 UV-I 55 W/m 1,3 C 1,4 C 0,0 km/h (0 Bft) 98,11 %
27.01.2018 11:24 1,4 C 3,9 C 99 % 1031,6 hPa 0,0 l/m 0,0 km/h (0 Bft) S-SW 207 0 min 0,000 mm 0,0 UV-I 55 W/m 1,3 C 1,4 C 0,0 km/h (0 Bft) 93,62 %
27.01.2018 11:26 1,3 C 3,9 C 99 % 1031,7 hPa 0,0 l/m 0,0 km/h (0 Bft) S-SW 207 0 min 0,000 mm 0,0 UV-I 58 W/m 1,2 C 1,3 C 0,0 km/h (0 Bft) 96,00 %
27.01.2018 11:28 1,3 C 3,9 C 99 % 1031,7 hPa 0,0 l/m 0,0 km/h (0 Bft) S-SW 207 0 min 0,000 mm 0,0 UV-I 54 W/m 1,2 C 1,3 C 0,0 km/h (0 Bft) 94,74 %
27.01.2018 11:30 1,3 C 3,9 C 99 % 1031,7 hPa 0,0 l/m 0,0 km/h (0 Bft) S-SW 207 0 min 0,000 mm 0,0 UV-I 54 W/m 1,2 C 1,3 C 0,0 km/h (0 Bft) 94,64 %
27.01.2018 11:32 1,3 C 3,9 C 99 % 1031,8 hPa 0,0 l/m 0,0 km/h (0 Bft) S-SW 207 0 min 0,000 mm 0,0 UV-I 54 W/m 1,2 C 1,3 C 0,0 km/h (0 Bft) 97,37 %
27.01.2018 11:34 1,3 C 3,9 C 99 % 1031,7 hPa 0,0 l/m 0,0 km/h (0 Bft) S-SW 207 0 min 0,000 mm 0,0 UV-I 57 W/m 1,2 C 1,3 C 0,0 km/h (0 Bft) 92,00 %
27.01.2018 11:36 1,4 C 3,9 C 99 % 1031,6 hPa 0,0 l/m 0,0 km/h (0 Bft) S-SW 207 0 min 0,000 mm 0,0 UV-I 61 W/m 1,3 C 1,4 C 0,0 km/h (0 Bft) 96,00 %
27.01.2018 11:38 1,4 C 3,9 C 99 % 1031,6 hPa 0,0 l/m 0,0 km/h (0 Bft) S-SW 207 0 min 0,000 mm 0,0 UV-I 63 W/m 1,3 C 1,4 C 0,0 km/h (0 Bft) 94,74 %
27.01.2018 11:40 1,5 C 3,9 C 99 % 1031,6 hPa 0,0 l/m 0,0 km/h (0 Bft) S-SW 207 0 min 0,000 mm 0,0 UV-I 62 W/m 1,4 C 1,5 C 0,0 km/h (0 Bft) 96,00 %
27.01.2018 11:42 1,4 C 3,9 C 99 % 1031,6 hPa 0,0 l/m 0,0 km/h (0 Bft) S-SW 207 0 min 0,000 mm 0,0 UV-I 65 W/m 1,3 C 1,4 C 0,0 km/h (0 Bft) 90,57 %
27.01.2018 11:44 1,5 C 3,9 C 99 % 1031,7 hPa 0,0 l/m 0,0 km/h (0 Bft) S-SW 207 0 min 0,000 mm 0,0 UV-I 63 W/m 1,4 C 1,5 C 0,0 km/h (0 Bft) 95,12 %
27.01.2018 11:46 1,5 C 3,9 C 99 % 1031,7 hPa 0,0 l/m 0,0 km/h (0 Bft) S-SW 207 0 min 0,000 mm 0,0 UV-I 64 W/m 1,4 C 1,5 C 0,0 km/h (0 Bft) 95,83 %
27.01.2018 11:48 1,5 C 3,9 C 99 % 1031,6 hPa 0,0 l/m 0,0 km/h (0 Bft) S-SW 207 0 min 0,000 mm 0,0 UV-I 66 W/m 1,4 C 1,5 C 0,0 km/h (0 Bft) 95,74 %
27.01.2018 11:50 1,5 C 3,9 C 99 % 1031,7 hPa 0,0 l/m 0,0 km/h (0 Bft) S-SW 207 0 min 0,000 mm 0,0 UV-I 68 W/m 1,4 C 1,5 C 0,0 km/h (0 Bft) 96,00 %
27.01.2018 11:52 1,4 C 3,9 C 99 % 1031,6 hPa 0,0 l/m 0,0 km/h (0 Bft) S-SW 207 0 min 0,000 mm 0,0 UV-I 73 W/m 1,3 C 1,4 C 0,0 km/h (0 Bft) 94,00 %
27.01.2018 11:54 1,6 C 3,9 C 99 % 1031,6 hPa 0,0 l/m 0,0 km/h (0 Bft) S-SW 207 0 min 0,000 mm 0,0 UV-I 75 W/m 1,5 C 1,6 C 0,0 km/h (0 Bft) 94,74 %
27.01.2018 11:56 1,6 C 3,9 C 99 % 1031,6 hPa 0,0 l/m 0,0 km/h (0 Bft) S-SW 207 0 min 0,000 mm 0,0 UV-I 79 W/m 1,5 C 1,6 C 0,0 km/h (0 Bft) 95,74 %
27.01.2018 11:58 1,7 C 3,9 C 99 % 1031,7 hPa 0,0 l/m 1,1 km/h (1 Bft) S-SW 209 0 min 0,000 mm 0,0 UV-I 82 W/m 1,6 C 1,7 C 3,2 km/h (1 Bft) 94,00 %
27.01.2018 12:00 1,7 C 3,9 C 99 % 1031,6 hPa 0,0 l/m 2,2 km/h (1 Bft) S-SW 199 0 min 0,000 mm 0,0 UV-I 89 W/m 1,6 C 1,7 C 3,2 km/h (1 Bft) 95,74 %
27.01.2018 12:02 1,7 C 3,9 C 99 % 1031,7 hPa 0,0 l/m 0,6 km/h (0 Bft) SW 235 0 min 0,026 mm 0,0 UV-I 87 W/m 1,6 C 1,7 C 3,2 km/h (1 Bft) 98,00 %
27.01.2018 12:04 1,7 C 3,9 C 99 % 1031,7 hPa 0,0 l/m 1,6 km/h (1 Bft) SW 217 0 min 0,000 mm 0,0 UV-I 83 W/m 1,6 C 1,7 C 3,2 km/h (1 Bft) 94,29 %
27.01.2018 12:06 1,7 C 3,9 C 99 % 1031,7 hPa 0,0 l/m 1,2 km/h (1 Bft) SW 218 0 min 0,000 mm 0,0 UV-I 80 W/m 1,6 C 1,7 C 3,2 km/h (1 Bft) 98,11 %
27.01.2018 12:08 1,8 C 3,9 C 99 % 1031,7 hPa 0,0 l/m 0,4 km/h (0 Bft) SW 218 0 min 0,000 mm 0,0 UV-I 80 W/m 1,7 C 1,8 C 1,6 km/h (1 Bft) 98,00 %
27.01.2018 12:10 1,7 C 3,9 C 99 % 1031,7 hPa 0,0 l/m 2,2 km/h (1 Bft) SW 231 0 min 0,000 mm 0,0 UV-I 72 W/m 1,6 C 1,7 C 4,8 km/h (1 Bft) 98,00 %
27.01.2018 12:12 1,7 C 3,9 C 99 % 1031,7 hPa 0,0 l/m 1,5 km/h (1 Bft) SW 231 0 min 0,000 mm 0,0 UV-I 71 W/m 1,6 C 1,7 C 3,2 km/h (1 Bft) 97,37 %
27.01.2018 12:14 1,6 C 3,9 C 99 % 1031,7 hPa 0,0 l/m 0,1 km/h (0 Bft) SW 231 0 min 0,000 mm 0,0 UV-I 72 W/m 1,5 C 1,6 C 1,6 km/h (1 Bft) 96,00 %
27.01.2018 12:16 1,6 C 3,9 C 99 % 1031,7 hPa 0,0 l/m 0,0 km/h (0 Bft) SW 231 0 min 0,000 mm 0,0 UV-I 72 W/m 1,5 C 1,6 C 0,0 km/h (0 Bft) 98,00 %
27.01.2018 12:18 1,7 C 3,9 C 99 % 1031,7 hPa 0,0 l/m 0,0 km/h (0 Bft) SW 231 0 min 0,000 mm 0,0 UV-I 80 W/m 1,6 C 1,7 C 1,6 km/h (1 Bft) 95,74 %
27.01.2018 12:20 1,6 C 3,9 C 99 % 1031,8 hPa 0,0 l/m 1,2 km/h (1 Bft) SW 231 0 min 0,000 mm 0,0 UV-I 75 W/m 1,5 C 1,6 C 3,2 km/h (1 Bft) 100,00 %
27.01.2018 12:22 1,7 C 3,9 C 99 % 1031,7 hPa 0,0 l/m 0,4 km/h (0 Bft) SW 231 0 min 0,000 mm 0,0 UV-I 75 W/m 1,6 C 1,7 C 1,6 km/h (1 Bft) 95,16 %
27.01.2018 12:24 1,6 C 3,9 C 99 % 1031,8 hPa 0,0 l/m 0,0 km/h (0 Bft) SW 231 0 min 0,000 mm 0,0 UV-I 78 W/m 1,5 C 1,6 C 0,0 km/h (0 Bft) 94,00 %
27.01.2018 12:26 1,6 C 3,9 C 99 % 1031,8 hPa 0,0 l/m 0,0 km/h (0 Bft) SW 231 0 min 0,000 mm 0,0 UV-I 71 W/m 1,5 C 1,6 C 0,0 km/h (0 Bft) 98,00 %
27.01.2018 12:28 1,6 C 3,9 C 99 % 1031,8 hPa 0,0 l/m 0,0 km/h (0 Bft) SW 231 0 min 0,000 mm 0,0 UV-I 70 W/m 1,5 C 1,6 C 0,0 km/h (0 Bft) 97,56 %
27.01.2018 12:30 1,6 C 3,9 C 99 % 1031,8 hPa 0,0 l/m 0,0 km/h (0 Bft) SW 231 0 min 0,000 mm 0,0 UV-I 67 W/m 1,5 C 1,6 C 0,0 km/h (0 Bft) 94,00 %
27.01.2018 12:32 1,7 C 3,9 C 99 % 1031,7 hPa 0,0 l/m 0,0 km/h (0 Bft) SW 231 0 min 0,000 mm 0,0 UV-I 72 W/m 1,6 C 1,7 C 0,0 km/h (0 Bft) 100,00 %
27.01.2018 12:34 1,7 C 3,9 C 99 % 1031,7 hPa 0,0 l/m 0,0 km/h (0 Bft) SW 231 0 min 0,000 mm 0,0 UV-I 82 W/m 1,6 C 1,7 C 1,6 km/h (1 Bft) 100,00 %
27.01.2018 12:36 1,7 C 3,9 C 99 % 1031,7 hPa 0,0 l/m 0,0 km/h (0 Bft) SW 231 0 min 0,000 mm 0,0 UV-I 83 W/m 1,6 C 1,7 C 0,0 km/h (0 Bft) 100,00 %
27.01.2018 12:38 1,7 C 3,9 C 99 % 1031,7 hPa 0,0 l/m 0,0 km/h (0 Bft) SW 231 0 min 0,000 mm 0,0 UV-I 87 W/m 1,6 C 1,7 C 0,0 km/h (0 Bft) 100,00 %
27.01.2018 12:40 1,7 C 3,9 C 99 % 1031,7 hPa 0,0 l/m 0,0 km/h (0 Bft) SW 231 0 min 0,000 mm 0,0 UV-I 82 W/m 1,6 C 1,7 C 0,0 km/h (0 Bft) 98,00 %
27.01.2018 12:42 1,7 C 3,9 C 99 % 1031,7 hPa 0,0 l/m 0,0 km/h (0 Bft) SW 231 0 min 0,000 mm 0,0 UV-I 79 W/m 1,6 C 1,7 C 0,0 km/h (0 Bft) 100,00 %
27.01.2018 12:44 1,7 C 3,9 C 99 % 1031,7 hPa 0,0 l/m 0,0 km/h (0 Bft) SW 231 0 min 0,000 mm 0,0 UV-I 67 W/m 1,6 C 1,7 C 0,0 km/h (0 Bft) 96,23 %
27.01.2018 12:46 1,7 C 3,9 C 99 % 1031,7 hPa 0,0 l/m 0,0 km/h (0 Bft) SW 231 0 min 0,000 mm 0,0 UV-I 69 W/m 1,6 C 1,7 C 0,0 km/h (0 Bft) 100,00 %
27.01.2018 12:48 1,7 C 3,9 C 99 % 1031,6 hPa 0,0 l/m 0,0 km/h (0 Bft) SW 231 0 min 0,000 mm 0,0 UV-I 74 W/m 1,6 C 1,7 C 0,0 km/h (0 Bft) 100,00 %
27.01.2018 12:50 1,8 C 3,9 C 99 % 1031,7 hPa 0,0 l/m 0,0 km/h (0 Bft) SW 231 0 min 0,000 mm 0,0 UV-I 66 W/m 1,7 C 1,8 C 0,0 km/h (0 Bft) 100,00 %
27.01.2018 12:52 1,8 C 3,9 C 99 % 1031,7 hPa 0,0 l/m 0,0 km/h (0 Bft) SW 231 0 min 0,000 mm 0,0 UV-I 59 W/m 1,7 C 1,8 C 0,0 km/h (0 Bft) 97,87 %
27.01.2018 12:54 1,7 C 3,9 C 99 % 1031,7 hPa 0,0 l/m 0,0 km/h (0 Bft) SW 231 0 min 0,000 mm 0,0 UV-I 55 W/m 1,6 C 1,7 C 0,0 km/h (0 Bft) 100,00 %
27.01.2018 12:56 1,7 C 3,9 C 99 % 1031,6 hPa 0,0 l/m 0,0 km/h (0 Bft) SW 231 0 min 0,000 mm 0,0 UV-I 52 W/m 1,6 C 1,7 C 0,0 km/h (0 Bft) 100,00 %
27.01.2018 12:58 1,8 C 3,9 C 99 % 1031,6 hPa 0,0 l/m 0,2 km/h (0 Bft) NO 36 0 min 0,000 mm 0,0 UV-I 46 W/m 1,7 C 1,8 C 3,2 km/h (1 Bft) 100,00 %
27.01.2018 13:00 1,9 C 3,9 C 99 % 1031,6 hPa 0,0 l/m 0,1 km/h (0 Bft) NO 36 0 min 0,000 mm 0,0 UV-I 45 W/m 1,8 C 1,9 C 1,6 km/h (1 Bft) 100,00 %
27.01.2018 13:02 1,9 C 3,9 C 99 % 1031,6 hPa 0,0 l/m 2,1 km/h (1 Bft) NO 36 0 min 0,025 mm 0,0 UV-I 47 W/m 1,8 C 1,9 C 4,8 km/h (1 Bft) 97,87 %
27.01.2018 13:04 1,9 C 3,9 C 99 % 1031,7 hPa 0,0 l/m 0,6 km/h (0 Bft) NO 36 0 min 0,000 mm 0,0 UV-I 46 W/m 1,8 C 1,9 C 3,2 km/h (1 Bft) 100,00 %
27.01.2018 13:06 1,9 C 3,9 C 99 % 1031,6 hPa 0,0 l/m 1,9 km/h (1 Bft) NO 35 0 min 0,000 mm 0,0 UV-I 44 W/m 1,8 C 1,9 C 4,8 km/h (1 Bft) 100,00 %
27.01.2018 13:08 1,9 C 3,9 C 99 % 1031,6 hPa 0,0 l/m 3,4 km/h (1 Bft) NO 36 0 min 0,000 mm 0,0 UV-I 46 W/m 1,8 C 1,9 C 6,4 km/h (2 Bft) 100,00 %
27.01.2018 13:10 1,9 C 3,9 C 99 % 1031,6 hPa 0,0 l/m 2,9 km/h (1 Bft) NO 41 0 min 0,000 mm 0,0 UV-I 47 W/m 1,8 C 1,9 C 6,4 km/h (2 Bft) 100,00 %
27.01.2018 13:12 1,9 C 3,9 C 99 % 1031,6 hPa 0,0 l/m 4,3 km/h (1 Bft) NO 41 0 min 0,000 mm 0,0 UV-I 46 W/m 1,8 C 1,9 C 6,4 km/h (2 Bft) 100,00 %
27.01.2018 13:14 1,9 C 3,9 C 99 % 1031,5 hPa 0,0 l/m 3,5 km/h (1 Bft) N-NO 31 0 min 0,000 mm 0,0 UV-I 50 W/m 1,8 C 1,9 C 6,4 km/h (2 Bft) 100,00 %
27.01.2018 13:16 1,9 C 3,9 C 99 % 1031,6 hPa 0,0 l/m 4,2 km/h (1 Bft) N-NO 31 0 min 0,000 mm 0,0 UV-I 54 W/m 1,8 C 1,9 C 6,4 km/h (2 Bft) 96,00 %
27.01.2018 13:18 1,9 C 3,9 C 99 % 1031,5 hPa 0,0 l/m 2,7 km/h (1 Bft) N-NO 26 0 min 0,000 mm 0,0 UV-I 54 W/m 1,8 C 1,9 C 4,8 km/h (1 Bft) 100,00 %
27.01.2018 13:20 1,9 C 3,9 C 99 % 1031,6 hPa 0,0 l/m 2,9 km/h (1 Bft) N-NO 26 0 min 0,000 mm 0,0 UV-I 53 W/m 1,8 C 1,9 C 4,8 km/h (1 Bft) 100,00 %
27.01.2018 13:22 1,9 C 3,9 C 99 % 1031,7 hPa 0,0 l/m 3,0 km/h (1 Bft) N-NO 26 0 min 0,000 mm 0,0 UV-I 54 W/m 1,8 C 1,9 C 4,8 km/h (1 Bft) 100,00 %
27.01.2018 13:24 1,8 C 3,9 C 99 % 1031,6 hPa 0,0 l/m 2,9 km/h (1 Bft) N-NO 33 0 min 0,000 mm 0,0 UV-I 53 W/m 1,7 C 1,8 C 4,8 km/h (1 Bft) 100,00 %
27.01.2018 13:26 1,9 C 3,9 C 99 % 1031,6 hPa 0,0 l/m 5,0 km/h (1 Bft) NO 47 0 min 0,000 mm 0,0 UV-I 58 W/m 1,8 C 1,9 C 6,4 km/h (2 Bft) 96,23 %
27.01.2018 13:28 1,9 C 3,9 C 99 % 1031,5 hPa 0,0 l/m 3,0 km/h (1 Bft) NO 46 0 min 0,000 mm 0,0 UV-I 59 W/m 1,8 C 1,9 C 4,8 km/h (1 Bft) 100,00 %
27.01.2018 13:30 1,8 C 3,9 C 99 % 1031,6 hPa 0,0 l/m 0,9 km/h (0 Bft) NO 46 0 min 0,000 mm 0,0 UV-I 55 W/m 1,7 C 1,8 C 3,2 km/h (1 Bft) 97,56 %
27.01.2018 13:32 1,8 C 3,9 C 99 % 1031,6 hPa 0,0 l/m 1,9 km/h (1 Bft) NO 46 0 min 0,000 mm 0,0 UV-I 54 W/m 1,7 C 1,8 C 3,2 km/h (1 Bft) 97,56 %
27.01.2018 13:34 1,9 C 3,9 C 99 % 1031,6 hPa 0,0 l/m 3,4 km/h (1 Bft) NO 46 0 min 0,000 mm 0,0 UV-I 58 W/m 1,8 C 1,9 C 4,8 km/h (1 Bft) 98,11 %
27.01.2018 13:36 1,9 C 3,9 C 99 % 1031,5 hPa 0,0 l/m 2,0 km/h (1 Bft) NO 46 0 min 0,000 mm 0,0 UV-I 63 W/m 1,8 C 1,9 C 4,8 km/h (1 Bft) 97,87 %
27.01.2018 13:38 2,0 C 3,9 C 99 % 1031,5 hPa 0,0 l/m 2,5 km/h (1 Bft) NO 38 0 min 0,000 mm 0,0 UV-I 65 W/m 1,9 C 2,0 C 4,8 km/h (1 Bft) 98,00 %
27.01.2018 13:40 1,9 C 3,9 C 99 % 1031,5 hPa 0,0 l/m 3,1 km/h (1 Bft) NO 51 0 min 0,000 mm 0,0 UV-I 63 W/m 1,8 C 1,9 C 4,8 km/h (1 Bft) 97,37 %
27.01.2018 13:42 1,9 C 3,9 C 99 % 1031,5 hPa 0,0 l/m 3,7 km/h (1 Bft) O-NO 62 0 min 0,000 mm 0,0 UV-I 59 W/m 1,8 C 1,9 C 6,4 km/h (2 Bft) 98,00 %
27.01.2018 13:44 1,8 C 3,9 C 99 % 1031,5 hPa 0,0 l/m 4,4 km/h (1 Bft) NO 45 0 min 0,000 mm 0,0 UV-I 57 W/m 1,7 C 1,8 C 6,4 km/h (2 Bft) 95,74 %
27.01.2018 13:46 1,9 C 3,9 C 99 % 1031,5 hPa 0,0 l/m 4,2 km/h (1 Bft) NO 51 0 min 0,000 mm 0,0 UV-I 59 W/m 1,8 C 1,9 C 6,4 km/h (2 Bft) 98,11 %
27.01.2018 13:48 1,9 C 3,9 C 99 % 1031,5 hPa 0,0 l/m 2,7 km/h (1 Bft) NO 51 0 min 0,000 mm 0,0 UV-I 56 W/m 1,8 C 1,9 C 3,2 km/h (1 Bft) 94,87 %
27.01.2018 13:50 1,9 C 3,9 C 99 % 1031,5 hPa 0,0 l/m 2,6 km/h (1 Bft) N-NO 25 0 min 0,000 mm 0,0 UV-I 58 W/m 1,8 C 1,9 C 4,8 km/h (1 Bft) 97,87 %
27.01.2018 13:52 2,0 C 3,9 C 99 % 1031,5 hPa 0,0 l/m 4,2 km/h (1 Bft) NO 51 0 min 0,000 mm 0,0 UV-I 56 W/m 1,9 C 2,0 C 6,4 km/h (2 Bft) 96,00 %
27.01.2018 13:54 1,9 C 3,9 C 99 % 1031,5 hPa 0,0 l/m 4,1 km/h (1 Bft) NO 46 0 min 0,000 mm 0,0 UV-I 55 W/m 1,8 C 1,9 C 6,4 km/h (2 Bft) 96,23 %
27.01.2018 13:56 1,9 C 3,9 C 99 % 1031,6 hPa 0,0 l/m 5,3 km/h (1 Bft) NO 56 0 min 0,000 mm 0,0 UV-I 55 W/m 1,8 C 1,9 C 8,0 km/h (2 Bft) 94,29 %
27.01.2018 13:58 1,9 C 3,9 C 99 % 1031,6 hPa 0,0 l/m 3,8 km/h (1 Bft) NO 34 0 min 0,000 mm 0,0 UV-I 56 W/m 1,8 C 1,9 C 6,4 km/h (2 Bft) 97,87 %
27.01.2018 14:00 1,9 C 3,9 C 99 % 1031,5 hPa 0,0 l/m 2,5 km/h (1 Bft) NO 34 0 min 0,026 mm 0,0 UV-I 53 W/m 1,8 C 1,9 C 4,8 km/h (1 Bft) 98,00 %
27.01.2018 14:02 1,9 C 3,9 C 99 % 1031,6 hPa 0,0 l/m 2,2 km/h (1 Bft) NO 34 0 min 0,000 mm 0,0 UV-I 50 W/m 1,8 C 1,9 C 3,2 km/h (1 Bft) 92,00 %
27.01.2018 14:04 2,0 C 3,9 C 99 % 1031,6 hPa 0,0 l/m 2,5 km/h (1 Bft) NO 34 0 min 0,000 mm 0,0 UV-I 50 W/m 1,9 C 2,0 C 4,8 km/h (1 Bft) 97,56 %
27.01.2018 14:06 1,9 C 3,9 C 99 % 1031,6 hPa 0,0 l/m 1,9 km/h (1 Bft) N-NO 29 0 min 0,000 mm 0,0 UV-I 51 W/m 1,8 C 1,9 C 4,8 km/h (1 Bft) 98,15 %
27.01.2018 14:08 2,0 C 3,9 C 99 % 1031,7 hPa 0,0 l/m 1,6 km/h (1 Bft) N 11 0 min 0,000 mm 0,0 UV-I 55 W/m 1,9 C 2,0 C 4,8 km/h (1 Bft) 100,00 %
27.01.2018 14:10 1,9 C 3,9 C 99 % 1031,7 hPa 0,0 l/m 1,3 km/h (1 Bft) N 11 0 min 0,000 mm 0,0 UV-I 52 W/m 1,8 C 1,9 C 4,8 km/h (1 Bft) 96,00 %
27.01.2018 14:12 2,0 C 3,9 C 99 % 1031,8 hPa 0,0 l/m 0,2 km/h (0 Bft) N 11 0 min 0,000 mm 0,0 UV-I 46 W/m 1,9 C 2,0 C 3,2 km/h (1 Bft) 97,37 %
27.01.2018 14:14 1,9 C 3,9 C 99 % 1031,8 hPa 0,0 l/m 2,1 km/h (1 Bft) N-NO 31 0 min 0,000 mm 0,0 UV-I 46 W/m 1,8 C 1,9 C 6,4 km/h (2 Bft) 97,44 %
27.01.2018 14:16 1,9 C 3,9 C 99 % 1031,8 hPa 0,0 l/m 2,0 km/h (1 Bft) N 11 0 min 0,000 mm 0,0 UV-I 44 W/m 1,8 C 1,9 C 4,8 km/h (1 Bft) 100,00 %
27.01.2018 14:18 1,9 C 3,9 C 99 % 1031,8 hPa 0,0 l/m 0,4 km/h (0 Bft) N 9 0 min 0,000 mm 0,0 UV-I 44 W/m 1,8 C 1,9 C 3,2 km/h (1 Bft) 100,00 %
27.01.2018 14:20 1,9 C 3,9 C 99 % 1031,8 hPa 0,0 l/m 1,8 km/h (1 Bft) NO 36 0 min 0,000 mm 0,0 UV-I 46 W/m 1,8 C 1,9 C 4,8 km/h (1 Bft) 98,00 %
27.01.2018 14:22 2,0 C 3,9 C 99 % 1031,9 hPa 0,0 l/m 2,8 km/h (1 Bft) N-NO 24 0 min 0,000 mm 0,0 UV-I 46 W/m 1,9 C 2,0 C 6,4 km/h (2 Bft) 98,11 %
27.01.2018 14:24 1,9 C 3,9 C 99 % 1031,9 hPa 0,0 l/m 0,6 km/h (0 Bft) N-NO 23 0 min 0,000 mm 0,0 UV-I 47 W/m 1,8 C 1,9 C 3,2 km/h (1 Bft) 100,00 %
27.01.2018 14:26 2,0 C 3,9 C 99 % 1031,9 hPa 0,0 l/m 1,9 km/h (1 Bft) NO 36 0 min 0,000 mm 0,0 UV-I 53 W/m 1,9 C 2,0 C 4,8 km/h (1 Bft) 100,00 %
27.01.2018 14:28 2,0 C 3,9 C 99 % 1031,8 hPa 0,0 l/m 3,6 km/h (1 Bft) NO 35 0 min 0,000 mm 0,0 UV-I 56 W/m 1,9 C 2,0 C 6,4 km/h (2 Bft) 100,00 %
27.01.2018 14:30 2,0 C 3,9 C 99 % 1031,8 hPa 0,0 l/m 3,6 km/h (1 Bft) NO 35 0 min 0,000 mm 0,0 UV-I 62 W/m 1,9 C 2,0 C 6,4 km/h (2 Bft) 100,00 %
27.01.2018 14:32 1,9 C 3,9 C 99 % 1031,8 hPa 0,0 l/m 1,5 km/h (1 Bft) NO 35 0 min 0,000 mm 0,0 UV-I 70 W/m 1,8 C 1,9 C 3,2 km/h (1 Bft) 100,00 %
27.01.2018 14:34 1,9 C 3,9 C 99 % 1031,9 hPa 0,0 l/m 1,1 km/h (1 Bft) NO 35 0 min 0,000 mm 0,0 UV-I 71 W/m 1,8 C 1,9 C 3,2 km/h (1 Bft) 100,00 %
27.01.2018 14:36 2,0 C 3,9 C 99 % 1032,0 hPa 0,0 l/m 0,4 km/h (0 Bft) NO 35 0 min 0,000 mm 0,0 UV-I 68 W/m 1,9 C 2,0 C 3,2 km/h (1 Bft) 97,87 %
27.01.2018 14:38 1,9 C 3,9 C 99 % 1032,0 hPa 0,0 l/m 0,0 km/h (0 Bft) NO 35 0 min 0,000 mm 0,0 UV-I 70 W/m 1,8 C 1,9 C 1,6 km/h (1 Bft) 100,00 %
27.01.2018 14:40 1,9 C 3,9 C 99 % 1032,1 hPa 0,0 l/m 0,0 km/h (0 Bft) NO 35 0 min 0,000 mm 0,0 UV-I 63 W/m 1,8 C 1,9 C 1,6 km/h (1 Bft) 100,00 %
27.01.2018 14:42 1,9 C 3,9 C 99 % 1032,1 hPa 0,0 l/m 0,0 km/h (0 Bft) NO 35 0 min 0,000 mm 0,0 UV-I 55 W/m 1,8 C 1,9 C 0,0 km/h (0 Bft) 100,00 %
27.01.2018 14:44 1,9 C 3,9 C 99 % 1032,1 hPa 0,0 l/m 0,0 km/h (0 Bft) NO 35 0 min 0,000 mm 0,0 UV-I 53 W/m 1,8 C 1,9 C 1,6 km/h (1 Bft) 98,00 %
27.01.2018 14:46 1,9 C 3,9 C 99 % 1032,1 hPa 0,0 l/m 0,0 km/h (0 Bft) NO 35 0 min 0,000 mm 0,0 UV-I 52 W/m 1,8 C 1,9 C 1,6 km/h (1 Bft) 100,00 %
27.01.2018 14:48 1,9 C 3,9 C 99 % 1032,1 hPa 0,0 l/m 0,0 km/h (0 Bft) NO 35 0 min 0,000 mm 0,0 UV-I 54 W/m 1,8 C 1,9 C 0,0 km/h (0 Bft) 100,00 %
27.01.2018 14:50 1,9 C 3,9 C 99 % 1032,1 hPa 0,0 l/m 0,0 km/h (0 Bft) NO 35 0 min 0,000 mm 0,0 UV-I 56 W/m 1,8 C 1,9 C 0,0 km/h (0 Bft) 98,00 %
27.01.2018 14:52 1,9 C 3,9 C 99 % 1032,2 hPa 0,0 l/m 0,0 km/h (0 Bft) NO 35 0 min 0,000 mm 0,0 UV-I 51 W/m 1,8 C 1,9 C 0,0 km/h (0 Bft) 98,21 %
27.01.2018 14:54 1,9 C 3,9 C 99 % 1032,3 hPa 0,0 l/m 0,0 km/h (0 Bft) NO 35 0 min 0,000 mm 0,0 UV-I 42 W/m 1,8 C 1,9 C 0,0 km/h (0 Bft) 100,00 %
27.01.2018 14:56 1,9 C 3,9 C 99 % 1032,3 hPa 0,0 l/m 0,0 km/h (0 Bft) N 11 0 min 0,000 mm 0,0 UV-I 40 W/m 1,8 C 1,9 C 1,6 km/h (1 Bft) 94,87 %
27.01.2018 14:58 1,9 C 3,9 C 99 % 1032,3 hPa 0,0 l/m 0,0 km/h (0 Bft) N 11 0 min 0,000 mm 0,0 UV-I 37 W/m 1,8 C 1,9 C 1,6 km/h (1 Bft) 98,11 %
27.01.2018 15:00 1,9 C 3,9 C 99 % 1032,3 hPa 0,0 l/m 0,1 km/h (0 Bft) N 10 0 min 0,025 mm 0,0 UV-I 36 W/m 1,8 C 1,9 C 1,6 km/h (1 Bft) 100,00 %
27.01.2018 15:02 1,9 C 3,9 C 99 % 1032,3 hPa 0,0 l/m 0,1 km/h (0 Bft) N 10 0 min 0,000 mm 0,0 UV-I 34 W/m 1,8 C 1,9 C 1,6 km/h (1 Bft) 100,00 %
27.01.2018 15:04 2,0 C 3,9 C 99 % 1032,3 hPa 0,0 l/m 0,3 km/h (0 Bft) N 9 0 min 0,000 mm 0,0 UV-I 33 W/m 1,9 C 2,0 C 3,2 km/h (1 Bft) 100,00 %
27.01.2018 15:06 1,9 C 3,9 C 99 % 1032,3 hPa 0,0 l/m 0,3 km/h (0 Bft) N 9 0 min 0,000 mm 0,0 UV-I 33 W/m 1,8 C 1,9 C 1,6 km/h (1 Bft) 100,00 %
27.01.2018 15:08 1,9 C 3,9 C 99 % 1032,4 hPa 0,0 l/m 0,2 km/h (0 Bft) N 5 0 min 0,000 mm 0,0 UV-I 34 W/m 1,8 C 1,9 C 1,6 km/h (1 Bft) 100,00 %
27.01.2018 15:10 1,9 C 3,9 C 99 % 1032,4 hPa 0,0 l/m 0,1 km/h (0 Bft) N 5 0 min 0,000 mm 0,0 UV-I 30 W/m 1,8 C 1,9 C 1,6 km/h (1 Bft) 98,00 %
27.01.2018 15:12 1,9 C 3,9 C 99 % 1032,5 hPa 0,0 l/m 0,4 km/h (0 Bft) N 355 0 min 0,000 mm 0,0 UV-I 31 W/m 1,8 C 1,9 C 1,6 km/h (1 Bft) 100,00 %
27.01.2018 15:14 1,9 C 3,9 C 99 % 1032,6 hPa 0,0 l/m 0,4 km/h (0 Bft) N-NW 338 0 min 0,000 mm 0,0 UV-I 30 W/m 1,8 C 1,9 C 1,6 km/h (1 Bft) 97,87 %
27.01.2018 15:16 1,9 C 3,9 C 99 % 1032,6 hPa 0,0 l/m 0,4 km/h (0 Bft) N-NW 334 0 min 0,000 mm 0,0 UV-I 28 W/m 1,8 C 1,9 C 1,6 km/h (1 Bft) 97,87 %
27.01.2018 15:18 1,9 C 3,9 C 99 % 1032,6 hPa 0,0 l/m 0,5 km/h (0 Bft) N-NW 345 0 min 0,000 mm 0,0 UV-I 24 W/m 1,8 C 1,9 C 3,2 km/h (1 Bft) 100,00 %
27.01.2018 15:20 1,9 C 3,9 C 99 % 1032,5 hPa 0,0 l/m 0,3 km/h (0 Bft) N-NW 346 0 min 0,000 mm 0,0 UV-I 25 W/m 1,8 C 1,9 C 1,6 km/h (1 Bft) 100,00 %
27.01.2018 15:22 1,9 C 3,9 C 99 % 1032,6 hPa 0,0 l/m 0,1 km/h (0 Bft) N-NW 348 0 min 0,000 mm 0,0 UV-I 24 W/m 1,8 C 1,9 C 1,6 km/h (1 Bft) 100,00 %
27.01.2018 15:24 1,9 C 3,9 C 99 % 1032,6 hPa 0,0 l/m 0,1 km/h (0 Bft) N-NW 348 0 min 0,000 mm 0,0 UV-I 25 W/m 1,8 C 1,9 C 1,6 km/h (1 Bft) 97,87 %
27.01.2018 15:26 1,9 C 3,9 C 99 % 1032,6 hPa 0,0 l/m 1,3 km/h (1 Bft) N-NW 348 0 min 0,000 mm 0,0 UV-I 24 W/m 1,8 C 1,9 C 3,2 km/h (1 Bft) 100,00 %
27.01.2018 15:28 1,9 C 3,9 C 99 % 1032,6 hPa 0,0 l/m 0,0 km/h (0 Bft) N-NW 348 0 min 0,000 mm 0,0 UV-I 23 W/m 1,8 C 1,9 C 0,0 km/h (0 Bft) 100,00 %
27.01.2018 15:30 1,8 C 3,9 C 99 % 1032,6 hPa 0,0 l/m 0,0 km/h (0 Bft) N-NW 348 0 min 0,000 mm 0,0 UV-I 22 W/m 1,7 C 1,8 C 0,0 km/h (0 Bft) 100,00 %
27.01.2018 15:32 1,8 C 3,9 C 99 % 1032,6 hPa 0,0 l/m 0,3 km/h (0 Bft) N-NW 348 0 min 0,000 mm 0,0 UV-I 23 W/m 1,7 C 1,8 C 3,2 km/h (1 Bft) 100,00 %
27.01.2018 15:34 1,8 C 3,9 C 99 % 1032,5 hPa 0,0 l/m 2,5 km/h (1 Bft) N-NO 30 0 min 0,000 mm 0,0 UV-I 22 W/m 1,7 C 1,8 C 4,8 km/h (1 Bft) 100,00 %
27.01.2018 15:36 1,8 C 3,9 C 99 % 1032,6 hPa 0,0 l/m 1,9 km/h (1 Bft) N-NO 30 0 min 0,000 mm 0,0 UV-I 22 W/m 1,7 C 1,8 C 3,2 km/h (1 Bft) 100,00 %
27.01.2018 15:38 1,8 C 3,9 C 99 % 1032,7 hPa 0,0 l/m 0,7 km/h (0 Bft) N-NO 30 0 min 0,000 mm 0,0 UV-I 20 W/m 1,7 C 1,8 C 3,2 km/h (1 Bft) 95,74 %
27.01.2018 15:40 1,8 C 3,9 C 99 % 1032,7 hPa 0,0 l/m 0,5 km/h (0 Bft) N-NO 30 0 min 0,000 mm 0,0 UV-I 19 W/m 1,7 C 1,8 C 3,2 km/h (1 Bft) 96,23 %
27.01.2018 15:42 1,8 C 3,9 C 99 % 1032,7 hPa 0,0 l/m 1,8 km/h (1 Bft) N-NO 30 0 min 0,000 mm 0,0 UV-I 20 W/m 1,7 C 1,8 C 3,2 km/h (1 Bft) 94,74 %
27.01.2018 15:44 1,8 C 3,9 C 99 % 1032,6 hPa 0,0 l/m 2,7 km/h (1 Bft) N-NO 30 0 min 0,000 mm 0,0 UV-I 22 W/m 1,7 C 1,8 C 3,2 km/h (1 Bft) 96,00 %
27.01.2018 15:46 1,8 C 3,9 C 99 % 1032,6 hPa 0,0 l/m 2,6 km/h (1 Bft) N-NO 30 0 min 0,000 mm 0,0 UV-I 25 W/m 1,7 C 1,8 C 3,2 km/h (1 Bft) 94,34 %
27.01.2018 15:48 1,8 C 3,9 C 99 % 1032,6 hPa 0,0 l/m 0,4 km/h (0 Bft) N-NO 30 0 min 0,000 mm 0,0 UV-I 21 W/m 1,7 C 1,8 C 3,2 km/h (1 Bft) 95,74 %
27.01.2018 15:50 1,8 C 3,9 C 99 % 1032,7 hPa 0,0 l/m 0,0 km/h (0 Bft) N-NO 30 0 min 0,000 mm 0,0 UV-I 19 W/m 1,7 C 1,8 C 1,6 km/h (1 Bft) 94,74 %
27.01.2018 15:52 1,8 C 3,9 C 99 % 1032,7 hPa 0,0 l/m 0,3 km/h (0 Bft) N-NO 30 0 min 0,000 mm 0,0 UV-I 18 W/m 1,7 C 1,8 C 1,6 km/h (1 Bft) 95,45 %
27.01.2018 15:54 1,8 C 3,9 C 99 % 1032,7 hPa 0,0 l/m 0,1 km/h (0 Bft) N-NO 30 0 min 0,000 mm 0,0 UV-I 18 W/m 1,7 C 1,8 C 1,6 km/h (1 Bft) 94,00 %
27.01.2018 15:56 1,8 C 3,9 C 99 % 1032,7 hPa 0,0 l/m 1,3 km/h (1 Bft) N-NO 30 0 min 0,000 mm 0,0 UV-I 18 W/m 1,7 C 1,8 C 3,2 km/h (1 Bft) 95,74 %
27.01.2018 15:58 1,8 C 3,9 C 99 % 1032,8 hPa 0,0 l/m 0,5 km/h (0 Bft) N-NO 30 0 min 0,000 mm 0,0 UV-I 16 W/m 1,7 C 1,8 C 3,2 km/h (1 Bft) 96,23 %
27.01.2018 16:00 1,8 C 3,9 C 99 % 1032,8 hPa 0,0 l/m 0,0 km/h (0 Bft) N-NO 30 0 min 0,000 mm 0,0 UV-I 15 W/m 1,7 C 1,8 C 0,0 km/h (0 Bft) 95,74 %
27.01.2018 16:02 1,8 C 3,9 C 99 % 1032,8 hPa 0,0 l/m 0,0 km/h (0 Bft) N-NO 30 0 min 0,000 mm 0,0 UV-I 14 W/m 1,7 C 1,8 C 0,0 km/h (0 Bft) 91,67 %
27.01.2018 16:04 1,8 C 3,9 C 99 % 1032,9 hPa 0,0 l/m 0,0 km/h (0 Bft) N-NO 30 0 min 0,000 mm 0,0 UV-I 12 W/m 1,7 C 1,8 C 0,0 km/h (0 Bft) 94,00 %
27.01.2018 16:06 1,8 C 3,9 C 99 % 1032,8 hPa 0,0 l/m 0,0 km/h (0 Bft) N-NO 30 0 min 0,000 mm 0,0 UV-I 12 W/m 1,7 C 1,8 C 0,0 km/h (0 Bft) 96,00 %
27.01.2018 16:08 1,8 C 3,9 C 99 % 1032,8 hPa 0,0 l/m 1,4 km/h (1 Bft) N-NO 30 0 min 0,000 mm 0,0 UV-I 12 W/m 1,7 C 1,8 C 3,2 km/h (1 Bft) 96,00 %
27.01.2018 16:10 1,8 C 3,9 C 99 % 1032,8 hPa 0,0 l/m 0,2 km/h (0 Bft) N-NO 30 0 min 0,000 mm 0,0 UV-I 12 W/m 1,7 C 1,8 C 1,6 km/h (1 Bft) 93,62 %
27.01.2018 16:12 1,8 C 3,9 C 99 % 1032,8 hPa 0,0 l/m 0,0 km/h (0 Bft) N-NO 30 0 min 0,000 mm 0,0 UV-I 12 W/m 1,7 C 1,8 C 0,0 km/h (0 Bft) 94,00 %
27.01.2018 16:14 1,8 C 3,9 C 99 % 1032,8 hPa 0,0 l/m 0,3 km/h (0 Bft) N-NO 30 0 min 0,000 mm 0,0 UV-I 12 W/m 1,7 C 1,8 C 1,6 km/h (1 Bft) 97,37 %
27.01.2018 16:16 1,8 C 3,9 C 99 % 1032,8 hPa 0,0 l/m 0,2 km/h (0 Bft) N-NO 30 0 min 0,000 mm 0,0 UV-I 11 W/m 1,7 C 1,8 C 1,6 km/h (1 Bft) 94,34 %
27.01.2018 16:18 1,8 C 3,9 C 99 % 1032,9 hPa 0,0 l/m 0,4 km/h (0 Bft) N-NO 30 0 min 0,000 mm 0,0 UV-I 11 W/m 1,7 C 1,8 C 1,6 km/h (1 Bft) 94,00 %
27.01.2018 16:20 1,8 C 3,9 C 99 % 1032,8 hPa 0,0 l/m 0,0 km/h (0 Bft) N-NO 30 0 min 0,000 mm 0,0 UV-I 11 W/m 1,7 C 1,8 C 1,6 km/h (1 Bft) 97,37 %
27.01.2018 16:22 1,8 C 3,9 C 99 % 1032,8 hPa 0,0 l/m 0,0 km/h (0 Bft) N-NO 30 0 min 0,000 mm 0,0 UV-I 11 W/m 1,7 C 1,8 C 0,0 km/h (0 Bft) 98,11 %
27.01.2018 16:24 1,8 C 3,9 C 99 % 1032,8 hPa 0,0 l/m 0,0 km/h (0 Bft) N-NO 30 0 min 0,000 mm 0,0 UV-I 11 W/m 1,7 C 1,8 C 0,0 km/h (0 Bft) 95,74 %
27.01.2018 16:26 1,8 C 3,9 C 99 % 1032,8 hPa 0,0 l/m 0,1 km/h (0 Bft) N-NO 31 0 min 0,000 mm 0,0 UV-I 10 W/m 1,7 C 1,8 C 1,6 km/h (1 Bft) 91,67 %
27.01.2018 16:28 1,8 C 3,9 C 99 % 1032,8 hPa 0,0 l/m 0,2 km/h (0 Bft) N-NO 31 0 min 0,000 mm 0,0 UV-I 9 W/m 1,7 C 1,8 C 1,6 km/h (1 Bft) 98,00 %
27.01.2018 16:30 1,8 C 3,9 C 99 % 1032,8 hPa 0,0 l/m 0,0 km/h (0 Bft) N-NO 30 0 min 0,000 mm 0,0 UV-I 9 W/m 1,7 C 1,8 C 0,0 km/h (0 Bft) 98,00 %
27.01.2018 16:32 1,8 C 3,9 C 99 % 1032,8 hPa 0,0 l/m 0,0 km/h (0 Bft) N-NO 31 0 min 0,000 mm 0,0 UV-I 9 W/m 1,7 C 1,8 C 0,0 km/h (0 Bft) 97,87 %
27.01.2018 16:34 1,8 C 3,9 C 99 % 1032,8 hPa 0,0 l/m 0,0 km/h (0 Bft) N-NO 30 0 min 0,000 mm 0,0 UV-I 9 W/m 1,7 C 1,8 C 1,6 km/h (1 Bft) 98,00 %
27.01.2018 16:36 1,9 C 3,9 C 99 % 1032,9 hPa 0,0 l/m 0,0 km/h (0 Bft) N-NO 30 0 min 0,000 mm 0,0 UV-I 7 W/m 1,8 C 1,9 C 0,0 km/h (0 Bft) 95,74 %
27.01.2018 16:38 1,9 C 3,9 C 99 % 1032,9 hPa 0,0 l/m 0,0 km/h (0 Bft) N-NO 30 0 min 0,000 mm 0,0 UV-I 7 W/m 1,8 C 1,9 C 0,0 km/h (0 Bft) 97,87 %
27.01.2018 16:40 1,9 C 3,9 C 99 % 1032,8 hPa 0,0 l/m 0,0 km/h (0 Bft) N-NO 31 0 min 0,000 mm 0,0 UV-I 7 W/m 1,8 C 1,9 C 1,6 km/h (1 Bft) 98,00 %
27.01.2018 16:42 1,9 C 3,9 C 99 % 1032,8 hPa 0,0 l/m 0,8 km/h (0 Bft) N-NO 30 0 min 0,000 mm 0,0 UV-I 7 W/m 1,8 C 1,9 C 1,6 km/h (1 Bft) 97,14 %
27.01.2018 16:44 1,9 C 3,9 C 99 % 1032,8 hPa 0,0 l/m 0,8 km/h (0 Bft) N-NO 31 0 min 0,000 mm 0,0 UV-I 7 W/m 1,8 C 1,9 C 3,2 km/h (1 Bft) 94,00 %
27.01.2018 16:46 1,8 C 3,9 C 99 % 1032,8 hPa 0,0 l/m 0,0 km/h (0 Bft) N-NO 31 0 min 0,000 mm 0,0 UV-I 5 W/m 1,7 C 1,8 C 1,6 km/h (1 Bft) 98,00 %
27.01.2018 16:48 1,8 C 3,9 C 99 % 1032,9 hPa 0,0 l/m 0,0 km/h (0 Bft) N-NO 31 0 min 0,000 mm 0,0 UV-I 5 W/m 1,7 C 1,8 C 0,0 km/h (0 Bft) 95,74 %
27.01.2018 16:50 1,8 C 3,9 C 99 % 1032,9 hPa 0,0 l/m 0,0 km/h (0 Bft) N-NO 31 0 min 0,000 mm 0,0 UV-I 5 W/m 1,7 C 1,8 C 0,0 km/h (0 Bft) 100,00 %
27.01.2018 16:52 1,8 C 3,9 C 99 % 1032,9 hPa 0,0 l/m 0,0 km/h (0 Bft) N-NO 31 0 min 0,000 mm 0,0 UV-I 5 W/m 1,7 C 1,8 C 1,6 km/h (1 Bft) 100,00 %
27.01.2018 16:54 1,9 C 3,9 C 99 % 1033,0 hPa 0,0 l/m 0,0 km/h (0 Bft) N-NO 31 0 min 0,000 mm 0,0 UV-I 5 W/m 1,8 C 1,9 C 0,0 km/h (0 Bft) 100,00 %
27.01.2018 16:56 1,9 C 3,9 C 99 % 1033,0 hPa 0,0 l/m 0,1 km/h (0 Bft) N-NO 31 0 min 0,000 mm 0,0 UV-I 5 W/m 1,8 C 1,9 C 1,6 km/h (1 Bft) 100,00 %
27.01.2018 16:58 1,9 C 3,9 C 99 % 1033,0 hPa 0,0 l/m 0,0 km/h (0 Bft) N-NO 31 0 min 0,000 mm 0,0 UV-I 5 W/m 1,8 C 1,9 C 0,0 km/h (0 Bft) 100,00 %
27.01.2018 17:00 1,9 C 3,9 C 99 % 1033,0 hPa 0,0 l/m 0,0 km/h (0 Bft) N-NO 31 0 min 0,000 mm 0,0 UV-I 1 W/m 1,8 C 1,9 C 1,6 km/h (1 Bft) 100,00 %
27.01.2018 17:02 1,9 C 3,9 C 99 % 1033,1 hPa 0,0 l/m 0,0 km/h (0 Bft) N-NO 31 0 min 0,000 mm 0,0 UV-I 0 W/m 1,8 C 1,9 C 0,0 km/h (0 Bft) 97,87 %
27.01.2018 17:04 1,9 C 3,9 C 99 % 1033,1 hPa 0,0 l/m 0,0 km/h (0 Bft) N-NO 31 0 min 0,000 mm 0,0 UV-I 0 W/m 1,8 C 1,9 C 0,0 km/h (0 Bft) 100,00 %
27.01.2018 17:06 1,9 C 3,9 C 99 % 1033,2 hPa 0,0 l/m 0,0 km/h (0 Bft) N-NO 31 0 min 0,000 mm 0,0 UV-I 0 W/m 1,8 C 1,9 C 0,0 km/h (0 Bft) 100,00 %
27.01.2018 17:08 1,9 C 3,9 C 99 % 1033,2 hPa 0,0 l/m 0,0 km/h (0 Bft) N-NO 31 0 min 0,000 mm 0,0 UV-I 0 W/m 1,8 C 1,9 C 0,0 km/h (0 Bft) 100,00 %
27.01.2018 17:10 1,9 C 3,9 C 99 % 1033,3 hPa 0,0 l/m 0,0 km/h (0 Bft) N-NO 31 0 min 0,000 mm 0,0 UV-I 0 W/m 1,8 C 1,9 C 0,0 km/h (0 Bft) 100,00 %
27.01.2018 17:12 1,9 C 3,9 C 99 % 1033,3 hPa 0,0 l/m 0,0 km/h (0 Bft) N-NO 31 0 min 0,000 mm 0,0 UV-I 0 W/m 1,8 C 1,9 C 0,0 km/h (0 Bft) 100,00 %
27.01.2018 17:14 1,9 C 3,9 C 99 % 1033,3 hPa 0,0 l/m 0,0 km/h (0 Bft) N-NO 31 0 min 0,000 mm 0,0 UV-I 0 W/m 1,8 C 1,9 C 0,0 km/h (0 Bft) 100,00 %
27.01.2018 17:16 1,9 C 3,9 C 99 % 1033,2 hPa 0,0 l/m 0,4 km/h (0 Bft) N-NO 31 0 min 0,000 mm 0,0 UV-I 0 W/m 1,8 C 1,9 C 1,6 km/h (1 Bft) 97,87 %
27.01.2018 17:18 1,9 C 3,9 C 99 % 1033,2 hPa 0,0 l/m 0,4 km/h (0 Bft) N-NO 31 0 min 0,000 mm 0,0 UV-I 0 W/m 1,8 C 1,9 C 1,6 km/h (1 Bft) 100,00 %
27.01.2018 17:20 1,9 C 3,9 C 99 % 1033,3 hPa 0,0 l/m 0,0 km/h (0 Bft) N-NO 31 0 min 0,000 mm 0,0 UV-I 0 W/m 1,8 C 1,9 C 0,0 km/h (0 Bft) 100,00 %
27.01.2018 17:22 1,9 C 3,9 C 99 % 1033,3 hPa 0,0 l/m 0,0 km/h (0 Bft) N-NO 31 0 min 0,000 mm 0,0 UV-I 0 W/m 1,8 C 1,9 C 0,0 km/h (0 Bft) 100,00 %
27.01.2018 17:24 1,9 C 3,9 C 99 % 1033,3 hPa 0,0 l/m 0,0 km/h (0 Bft) N-NO 31 0 min 0,000 mm 0,0 UV-I 0 W/m 1,8 C 1,9 C 0,0 km/h (0 Bft) 100,00 %
27.01.2018 17:26 1,9 C 3,9 C 99 % 1033,4 hPa 0,0 l/m 0,0 km/h (0 Bft) N-NO 31 0 min 0,000 mm 0,0 UV-I 0 W/m 1,8 C 1,9 C 0,0 km/h (0 Bft) 100,00 %
27.01.2018 17:28 1,9 C 3,9 C 99 % 1033,4 hPa 0,0 l/m 0,1 km/h (0 Bft) N-NO 31 0 min 0,000 mm 0,0 UV-I 0 W/m 1,8 C 1,9 C 1,6 km/h (1 Bft) 97,22 %
27.01.2018 17:30 1,9 C 3,9 C 99 % 1033,4 hPa 0,0 l/m 0,0 km/h (0 Bft) N-NO 31 0 min 0,000 mm 0,0 UV-I 0 W/m 1,8 C 1,9 C 0,0 km/h (0 Bft) 100,00 %
27.01.2018 17:32 2,0 C 3,9 C 99 % 1033,4 hPa 0,0 l/m 0,3 km/h (0 Bft) N-NO 31 0 min 0,000 mm 0,0 UV-I 0 W/m 1,9 C 2,0 C 1,6 km/h (1 Bft) 97,87 %
27.01.2018 17:34 1,9 C 3,9 C 99 % 1033,4 hPa 0,0 l/m 0,2 km/h (0 Bft) N-NO 31 0 min 0,000 mm 0,0 UV-I 0 W/m 1,8 C 1,9 C 1,6 km/h (1 Bft) 100,00 %
27.01.2018 17:36 1,9 C 3,9 C 99 % 1033,5 hPa 0,0 l/m 0,0 km/h (0 Bft) N-NO 31 0 min 0,000 mm 0,0 UV-I 0 W/m 1,8 C 1,9 C 0,0 km/h (0 Bft) 100,00 %
27.01.2018 17:38 1,9 C 3,9 C 99 % 1033,6 hPa 0,0 l/m 0,0 km/h (0 Bft) N-NO 31 0 min 0,000 mm 0,0 UV-I 0 W/m 1,8 C 1,9 C 0,0 km/h (0 Bft) 100,00 %
27.01.2018 17:40 1,9 C 3,9 C 99 % 1033,6 hPa 0,0 l/m 0,0 km/h (0 Bft) N-NO 31 0 min 0,000 mm 0,0 UV-I 0 W/m 1,8 C 1,9 C 0,0 km/h (0 Bft) 96,00 %
27.01.2018 17:42 1,9 C 3,9 C 99 % 1033,6 hPa 0,0 l/m 0,0 km/h (0 Bft) N-NO 31 0 min 0,000 mm 0,0 UV-I 0 W/m 1,8 C 1,9 C 0,0 km/h (0 Bft) 98,00 %
27.01.2018 17:44 1,9 C 3,9 C 99 % 1033,5 hPa 0,0 l/m 0,0 km/h (0 Bft) N-NO 31 0 min 0,000 mm 0,0 UV-I 0 W/m 1,8 C 1,9 C 0,0 km/h (0 Bft) 100,00 %
27.01.2018 17:46 2,0 C 3,9 C 99 % 1033,6 hPa 0,0 l/m 0,0 km/h (0 Bft) N-NO 31 0 min 0,000 mm 0,0 UV-I 0 W/m 1,9 C 2,0 C 0,0 km/h (0 Bft) 98,51 %
27.01.2018 17:48 1,9 C 3,9 C 99 % 1033,6 hPa 0,0 l/m 0,0 km/h (0 Bft) N-NO 31 0 min 0,000 mm 0,0 UV-I 0 W/m 1,8 C 1,9 C 0,0 km/h (0 Bft) 98,00 %
27.01.2018 17:50 1,9 C 3,9 C 99 % 1033,7 hPa 0,0 l/m 0,0 km/h (0 Bft) N-NO 31 0 min 0,000 mm 0,0 UV-I 0 W/m 1,8 C 1,9 C 0,0 km/h (0 Bft) 98,00 %
27.01.2018 17:52 1,9 C 3,9 C 99 % 1033,8 hPa 0,0 l/m 0,0 km/h (0 Bft) N-NO 31 0 min 0,000 mm 0,0 UV-I 0 W/m 1,8 C 1,9 C 0,0 km/h (0 Bft) 100,00 %
27.01.2018 17:54 1,9 C 3,9 C 99 % 1033,8 hPa 0,0 l/m 0,0 km/h (0 Bft) N-NO 31 0 min 0,000 mm 0,0 UV-I 0 W/m 1,8 C 1,9 C 0,0 km/h (0 Bft) 96,77 %
27.01.2018 17:56 1,9 C 3,9 C 99 % 1033,9 hPa 0,0 l/m 0,0 km/h (0 Bft) N-NO 31 0 min 0,000 mm 0,0 UV-I 0 W/m 1,8 C 1,9 C 0,0 km/h (0 Bft) 97,96 %
27.01.2018 17:58 2,0 C 3,9 C 99 % 1034,0 hPa 0,0 l/m 0,0 km/h (0 Bft) N-NO 31 0 min 0,000 mm 0,0 UV-I 0 W/m 1,9 C 2,0 C 0,0 km/h (0 Bft) 97,62 %
27.01.2018 18:00 2,0 C 3,9 C 99 % 1034,0 hPa 0,0 l/m 0,0 km/h (0 Bft) N-NO 31 0 min 0,000 mm 0,0 UV-I 0 W/m 1,9 C 2,0 C 0,0 km/h (0 Bft) 98,00 %
27.01.2018 18:02 2,0 C 3,9 C 99 % 1034,0 hPa 0,0 l/m 0,0 km/h (0 Bft) N-NO 31 0 min 0,000 mm 0,0 UV-I 0 W/m 1,9 C 2,0 C 0,0 km/h (0 Bft) 97,87 %
27.01.2018 18:04 1,9 C 3,9 C 99 % 1034,0 hPa 0,0 l/m 0,0 km/h (0 Bft) N-NO 31 0 min 0,000 mm 0,0 UV-I 0 W/m 1,8 C 1,9 C 0,0 km/h (0 Bft) 96,00 %
27.01.2018 18:06 2,0 C 3,9 C 99 % 1034,1 hPa 0,0 l/m 0,0 km/h (0 Bft) N-NO 31 0 min 0,000 mm 0,0 UV-I 0 W/m 1,9 C 2,0 C 0,0 km/h (0 Bft) 100,00 %
27.01.2018 18:08 2,0 C 3,9 C 99 % 1034,1 hPa 0,0 l/m 0,0 km/h (0 Bft) N-NO 31 0 min 0,000 mm 0,0 UV-I 0 W/m 1,9 C 2,0 C 0,0 km/h (0 Bft) 96,36 %
27.01.2018 18:10 2,0 C 3,9 C 99 % 1034,1 hPa 0,0 l/m 0,0 km/h (0 Bft) N-NO 31 0 min 0,000 mm 0,0 UV-I 0 W/m 1,9 C 2,0 C 0,0 km/h (0 Bft) 95,74 %
27.01.2018 18:12 2,1 C 3,9 C 99 % 1034,1 hPa 0,0 l/m 0,0 km/h (0 Bft) N-NO 31 0 min 0,000 mm 0,0 UV-I 0 W/m 2,0 C 2,1 C 0,0 km/h (0 Bft) 97,87 %
27.01.2018 18:14 2,0 C 3,9 C 99 % 1034,1 hPa 0,0 l/m 1,2 km/h (1 Bft) N-NO 31 0 min 0,000 mm 0,0 UV-I 0 W/m 1,9 C 2,0 C 3,2 km/h (1 Bft) 97,87 %
27.01.2018 18:16 2,0 C 3,9 C 99 % 1034,1 hPa 0,0 l/m 0,0 km/h (0 Bft) N-NO 31 0 min 0,000 mm 0,0 UV-I 0 W/m 1,9 C 2,0 C 0,0 km/h (0 Bft) 97,56 %
27.01.2018 18:18 2,0 C 3,9 C 99 % 1034,1 hPa 0,0 l/m 0,0 km/h (0 Bft) N-NO 31 0 min 0,000 mm 0,0 UV-I 0 W/m 1,9 C 2,0 C 1,6 km/h (1 Bft) 98,00 %
27.01.2018 18:20 2,0 C 3,9 C 99 % 1034,1 hPa 0,0 l/m 0,0 km/h (0 Bft) N-NO 31 0 min 0,000 mm 0,0 UV-I 0 W/m 1,9 C 2,0 C 1,6 km/h (1 Bft) 95,74 %
27.01.2018 18:22 2,0 C 3,9 C 99 % 1034,2 hPa 0,0 l/m 0,0 km/h (0 Bft) N-NO 31 0 min 0,000 mm 0,0 UV-I 0 W/m 1,9 C 2,0 C 0,0 km/h (0 Bft) 98,11 %
27.01.2018 18:24 2,0 C 3,9 C 99 % 1034,2 hPa 0,0 l/m 0,0 km/h (0 Bft) N-NO 31 0 min 0,000 mm 0,0 UV-I 0 W/m 1,9 C 2,0 C 0,0 km/h (0 Bft) 100,00 %
27.01.2018 18:26 2,0 C 3,9 C 99 % 1034,3 hPa 0,0 l/m 0,0 km/h (0 Bft) N-NO 31 0 min 0,000 mm 0,0 UV-I 0 W/m 1,9 C 2,0 C 0,0 km/h (0 Bft) 100,00 %
27.01.2018 18:28 2,1 C 3,9 C 99 % 1034,3 hPa 0,0 l/m 0,0 km/h (0 Bft) N-NO 31 0 min 0,000 mm 0,0 UV-I 0 W/m 2,0 C 2,1 C 0,0 km/h (0 Bft) 100,00 %
27.01.2018 18:30 2,0 C 3,9 C 99 % 1034,3 hPa 0,0 l/m 0,0 km/h (0 Bft) N-NO 31 0 min 0,000 mm 0,0 UV-I 0 W/m 1,9 C 2,0 C 0,0 km/h (0 Bft) 97,87 %
27.01.2018 18:32 2,0 C 3,9 C 99 % 1034,3 hPa 0,0 l/m 0,0 km/h (0 Bft) N-NO 31 0 min 0,000 mm 0,0 UV-I 0 W/m 1,9 C 2,0 C 0,0 km/h (0 Bft) 100,00 %
27.01.2018 18:34 2,0 C 3,9 C 99 % 1034,2 hPa 0,0 l/m 0,1 km/h (0 Bft) N-NO 31 0 min 0,000 mm 0,0 UV-I 0 W/m 1,9 C 2,0 C 1,6 km/h (1 Bft) 100,00 %
27.01.2018 18:36 2,0 C 3,9 C 99 % 1034,3 hPa 0,0 l/m 0,1 km/h (0 Bft) N-NO 31 0 min 0,000 mm 0,0 UV-I 0 W/m 1,9 C 2,0 C 1,6 km/h (1 Bft) 97,96 %
27.01.2018 18:38 2,1 C 3,9 C 99 % 1034,3 hPa 0,0 l/m 0,0 km/h (0 Bft) N-NO 31 0 min 0,000 mm 0,0 UV-I 0 W/m 2,0 C 2,1 C 0,0 km/h (0 Bft) 97,92 %
27.01.2018 18:40 2,1 C 3,9 C 99 % 1034,3 hPa 0,0 l/m 0,0 km/h (0 Bft) N-NO 31 0 min 0,000 mm 0,0 UV-I 0 W/m 2,0 C 2,1 C 0,0 km/h (0 Bft) 100,00 %
27.01.2018 18:42 2,0 C 3,9 C 99 % 1034,3 hPa 0,0 l/m 0,0 km/h (0 Bft) N-NO 31 0 min 0,000 mm 0,0 UV-I 0 W/m 1,9 C 2,0 C 0,0 km/h (0 Bft) 98,00 %
27.01.2018 18:44 2,1 C 3,9 C 99 % 1034,3 hPa 0,0 l/m 0,0 km/h (0 Bft) N-NO 31 0 min 0,000 mm 0,0 UV-I 0 W/m 2,0 C 2,1 C 1,6 km/h (1 Bft) 100,00 %
27.01.2018 18:46 2,1 C 3,9 C 99 % 1034,3 hPa 0,0 l/m 0,5 km/h (0 Bft) N-NO 31 0 min 0,000 mm 0,0 UV-I 0 W/m 2,0 C 2,1 C 3,2 km/h (1 Bft) 100,00 %
27.01.2018 18:48 2,1 C 3,9 C 99 % 1034,3 hPa 0,0 l/m 1,7 km/h (1 Bft) N-NO 31 0 min 0,000 mm 0,0 UV-I 0 W/m 2,0 C 2,1 C 3,2 km/h (1 Bft) 100,00 %
27.01.2018 18:50 2,1 C 3,9 C 99 % 1034,3 hPa 0,0 l/m 0,1 km/h (0 Bft) N-NO 31 0 min 0,000 mm 0,0 UV-I 0 W/m 2,0 C 2,1 C 1,6 km/h (1 Bft) 98,21 %
27.01.2018 18:52 2,1 C 3,9 C 99 % 1034,3 hPa 0,0 l/m 0,2 km/h (0 Bft) N-NO 31 0 min 0,000 mm 0,0 UV-I 0 W/m 2,0 C 2,1 C 1,6 km/h (1 Bft) 100,00 %
27.01.2018 18:54 2,1 C 3,9 C 99 % 1034,3 hPa 0,0 l/m 0,3 km/h (0 Bft) N-NO 31 0 min 0,000 mm 0,0 UV-I 0 W/m 2,0 C 2,1 C 1,6 km/h (1 Bft) 100,00 %
27.01.2018 18:56 2,1 C 3,9 C 99 % 1034,3 hPa 0,0 l/m 0,7 km/h (0 Bft) NO 34 0 min 0,000 mm 0,0 UV-I 0 W/m 2,0 C 2,1 C 3,2 km/h (1 Bft) 100,00 %
27.01.2018 18:58 2,1 C 3,9 C 99 % 1034,3 hPa 0,0 l/m 0,1 km/h (0 Bft) NO 34 0 min 0,000 mm 0,0 UV-I 0 W/m 2,0 C 2,1 C 1,6 km/h (1 Bft) 100,00 %
27.01.2018 19:00 2,1 C 3,9 C 99 % 1034,3 hPa 0,0 l/m 0,3 km/h (0 Bft) NO 34 0 min 0,000 mm 0,0 UV-I 0 W/m 2,0 C 2,1 C 1,6 km/h (1 Bft) 100,00 %
27.01.2018 19:02 2,1 C 3,9 C 99 % 1034,4 hPa 0,0 l/m 0,7 km/h (0 Bft) NO 34 0 min 0,000 mm 0,0 UV-I 0 W/m 2,0 C 2,1 C 1,6 km/h (1 Bft) 100,00 %
27.01.2018 19:04 2,1 C 3,9 C 99 % 1034,4 hPa 0,0 l/m 0,0 km/h (0 Bft) NO 34 0 min 0,000 mm 0,0 UV-I 0 W/m 2,0 C 2,1 C 0,0 km/h (0 Bft) 100,00 %
27.01.2018 19:06 2,1 C 3,9 C 99 % 1034,4 hPa 0,0 l/m 0,6 km/h (0 Bft) NO 34 0 min 0,000 mm 0,0 UV-I 0 W/m 2,0 C 2,1 C 1,6 km/h (1 Bft) 97,87 %
27.01.2018 19:08 2,1 C 3,9 C 99 % 1034,4 hPa 0,0 l/m 0,0 km/h (0 Bft) NO 34 0 min 0,000 mm 0,0 UV-I 0 W/m 2,0 C 2,1 C 0,0 km/h (0 Bft) 100,00 %
27.01.2018 19:10 2,1 C 3,9 C 99 % 1034,5 hPa 0,0 l/m 0,0 km/h (0 Bft) NO 34 0 min 0,000 mm 0,0 UV-I 0 W/m 2,0 C 2,1 C 0,0 km/h (0 Bft) 97,87 %
27.01.2018 19:12 2,1 C 3,9 C 99 % 1034,5 hPa 0,0 l/m 0,0 km/h (0 Bft) NO 34 0 min 0,000 mm 0,0 UV-I 0 W/m 2,0 C 2,1 C 0,0 km/h (0 Bft) 98,00 %
27.01.2018 19:14 2,1 C 3,9 C 99 % 1034,4 hPa 0,0 l/m 0,0 km/h (0 Bft) NO 34 0 min 0,000 mm 0,0 UV-I 0 W/m 2,0 C 2,1 C 0,0 km/h (0 Bft) 100,00 %
27.01.2018 19:16 2,1 C 3,9 C 99 % 1034,5 hPa 0,0 l/m 0,1 km/h (0 Bft) NO 34 0 min 0,000 mm 0,0 UV-I 0 W/m 2,0 C 2,1 C 1,6 km/h (1 Bft) 95,74 %
27.01.2018 19:18 2,1 C 3,9 C 99 % 1034,4 hPa 0,0 l/m 0,8 km/h (0 Bft) NO 34 0 min 0,000 mm 0,0 UV-I 0 W/m 2,0 C 2,1 C 1,6 km/h (1 Bft) 98,00 %
27.01.2018 19:20 2,1 C 3,9 C 99 % 1034,4 hPa 0,0 l/m 0,2 km/h (0 Bft) NO 36 0 min 0,000 mm 0,0 UV-I 0 W/m 2,0 C 2,1 C 1,6 km/h (1 Bft) 100,00 %
27.01.2018 19:22 2,1 C 3,9 C 99 % 1034,4 hPa 0,0 l/m 0,0 km/h (0 Bft) NO 36 0 min 0,000 mm 0,0 UV-I 0 W/m 2,0 C 2,1 C 1,6 km/h (1 Bft) 100,00 %
27.01.2018 19:24 2,1 C 3,9 C 99 % 1034,4 hPa 0,0 l/m 1,7 km/h (1 Bft) NO 36 0 min 0,000 mm 0,0 UV-I 0 W/m 2,0 C 2,1 C 4,8 km/h (1 Bft) 100,00 %
27.01.2018 19:26 2,1 C 3,9 C 99 % 1034,4 hPa 0,0 l/m 1,5 km/h (1 Bft) NO 36 0 min 0,000 mm 0,0 UV-I 0 W/m 2,0 C 2,1 C 3,2 km/h (1 Bft) 100,00 %
27.01.2018 19:28 2,1 C 3,9 C 99 % 1034,4 hPa 0,0 l/m 2,5 km/h (1 Bft) NO 36 0 min 0,000 mm 0,0 UV-I 0 W/m 2,0 C 2,1 C 3,2 km/h (1 Bft) 100,00 %
27.01.2018 19:30 2,1 C 3,9 C 99 % 1034,4 hPa 0,0 l/m 0,5 km/h (0 Bft) NO 36 0 min 0,000 mm 0,0 UV-I 0 W/m 2,0 C 2,1 C 3,2 km/h (1 Bft) 98,00 %
27.01.2018 19:32 2,2 C 3,9 C 99 % 1034,4 hPa 0,0 l/m 0,2 km/h (0 Bft) NO 36 0 min 0,000 mm 0,0 UV-I 0 W/m 2,1 C 2,2 C 1,6 km/h (1 Bft) 100,00 %
27.01.2018 19:34 2,1 C 3,9 C 99 % 1034,4 hPa 0,0 l/m 0,6 km/h (0 Bft) NO 36 0 min 0,000 mm 0,0 UV-I 0 W/m 2,0 C 2,1 C 3,2 km/h (1 Bft) 97,37 %
27.01.2018 19:36 2,2 C 3,9 C 99 % 1034,5 hPa 0,0 l/m 1,6 km/h (1 Bft) NO 36 0 min 0,000 mm 0,0 UV-I 0 W/m 2,1 C 2,2 C 3,2 km/h (1 Bft) 98,11 %
27.01.2018 19:38 2,1 C 3,9 C 99 % 1034,5 hPa 0,0 l/m 1,1 km/h (1 Bft) NO 36 0 min 0,000 mm 0,0 UV-I 0 W/m 2,0 C 2,1 C 3,2 km/h (1 Bft) 100,00 %
27.01.2018 19:40 2,2 C 3,9 C 99 % 1034,5 hPa 0,0 l/m 0,3 km/h (0 Bft) NO 36 0 min 0,000 mm 0,0 UV-I 0 W/m 2,1 C 2,2 C 1,6 km/h (1 Bft) 100,00 %
27.01.2018 19:42 2,2 C 3,9 C 99 % 1034,6 hPa 0,0 l/m 0,3 km/h (0 Bft) NO 36 0 min 0,000 mm 0,0 UV-I 0 W/m 2,1 C 2,2 C 1,6 km/h (1 Bft) 100,00 %
27.01.2018 19:44 2,2 C 3,9 C 99 % 1034,6 hPa 0,0 l/m 1,9 km/h (1 Bft) NO 36 0 min 0,000 mm 0,0 UV-I 0 W/m 2,1 C 2,2 C 3,2 km/h (1 Bft) 97,87 %
27.01.2018 19:46 2,2 C 3,9 C 99 % 1034,6 hPa 0,0 l/m 1,0 km/h (0 Bft) NO 36 0 min 0,000 mm 0,0 UV-I 0 W/m 2,1 C 2,2 C 3,2 km/h (1 Bft) 95,12 %
27.01.2018 19:48 2,2 C 3,9 C 99 % 1034,7 hPa 0,0 l/m 1,3 km/h (1 Bft) W-NW 284 0 min 0,000 mm 0,0 UV-I 0 W/m 2,1 C 2,2 C 3,2 km/h (1 Bft) 97,87 %
27.01.2018 19:50 2,2 C 3,9 C 99 % 1034,7 hPa 0,0 l/m 0,9 km/h (0 Bft) W-NW 284 0 min 0,000 mm 0,0 UV-I 0 W/m 2,1 C 2,2 C 1,6 km/h (1 Bft) 96,00 %
27.01.2018 19:52 2,2 C 3,9 C 99 % 1034,7 hPa 0,0 l/m 0,7 km/h (0 Bft) W-NW 284 0 min 0,000 mm 0,0 UV-I 0 W/m 2,1 C 2,2 C 1,6 km/h (1 Bft) 95,74 %
27.01.2018 19:54 2,2 C 3,9 C 99 % 1034,7 hPa 0,0 l/m 0,0 km/h (0 Bft) W-NW 284 0 min 0,000 mm 0,0 UV-I 0 W/m 2,1 C 2,2 C 1,6 km/h (1 Bft) 93,62 %
27.01.2018 19:56 2,2 C 3,9 C 99 % 1034,7 hPa 0,0 l/m 0,0 km/h (0 Bft) W-NW 284 0 min 0,000 mm 0,0 UV-I 0 W/m 2,1 C 2,2 C 0,0 km/h (0 Bft) 95,74 %
27.01.2018 19:58 2,2 C 3,9 C 99 % 1034,7 hPa 0,0 l/m 0,7 km/h (0 Bft) W-NW 284 0 min 0,000 mm 0,0 UV-I 0 W/m 2,1 C 2,2 C 3,2 km/h (1 Bft) 95,74 %
27.01.2018 20:00 2,2 C 3,9 C 99 % 1034,7 hPa 0,0 l/m 1,8 km/h (1 Bft) W-NW 284 0 min 0,000 mm 0,0 UV-I 0 W/m 2,1 C 2,2 C 3,2 km/h (1 Bft) 93,62 %
27.01.2018 20:02 2,2 C 3,9 C 99 % 1034,8 hPa 0,0 l/m 0,0 km/h (0 Bft) W-NW 284 0 min 0,000 mm 0,0 UV-I 0 W/m 2,1 C 2,2 C 1,6 km/h (1 Bft) 96,00 %
27.01.2018 20:04 2,2 C 3,9 C 99 % 1034,8 hPa 0,0 l/m 0,8 km/h (0 Bft) W-NW 284 0 min 0,000 mm 0,0 UV-I 0 W/m 2,1 C 2,2 C 3,2 km/h (1 Bft) 94,44 %
27.01.2018 20:06 2,2 C 3,9 C 99 % 1034,8 hPa 0,0 l/m 0,0 km/h (0 Bft) W-NW 284 0 min 0,000 mm 0,0 UV-I 0 W/m 2,1 C 2,2 C 0,0 km/h (0 Bft) 94,55 %
27.01.2018 20:08 2,2 C 3,9 C 99 % 1034,8 hPa 0,0 l/m 0,3 km/h (0 Bft) W-NW 284 0 min 0,000 mm 0,0 UV-I 0 W/m 2,1 C 2,2 C 3,2 km/h (1 Bft) 91,67 %
27.01.2018 20:10 2,2 C 3,9 C 99 % 1034,8 hPa 0,0 l/m 0,6 km/h (0 Bft) W-NW 284 0 min 0,000 mm 0,0 UV-I 0 W/m 2,1 C 2,2 C 3,2 km/h (1 Bft) 97,14 %
27.01.2018 20:12 2,2 C 3,9 C 99 % 1034,8 hPa 0,0 l/m 0,1 km/h (0 Bft) W-NW 284 0 min 0,000 mm 0,0 UV-I 0 W/m 2,1 C 2,2 C 1,6 km/h (1 Bft) 92,86 %
27.01.2018 20:14 2,2 C 3,9 C 99 % 1034,8 hPa 0,0 l/m 1,3 km/h (1 Bft) W-NW 284 0 min 0,000 mm 0,0 UV-I 0 W/m 2,1 C 2,2 C 3,2 km/h (1 Bft) 96,00 %
27.01.2018 20:16 2,1 C 3,9 C 99 % 1034,8 hPa 0,0 l/m 0,0 km/h (0 Bft) W-NW 284 0 min 0,000 mm 0,0 UV-I 0 W/m 2,0 C 2,1 C 0,0 km/h (0 Bft) 91,49 %
27.01.2018 20:18 2,2 C 3,9 C 99 % 1034,8 hPa 0,0 l/m 0,7 km/h (0 Bft) W-NW 284 0 min 0,000 mm 0,0 UV-I 0 W/m 2,1 C 2,2 C 3,2 km/h (1 Bft) 94,74 %
27.01.2018 20:20 2,1 C 3,9 C 99 % 1034,8 hPa 0,0 l/m 0,1 km/h (0 Bft) W-NW 284 0 min 0,000 mm 0,0 UV-I 0 W/m 2,0 C 2,1 C 1,6 km/h (1 Bft) 95,74 %
27.01.2018 20:22 2,1 C 3,9 C 99 % 1034,7 hPa 0,0 l/m 0,0 km/h (0 Bft) W-NW 284 0 min 0,000 mm 0,0 UV-I 0 W/m 2,0 C 2,1 C 0,0 km/h (0 Bft) 95,92 %
27.01.2018 20:24 2,1 C 3,9 C 99 % 1034,8 hPa 0,0 l/m 0,0 km/h (0 Bft) W-NW 284 0 min 0,000 mm 0,0 UV-I 0 W/m 2,0 C 2,1 C 0,0 km/h (0 Bft) 93,62 %
27.01.2018 20:26 2,1 C 3,9 C 99 % 1034,8 hPa 0,0 l/m 0,2 km/h (0 Bft) W-NW 284 0 min 0,000 mm 0,0 UV-I 0 W/m 2,0 C 2,1 C 1,6 km/h (1 Bft) 93,62 %
27.01.2018 20:28 2,1 C 3,9 C 99 % 1034,8 hPa 0,0 l/m 0,0 km/h (0 Bft) W-NW 284 0 min 0,000 mm 0,0 UV-I 0 W/m 2,0 C 2,1 C 0,0 km/h (0 Bft) 95,74 %
27.01.2018 20:30 2,1 C 3,9 C 99 % 1034,9 hPa 0,0 l/m 0,5 km/h (0 Bft) W-NW 284 0 min 0,000 mm 0,0 UV-I 0 W/m 2,0 C 2,1 C 1,6 km/h (1 Bft) 94,34 %
27.01.2018 20:32 2,1 C 3,9 C 99 % 1034,8 hPa 0,0 l/m 2,0 km/h (1 Bft) W-NW 284 0 min 0,000 mm 0,0 UV-I 0 W/m 2,0 C 2,1 C 3,2 km/h (1 Bft) 97,87 %
27.01.2018 20:34 2,1 C 3,9 C 99 % 1034,8 hPa 0,0 l/m 2,6 km/h (1 Bft) W-NW 284 0 min 0,000 mm 0,0 UV-I 0 W/m 2,0 C 2,1 C 4,8 km/h (1 Bft) 97,44 %
27.01.2018 20:36 2,1 C 3,9 C 99 % 1034,8 hPa 0,0 l/m 1,7 km/h (1 Bft) W-NW 284 0 min 0,000 mm 0,0 UV-I 0 W/m 2,0 C 2,1 C 3,2 km/h (1 Bft) 96,00 %
27.01.2018 20:38 2,1 C 3,9 C 99 % 1034,8 hPa 0,0 l/m 1,0 km/h (0 Bft) W-NW 284 0 min 0,000 mm 0,0 UV-I 0 W/m 2,0 C 2,1 C 1,6 km/h (1 Bft) 98,00 %
27.01.2018 20:40 2,1 C 3,9 C 99 % 1034,8 hPa 0,0 l/m 1,4 km/h (1 Bft) W-NW 284 0 min 0,000 mm 0,0 UV-I 0 W/m 2,0 C 2,1 C 3,2 km/h (1 Bft) 97,37 %
27.01.2018 20:42 2,1 C 3,9 C 99 % 1034,8 hPa 0,0 l/m 2,4 km/h (1 Bft) W-NW 284 0 min 0,000 mm 0,0 UV-I 0 W/m 2,0 C 2,1 C 4,8 km/h (1 Bft) 98,11 %
27.01.2018 20:44 2,1 C 3,9 C 99 % 1034,8 hPa 0,0 l/m 1,0 km/h (0 Bft) W-NW 284 0 min 0,000 mm 0,0 UV-I 0 W/m 2,0 C 2,1 C 4,8 km/h (1 Bft) 96,00 %
27.01.2018 20:46 2,0 C 3,9 C 99 % 1034,9 hPa 0,0 l/m 0,7 km/h (0 Bft) W-NW 284 0 min 0,000 mm 0,0 UV-I 0 W/m 1,9 C 2,0 C 3,2 km/h (1 Bft) 94,74 %
27.01.2018 20:48 2,1 C 3,9 C 99 % 1034,9 hPa 0,0 l/m 0,8 km/h (0 Bft) W-NW 284 0 min 0,000 mm 0,0 UV-I 0 W/m 2,0 C 2,1 C 3,2 km/h (1 Bft) 97,87 %
27.01.2018 20:50 2,1 C 3,9 C 99 % 1034,9 hPa 0,0 l/m 0,3 km/h (0 Bft) W-NW 284 0 min 0,000 mm 0,0 UV-I 0 W/m 2,0 C 2,1 C 1,6 km/h (1 Bft) 97,87 %
27.01.2018 20:52 2,1 C 3,9 C 99 % 1034,9 hPa 0,0 l/m 0,3 km/h (0 Bft) W-NW 284 0 min 0,000 mm 0,0 UV-I 0 W/m 2,0 C 2,1 C 1,6 km/h (1 Bft) 96,00 %
27.01.2018 20:54 2,1 C 3,9 C 99 % 1035,0 hPa 0,0 l/m 0,6 km/h (0 Bft) W-NW 284 0 min 0,000 mm 0,0 UV-I 0 W/m 2,0 C 2,1 C 1,6 km/h (1 Bft) 94,34 %
27.01.2018 20:56 2,1 C 3,9 C 99 % 1034,9 hPa 0,0 l/m 1,1 km/h (1 Bft) W-NW 284 0 min 0,000 mm 0,0 UV-I 0 W/m 2,0 C 2,1 C 4,8 km/h (1 Bft) 97,37 %
27.01.2018 20:58 2,1 C 3,9 C 99 % 1035,0 hPa 0,0 l/m 1,4 km/h (1 Bft) W-NW 284 0 min 0,000 mm 0,0 UV-I 0 W/m 2,0 C 2,1 C 4,8 km/h (1 Bft) 100,00 %
27.01.2018 21:00 2,1 C 3,9 C 99 % 1034,9 hPa 0,0 l/m 1,3 km/h (1 Bft) NW 309 0 min 0,000 mm 0,0 UV-I 0 W/m 2,0 C 2,1 C 4,8 km/h (1 Bft) 97,87 %
27.01.2018 21:02 2,1 C 3,9 C 99 % 1035,0 hPa 0,0 l/m 0,0 km/h (0 Bft) NW 309 0 min 0,000 mm 0,0 UV-I 0 W/m 2,0 C 2,1 C 0,0 km/h (0 Bft) 100,00 %
27.01.2018 21:04 2,1 C 3,9 C 99 % 1035,0 hPa 0,0 l/m 0,2 km/h (0 Bft) NW 309 0 min 0,000 mm 0,0 UV-I 0 W/m 2,0 C 2,1 C 1,6 km/h (1 Bft) 100,00 %
27.01.2018 21:06 2,1 C 3,9 C 99 % 1035,0 hPa 0,0 l/m 0,7 km/h (0 Bft) NW 309 0 min 0,000 mm 0,0 UV-I 0 W/m 2,0 C 2,1 C 3,2 km/h (1 Bft) 100,00 %
27.01.2018 21:08 2,1 C 3,9 C 99 % 1035,0 hPa 0,0 l/m 0,1 km/h (0 Bft) NW 309 0 min 0,000 mm 0,0 UV-I 0 W/m 2,0 C 2,1 C 1,6 km/h (1 Bft) 98,08 %
27.01.2018 21:10 2,1 C 3,9 C 99 % 1035,1 hPa 0,0 l/m 0,0 km/h (0 Bft) NW 309 0 min 0,000 mm 0,0 UV-I 0 W/m 2,0 C 2,1 C 0,0 km/h (0 Bft) 100,00 %
27.01.2018 21:12 2,1 C 3,9 C 99 % 1035,0 hPa 0,0 l/m 1,5 km/h (1 Bft) NW 305 0 min 0,000 mm 0,0 UV-I 0 W/m 2,0 C 2,1 C 4,8 km/h (1 Bft) 100,00 %
27.01.2018 21:14 2,0 C 3,9 C 99 % 1035,1 hPa 0,0 l/m 0,2 km/h (0 Bft) NW 305 0 min 0,000 mm 0,0 UV-I 0 W/m 1,9 C 2,0 C 1,6 km/h (1 Bft) 100,00 %
27.01.2018 21:16 2,0 C 3,9 C 99 % 1035,1 hPa 0,0 l/m 0,2 km/h (0 Bft) NW 305 0 min 0,000 mm 0,0 UV-I 0 W/m 1,9 C 2,0 C 1,6 km/h (1 Bft) 100,00 %
27.01.2018 21:18 2,0 C 3,9 C 99 % 1035,0 hPa 0,0 l/m 0,7 km/h (0 Bft) NW 305 0 min 0,000 mm 0,0 UV-I 0 W/m 1,9 C 2,0 C 3,2 km/h (1 Bft) 100,00 %
27.01.2018 21:20 2,0 C 3,9 C 99 % 1035,0 hPa 0,0 l/m 2,4 km/h (1 Bft) W-NW 303 0 min 0,000 mm 0,0 UV-I 0 W/m 1,9 C 2,0 C 3,2 km/h (1 Bft) 100,00 %
27.01.2018 21:22 2,0 C 3,9 C 99 % 1035,0 hPa 0,0 l/m 2,1 km/h (1 Bft) NW 306 0 min 0,000 mm 0,0 UV-I 0 W/m 1,9 C 2,0 C 3,2 km/h (1 Bft) 100,00 %
27.01.2018 21:24 2,0 C 3,9 C 99 % 1034,9 hPa 0,0 l/m 2,7 km/h (1 Bft) W-SW 254 0 min 0,000 mm 0,0 UV-I 0 W/m 1,9 C 2,0 C 4,8 km/h (1 Bft) 100,00 %
27.01.2018 21:26 2,0 C 3,9 C 99 % 1035,0 hPa 0,0 l/m 2,6 km/h (1 Bft) W-SW 254 0 min 0,000 mm 0,0 UV-I 0 W/m 1,9 C 2,0 C 6,4 km/h (2 Bft) 100,00 %
27.01.2018 21:28 1,9 C 3,9 C 99 % 1034,9 hPa 0,0 l/m 2,8 km/h (1 Bft) W 271 0 min 0,000 mm 0,0 UV-I 0 W/m 1,8 C 1,9 C 6,4 km/h (2 Bft) 100,00 %
27.01.2018 21:30 1,9 C 3,9 C 99 % 1035,0 hPa 0,0 l/m 1,0 km/h (0 Bft) W 271 0 min 0,000 mm 0,0 UV-I 0 W/m 1,8 C 1,9 C 3,2 km/h (1 Bft) 100,00 %
27.01.2018 21:32 1,9 C 3,9 C 99 % 1035,0 hPa 0,0 l/m 1,0 km/h (0 Bft) W 271 0 min 0,000 mm 0,0 UV-I 0 W/m 1,8 C 1,9 C 4,8 km/h (1 Bft) 100,00 %
27.01.2018 21:34 1,9 C 3,9 C 99 % 1035,0 hPa 0,0 l/m 1,6 km/h (1 Bft) W 271 0 min 0,000 mm 0,0 UV-I 0 W/m 1,8 C 1,9 C 4,8 km/h (1 Bft) 100,00 %
27.01.2018 21:36 1,9 C 3,9 C 99 % 1035,0 hPa 0,0 l/m 2,3 km/h (1 Bft) W 271 0 min 0,000 mm 0,0 UV-I 0 W/m 1,8 C 1,9 C 4,8 km/h (1 Bft) 95,74 %
27.01.2018 21:38 1,9 C 3,9 C 99 % 1035,0 hPa 0,0 l/m 1,0 km/h (0 Bft) W 271 0 min 0,000 mm 0,0 UV-I 0 W/m 1,8 C 1,9 C 4,8 km/h (1 Bft) 100,00 %
27.01.2018 21:40 1,9 C 3,9 C 99 % 1035,0 hPa 0,0 l/m 0,3 km/h (0 Bft) W 271 0 min 0,000 mm 0,0 UV-I 0 W/m 1,8 C 1,9 C 1,6 km/h (1 Bft) 98,00 %
27.01.2018 21:42 1,9 C 3,9 C 99 % 1035,1 hPa 0,0 l/m 0,0 km/h (0 Bft) W 271 0 min 0,000 mm 0,0 UV-I 0 W/m 1,8 C 1,9 C 0,0 km/h (0 Bft) 100,00 %
27.01.2018 21:44 1,9 C 3,9 C 99 % 1035,1 hPa 0,0 l/m 0,2 km/h (0 Bft) W 271 0 min 0,000 mm 0,0 UV-I 0 W/m 1,8 C 1,9 C 1,6 km/h (1 Bft) 100,00 %
27.01.2018 21:46 1,9 C 3,9 C 99 % 1035,1 hPa 0,0 l/m 0,1 km/h (0 Bft) W 271 0 min 0,000 mm 0,0 UV-I 0 W/m 1,8 C 1,9 C 1,6 km/h (1 Bft) 100,00 %
27.01.2018 21:48 1,9 C 3,9 C 99 % 1035,1 hPa 0,0 l/m 0,0 km/h (0 Bft) W 271 0 min 0,000 mm 0,0 UV-I 0 W/m 1,8 C 1,9 C 0,0 km/h (0 Bft) 98,00 %
27.01.2018 21:50 1,9 C 3,9 C 99 % 1035,1 hPa 0,0 l/m 0,0 km/h (0 Bft) W 271 0 min 0,000 mm 0,0 UV-I 0 W/m 1,8 C 1,9 C 1,6 km/h (1 Bft) 100,00 %
27.01.2018 21:52 1,9 C 3,9 C 99 % 1035,1 hPa 0,0 l/m 0,0 km/h (0 Bft) W 271 0 min 0,000 mm 0,0 UV-I 0 W/m 1,8 C 1,9 C 0,0 km/h (0 Bft) 100,00 %
27.01.2018 21:54 1,9 C 3,9 C 99 % 1035,1 hPa 0,0 l/m 0,6 km/h (0 Bft) W 271 0 min 0,000 mm 0,0 UV-I 0 W/m 1,8 C 1,9 C 3,2 km/h (1 Bft) 100,00 %
27.01.2018 21:56 1,9 C 3,9 C 99 % 1035,0 hPa 0,0 l/m 0,2 km/h (0 Bft) W 271 0 min 0,000 mm 0,0 UV-I 0 W/m 1,8 C 1,9 C 1,6 km/h (1 Bft) 96,00 %
27.01.2018 21:58 1,9 C 3,9 C 99 % 1035,1 hPa 0,0 l/m 0,8 km/h (0 Bft) W 271 0 min 0,000 mm 0,0 UV-I 0 W/m 1,8 C 1,9 C 1,6 km/h (1 Bft) 97,87 %
27.01.2018 22:00 1,9 C 3,9 C 99 % 1035,1 hPa 0,0 l/m 0,1 km/h (0 Bft) W 271 0 min 0,000 mm 0,0 UV-I 0 W/m 1,8 C 1,9 C 1,6 km/h (1 Bft) 98,00 %
27.01.2018 22:03 1,9 C 3,9 C 99 % 1035,1 hPa 0,0 l/m 0,7 km/h (0 Bft) W 271 0 min 0,000 mm 0,0 UV-I 0 W/m 1,8 C 1,9 C 1,6 km/h (1 Bft) 95,71 %
27.01.2018 22:04 1,9 C 3,9 C 99 % 1035,1 hPa 0,0 l/m 1,4 km/h (1 Bft) W 271 0 min 0,000 mm 0,0 UV-I 0 W/m 1,8 C 1,9 C 3,2 km/h (1 Bft) 100,00 %
27.01.2018 22:06 1,9 C 3,9 C 99 % 1035,0 hPa 0,0 l/m 0,1 km/h (0 Bft) W 271 0 min 0,000 mm 0,0 UV-I 0 W/m 1,8 C 1,9 C 1,6 km/h (1 Bft) 98,00 %
27.01.2018 22:08 1,9 C 3,9 C 99 % 1035,0 hPa 0,0 l/m 0,0 km/h (0 Bft) W 271 0 min 0,000 mm 0,0 UV-I 0 W/m 1,8 C 1,9 C 0,0 km/h (0 Bft) 95,74 %
27.01.2018 22:10 1,9 C 3,9 C 99 % 1035,1 hPa 0,0 l/m 0,3 km/h (0 Bft) W 271 0 min 0,000 mm 0,0 UV-I 0 W/m 1,8 C 1,9 C 1,6 km/h (1 Bft) 97,87 %
27.01.2018 22:12 1,9 C 3,9 C 99 % 1035,0 hPa 0,0 l/m 0,9 km/h (0 Bft) W 271 0 min 0,000 mm 0,0 UV-I 0 W/m 1,8 C 1,9 C 3,2 km/h (1 Bft) 98,00 %
27.01.2018 22:14 1,9 C 3,9 C 99 % 1035,0 hPa 0,0 l/m 1,0 km/h (0 Bft) W 271 0 min 0,000 mm 0,0 UV-I 0 W/m 1,8 C 1,9 C 3,2 km/h (1 Bft) 98,00 %
27.01.2018 22:16 1,9 C 3,9 C 99 % 1035,0 hPa 0,0 l/m 1,4 km/h (1 Bft) W 271 0 min 0,000 mm 0,0 UV-I 0 W/m 1,8 C 1,9 C 3,2 km/h (1 Bft) 98,00 %
27.01.2018 22:18 1,8 C 3,9 C 99 % 1035,0 hPa 0,0 l/m 1,0 km/h (0 Bft) W 271 0 min 0,000 mm 0,0 UV-I 0 W/m 1,7 C 1,8 C 1,6 km/h (1 Bft) 97,22 %
27.01.2018 22:20 1,8 C 3,9 C 99 % 1035,0 hPa 0,0 l/m 2,1 km/h (1 Bft) W 271 0 min 0,000 mm 0,0 UV-I 0 W/m 1,7 C 1,8 C 4,8 km/h (1 Bft) 98,00 %
27.01.2018 22:22 1,8 C 3,9 C 99 % 1035,0 hPa 0,0 l/m 1,0 km/h (0 Bft) W 271 0 min 0,000 mm 0,0 UV-I 0 W/m 1,7 C 1,8 C 3,2 km/h (1 Bft) 98,08 %
27.01.2018 22:24 1,8 C 3,9 C 99 % 1035,0 hPa 0,0 l/m 0,7 km/h (0 Bft) W 271 0 min 0,000 mm 0,0 UV-I 0 W/m 1,7 C 1,8 C 3,2 km/h (1 Bft) 97,44 %
27.01.2018 22:26 1,8 C 3,9 C 99 % 1035,2 hPa 0,0 l/m 1,7 km/h (1 Bft) W 271 0 min 0,000 mm 0,0 UV-I 0 W/m 1,7 C 1,8 C 3,2 km/h (1 Bft) 94,64 %
27.01.2018 22:28 1,9 C 3,9 C 99 % 1035,0 hPa 0,0 l/m 0,0 km/h (0 Bft) W 271 0 min 0,000 mm 0,0 UV-I 0 W/m 1,8 C 1,9 C 0,0 km/h (0 Bft) 97,87 %
27.01.2018 22:30 1,8 C 3,9 C 99 % 1035,0 hPa 0,0 l/m 0,0 km/h (0 Bft) W 271 0 min 0,000 mm 0,0 UV-I 0 W/m 1,7 C 1,8 C 0,0 km/h (0 Bft) 96,00 %
27.01.2018 22:32 1,8 C 3,9 C 99 % 1035,0 hPa 0,0 l/m 0,6 km/h (0 Bft) W 270 0 min 0,000 mm 0,0 UV-I 0 W/m 1,7 C 1,8 C 4,8 km/h (1 Bft) 100,00 %
27.01.2018 22:34 1,8 C 3,9 C 99 % 1035,0 hPa 0,0 l/m 2,3 km/h (1 Bft) W 270 0 min 0,000 mm 0,0 UV-I 0 W/m 1,7 C 1,8 C 4,8 km/h (1 Bft) 100,00 %
27.01.2018 22:36 1,8 C 3,9 C 99 % 1035,0 hPa 0,0 l/m 1,7 km/h (1 Bft) W 270 0 min 0,000 mm 0,0 UV-I 0 W/m 1,7 C 1,8 C 3,2 km/h (1 Bft) 100,00 %
27.01.2018 22:38 1,8 C 3,9 C 99 % 1035,0 hPa 0,0 l/m 1,2 km/h (1 Bft) W 270 0 min 0,000 mm 0,0 UV-I 0 W/m 1,7 C 1,8 C 3,2 km/h (1 Bft) 100,00 %
27.01.2018 22:40 1,8 C 3,9 C 99 % 1035,0 hPa 0,0 l/m 1,1 km/h (1 Bft) W 270 0 min 0,000 mm 0,0 UV-I 0 W/m 1,7 C 1,8 C 3,2 km/h (1 Bft) 100,00 %
27.01.2018 22:42 1,8 C 3,9 C 99 % 1035,0 hPa 0,0 l/m 1,6 km/h (1 Bft) W 270 0 min 0,000 mm 0,0 UV-I 0 W/m 1,7 C 1,8 C 3,2 km/h (1 Bft) 100,00 %
27.01.2018 22:44 1,8 C 3,9 C 99 % 1035,1 hPa 0,0 l/m 2,2 km/h (1 Bft) W 270 0 min 0,000 mm 0,0 UV-I 0 W/m 1,7 C 1,8 C 3,2 km/h (1 Bft) 100,00 %
27.01.2018 22:46 1,8 C 3,9 C 99 % 1035,2 hPa 0,0 l/m 0,6 km/h (0 Bft) W 270 0 min 0,000 mm 0,0 UV-I 0 W/m 1,7 C 1,8 C 1,6 km/h (1 Bft) 100,00 %
27.01.2018 22:48 1,8 C 3,9 C 99 % 1035,3 hPa 0,0 l/m 0,0 km/h (0 Bft) W 270 0 min 0,000 mm 0,0 UV-I 0 W/m 1,7 C 1,8 C 0,0 km/h (0 Bft) 100,00 %
27.01.2018 22:50 1,8 C 3,9 C 99 % 1035,3 hPa 0,0 l/m 0,0 km/h (0 Bft) W 270 0 min 0,000 mm 0,0 UV-I 0 W/m 1,7 C 1,8 C 1,6 km/h (1 Bft) 100,00 %
27.01.2018 22:52 1,8 C 3,9 C 99 % 1035,3 hPa 0,0 l/m 0,2 km/h (0 Bft) W 270 0 min 0,000 mm 0,0 UV-I 0 W/m 1,7 C 1,8 C 1,6 km/h (1 Bft) 100,00 %
27.01.2018 22:54 1,8 C 3,9 C 99 % 1035,2 hPa 0,0 l/m 0,1 km/h (0 Bft) W 270 0 min 0,000 mm 0,0 UV-I 0 W/m 1,7 C 1,8 C 1,6 km/h (1 Bft) 100,00 %
27.01.2018 22:56 1,8 C 3,9 C 99 % 1035,2 hPa 0,0 l/m 0,0 km/h (0 Bft) W 270 0 min 0,000 mm 0,0 UV-I 0 W/m 1,7 C 1,8 C 0,0 km/h (0 Bft) 100,00 %
27.01.2018 22:58 1,8 C 3,9 C 99 % 1035,3 hPa 0,0 l/m 0,0 km/h (0 Bft) W 270 0 min 0,000 mm 0,0 UV-I 0 W/m 1,7 C 1,8 C 0,0 km/h (0 Bft) 97,87 %
27.01.2018 23:00 1,8 C 3,9 C 99 % 1035,2 hPa 0,0 l/m 0,0 km/h (0 Bft) W 270 0 min 0,000 mm 0,0 UV-I 0 W/m 1,7 C 1,8 C 0,0 km/h (0 Bft) 100,00 %
27.01.2018 23:02 1,8 C 3,9 C 99 % 1035,2 hPa 0,0 l/m 0,0 km/h (0 Bft) W 270 0 min 0,000 mm 0,0 UV-I 0 W/m 1,7 C 1,8 C 0,0 km/h (0 Bft) 100,00 %
27.01.2018 23:04 1,8 C 3,9 C 99 % 1035,2 hPa 0,0 l/m 0,3 km/h (0 Bft) W 270 0 min 0,000 mm 0,0 UV-I 0 W/m 1,7 C 1,8 C 1,6 km/h (1 Bft) 100,00 %
27.01.2018 23:06 1,8 C 3,9 C 99 % 1035,1 hPa 0,0 l/m 0,3 km/h (0 Bft) W 270 0 min 0,000 mm 0,0 UV-I 0 W/m 1,7 C 1,8 C 1,6 km/h (1 Bft) 100,00 %
27.01.2018 23:08 1,8 C 3,9 C 99 % 1035,1 hPa 0,0 l/m 1,1 km/h (1 Bft) W 270 0 min 0,000 mm 0,0 UV-I 0 W/m 1,7 C 1,8 C 4,8 km/h (1 Bft) 100,00 %
27.01.2018 23:10 1,8 C 3,9 C 99 % 1035,0 hPa 0,0 l/m 1,6 km/h (1 Bft) W 270 0 min 0,000 mm 0,0 UV-I 0 W/m 1,7 C 1,8 C 3,2 km/h (1 Bft) 100,00 %
27.01.2018 23:12 1,8 C 3,9 C 99 % 1035,2 hPa 0,0 l/m 2,5 km/h (1 Bft) W 271 0 min 0,000 mm 0,0 UV-I 0 W/m 1,7 C 1,8 C 4,8 km/h (1 Bft) 100,00 %
27.01.2018 23:14 1,8 C 3,9 C 99 % 1035,2 hPa 0,0 l/m 2,4 km/h (1 Bft) W 271 0 min 0,000 mm 0,0 UV-I 0 W/m 1,7 C 1,8 C 3,2 km/h (1 Bft) 100,00 %
27.01.2018 23:16 1,8 C 3,9 C 99 % 1035,2 hPa 0,0 l/m 0,4 km/h (0 Bft) W 271 0 min 0,000 mm 0,0 UV-I 0 W/m 1,7 C 1,8 C 3,2 km/h (1 Bft) 100,00 %
27.01.2018 23:18 1,8 C 3,9 C 99 % 1035,2 hPa 0,0 l/m 0,0 km/h (0 Bft) W 271 0 min 0,000 mm 0,0 UV-I 0 W/m 1,7 C 1,8 C 0,0 km/h (0 Bft) 97,87 %
27.01.2018 23:20 1,8 C 3,9 C 99 % 1035,2 hPa 0,0 l/m 0,1 km/h (0 Bft) W 271 0 min 0,000 mm 0,0 UV-I 0 W/m 1,7 C 1,8 C 1,6 km/h (1 Bft) 100,00 %
27.01.2018 23:22 1,8 C 3,9 C 99 % 1035,1 hPa 0,0 l/m 0,2 km/h (0 Bft) W 271 0 min 0,000 mm 0,0 UV-I 0 W/m 1,7 C 1,8 C 1,6 km/h (1 Bft) 100,00 %
27.01.2018 23:24 1,8 C 3,9 C 99 % 1035,2 hPa 0,0 l/m 0,0 km/h (0 Bft) W 271 0 min 0,000 mm 0,0 UV-I 0 W/m 1,7 C 1,8 C 0,0 km/h (0 Bft) 100,00 %
27.01.2018 23:26 1,8 C 3,9 C 99 % 1035,2 hPa 0,0 l/m 0,0 km/h (0 Bft) W 271 0 min 0,000 mm 0,0 UV-I 0 W/m 1,7 C 1,8 C 0,0 km/h (0 Bft) 97,87 %
27.01.2018 23:28 1,8 C 3,9 C 99 % 1035,2 hPa 0,0 l/m 0,0 km/h (0 Bft) W 271 0 min 0,000 mm 0,0 UV-I 0 W/m 1,7 C 1,8 C 0,0 km/h (0 Bft) 98,00 %
27.01.2018 23:30 1,8 C 3,9 C 99 % 1035,0 hPa 0,0 l/m 0,0 km/h (0 Bft) W 271 0 min 0,000 mm 0,0 UV-I 0 W/m 1,7 C 1,8 C 0,0 km/h (0 Bft) 97,87 %
27.01.2018 23:32 1,8 C 3,9 C 99 % 1035,0 hPa 0,0 l/m 0,0 km/h (0 Bft) W 271 0 min 0,000 mm 0,0 UV-I 0 W/m 1,7 C 1,8 C 0,0 km/h (0 Bft) 97,92 %
27.01.2018 23:34 1,7 C 3,9 C 99 % 1035,0 hPa 0,0 l/m 0,0 km/h (0 Bft) W 271 0 min 0,000 mm 0,0 UV-I 0 W/m 1,6 C 1,7 C 1,6 km/h (1 Bft) 100,00 %
27.01.2018 23:36 1,7 C 3,9 C 99 % 1035,1 hPa 0,0 l/m 0,0 km/h (0 Bft) W 271 0 min 0,000 mm 0,0 UV-I 0 W/m 1,6 C 1,7 C 1,6 km/h (1 Bft) 100,00 %
27.01.2018 23:38 1,7 C 3,9 C 99 % 1035,0 hPa 0,0 l/m 0,6 km/h (0 Bft) W-NW 297 0 min 0,000 mm 0,0 UV-I 0 W/m 1,6 C 1,7 C 3,2 km/h (1 Bft) 100,00 %
27.01.2018 23:40 1,7 C 3,9 C 99 % 1035,0 hPa 0,0 l/m 0,1 km/h (0 Bft) W-NW 297 0 min 0,000 mm 0,0 UV-I 0 W/m 1,6 C 1,7 C 1,6 km/h (1 Bft) 100,00 %
27.01.2018 23:42 1,7 C 3,9 C 99 % 1035,0 hPa 0,0 l/m 0,5 km/h (0 Bft) W-NW 297 0 min 0,000 mm 0,0 UV-I 0 W/m 1,6 C 1,7 C 3,2 km/h (1 Bft) 95,74 %
27.01.2018 23:44 1,7 C 3,9 C 99 % 1034,9 hPa 0,0 l/m 1,0 km/h (0 Bft) W-NW 297 0 min 0,000 mm 0,0 UV-I 0 W/m 1,6 C 1,7 C 3,2 km/h (1 Bft) 98,00 %
27.01.2018 23:46 1,7 C 3,9 C 99 % 1034,9 hPa 0,0 l/m 0,0 km/h (0 Bft) W-NW 297 0 min 0,000 mm 0,0 UV-I 0 W/m 1,6 C 1,7 C 1,6 km/h (1 Bft) 100,00 %
27.01.2018 23:48 1,7 C 3,9 C 99 % 1034,9 hPa 0,0 l/m 0,5 km/h (0 Bft) W-NW 297 0 min 0,000 mm 0,0 UV-I 0 W/m 1,6 C 1,7 C 3,2 km/h (1 Bft) 100,00 %
27.01.2018 23:50 1,7 C 3,9 C 99 % 1034,9 hPa 0,0 l/m 1,8 km/h (1 Bft) W-NW 297 0 min 0,000 mm 0,0 UV-I 0 W/m 1,6 C 1,7 C 3,2 km/h (1 Bft) 100,00 %
27.01.2018 23:52 1,7 C 3,9 C 99 % 1034,9 hPa 0,0 l/m 2,3 km/h (1 Bft) W-NW 296 0 min 0,000 mm 0,0 UV-I 0 W/m 1,6 C 1,7 C 3,2 km/h (1 Bft) 98,00 %
27.01.2018 23:54 1,7 C 3,9 C 99 % 1034,9 hPa 0,0 l/m 0,8 km/h (0 Bft) W-NW 296 0 min 0,000 mm 0,0 UV-I 0 W/m 1,6 C 1,7 C 1,6 km/h (1 Bft) 98,00 %
27.01.2018 23:56 1,7 C 3,9 C 99 % 1034,9 hPa 0,0 l/m 0,4 km/h (0 Bft) W-NW 296 0 min 0,000 mm 0,0 UV-I 0 W/m 1,6 C 1,7 C 1,6 km/h (1 Bft) 95,74 %
_ Min-Zeit 00:04 00:00 00:00 00:00 - 01:40 - - - - - - 00:06 00:30 01:40 00:02
Minimum _ 0,4 C 3,9 C 98 % 1024,4 hPa - 0,0 km/h (0 Bft) - - - - - - 0,1 C -0,2 C 0,0 km/h (0 Bft) 10,00 %
_ Max-Zeit 19:26 00:00 05:48 22:48 00:00 00:30 - - 00:00 12:02 00:00 12:00 19:32 19:32 00:32 00:06
Maximum _ 2,2 C 3,9 C 99 % 1035,3 hPa 0,0 l/m 7,1 km/h
O (2 Bft)
- - 0 min 0,026 mm 0,0 UV-I 89 W/m 2,1 C 2,2 C 11,3 km/h
O-NO (2 Bft)
100,00 %
Durchschnitt _ 1,3 C 3,9 C 99 % 1030,8 hPa #0,0 l/m 0,8 km/h (0 Bft) O-NO - #0 min. #0,127 mm 0,0 UV-I 39 W/m 1,2 C 1,3 C 1,9 km/h (1 Bft) 97,94 %